[[{"header":{"parameterUnit":"m.s-1","parameterCategory":1,"la1":30.6,"la2":29.2853,"lo1":-89.7004,"lo2":-87.6739,"dy":0.0162,"dx":0.0183,"nx":112,"ny":82,"refTime":"2025-04-12T06:00:00:Z","depth":0,"parameterNumber":2,"parameterNumberName":"U-component_of_WINDS"},"data":[0.0,0.0,0.0,0.0,0.0,0.0,0.0,0.0,0.0,0.0,0.0,0.0,0.0,0.0,0.0,0.0,0.0,0.0,0.0,0.0,0.0,0.0,0.0,0.0,0.0,0.0,0.0,0.0,0.0,0.0,0.0,0.0,0.0,0.0,0.0,0.0,0.0,0.0,0.0,0.0,0.0,0.0,0.0,0.0,0.0,0.0,0.0,0.0,0.0,0.0,0.0,0.0,0.0,0.0,0.0,0.0,0.0,0.0,0.0,0.0,0.0,0.0,0.0,0.0,0.0,0.0,0.0,0.0,0.0,0.0,0.0,0.0,0.0,0.0,0.0,0.0,0.0,0.0,0.0,0.0,0.0,0.0,0.0,0.0,0.0,0.0,0.0,0.0,0.0,0.0,0.0,1.3031,1.389,1.4005,1.3023,1.2256,1.0735,0.8176,0.0,0.0,0.0,0.0,0.0,0.0,0.0,0.0,0.0,0.0,0.0,0.0,0.0,0.0,0.0,0.0,0.0,0.0,0.0,0.0,0.0,0.0,0.0,0.0,0.0,0.0,0.0,0.0,0.0,0.0,0.0,0.0,0.0,0.0,0.0,0.0,0.0,0.0,0.0,0.0,0.0,0.0,0.0,0.0,0.0,0.0,0.0,0.0,0.0,0.0,0.0,0.0,0.0,0.0,0.0,0.0,0.0,0.0,0.0,0.0,0.0,0.0,0.0,0.0,0.0,0.0,0.0,0.0,0.0,0.0,0.0,0.0,0.0,0.0,0.0,0.0,0.0,0.0,0.0,0.0,0.0,0.0,0.0,0.0,0.0,0.0,0.0,0.0,0.0,0.0,0.0,0.0,0.0,0.0,0.0,0.0,0.0,0.0,0.0,0.0,0.0,0.0,0.0,0.0,1.2601,1.4739,1.4149,1.3447,1.3163,1.1923,1.023,0.8126,0.0,0.0,0.0,0.0,0.0,0.0,0.0,0.0,0.0,0.0,0.0,0.0,0.0,0.0,0.0,0.0,0.0,0.0,0.0,0.0,0.0,0.0,0.0,0.0,0.0,0.0,0.0,0.0,0.0,0.0,0.0,0.0,0.0,0.0,0.0,0.0,0.0,0.0,0.0,0.0,0.0,0.0,0.0,0.0,0.0,0.0,0.0,0.0,0.0,0.0,0.0,0.0,0.0,0.0,0.0,0.0,0.0,0.0,0.0,0.0,0.0,0.0,0.0,0.0,0.0,0.0,0.0,0.0,0.0,0.0,0.0,0.0,0.0,0.0,0.0,0.0,0.0,0.0,0.0,0.0,0.0,0.0,0.0,0.0,0.0,0.0,0.0,0.0,0.0,0.0,0.0,0.0,0.0,0.0,0.0,0.0,0.0,0.0,0.0,0.0,0.0,0.0,0.0,1.1912,1.2891,1.5057,1.4631,1.389,1.3101,1.2212,1.0726,0.8348,0.8088,0.0,0.0,0.0,0.0,0.0,0.0,0.0,0.0,0.0,0.0,0.0,0.0,0.0,0.0,0.0,0.0,0.0,0.0,0.0,0.0,0.0,0.0,0.0,0.0,0.0,0.0,0.0,0.0,0.0,0.0,0.0,0.0,0.0,0.0,0.0,0.0,0.0,0.0,0.0,0.0,0.0,0.0,0.0,0.0,0.0,0.0,0.0,0.0,0.0,0.0,0.0,0.0,0.0,0.0,0.0,0.0,0.0,0.0,0.0,0.0,0.0,0.0,0.0,0.0,0.0,0.0,0.0,0.0,0.0,0.0,0.0,0.0,0.0,0.0,0.0,0.0,0.0,0.0,0.0,0.0,0.0,0.0,0.0,0.0,0.0,0.0,0.0,0.0,0.0,0.0,0.0,0.0,0.0,0.0,0.0,0.0,0.0,0.0,0.0,0.0,0.0,0.0,1.2807,1.3349,1.4965,1.4855,1.4193,1.3001,1.2394,1.1062,0.8685,0.8109,0.0,0.0,0.0,0.0,0.0,0.0,0.0,0.0,0.0,0.0,0.0,0.0,0.0,0.0,0.0,0.0,0.0,0.0,0.0,0.0,0.0,0.0,0.0,0.0,0.0,0.0,0.0,0.0,0.0,0.0,0.0,0.0,0.0,0.0,0.0,0.0,0.0,0.0,0.0,0.0,0.0,0.0,0.0,0.0,0.0,0.0,0.0,0.0,0.0,0.0,0.0,0.0,0.0,0.0,0.0,0.0,0.0,0.0,0.0,0.0,0.0,0.0,0.0,0.0,0.0,0.0,0.0,0.0,0.0,0.0,0.0,0.0,0.0,0.0,0.0,0.0,0.0,0.0,0.0,0.0,0.0,0.0,0.0,0.0,0.0,0.0,0.0,0.0,0.0,0.0,0.0,0.0,0.0,0.0,0.0,0.0,0.0,0.0,0.0,0.0,0.0,0.0,1.3009,1.4205,1.4868,1.4398,1.3761,1.3038,1.1993,1.0674,0.9043,0.8018,0.0,0.0,0.0,0.0,0.0,0.0,0.0,0.0,0.0,0.0,0.0,0.0,0.0,0.0,0.0,0.0,0.0,0.0,0.0,0.0,0.0,0.0,0.0,0.0,0.0,0.0,0.0,0.0,0.0,0.0,0.0,0.0,0.0,0.0,0.0,0.0,0.0,0.0,0.0,0.0,0.0,0.0,0.0,0.0,0.0,0.0,0.0,0.0,0.0,0.0,0.0,0.0,0.0,0.0,0.0,0.0,0.0,0.0,0.0,0.0,0.0,0.0,0.0,0.0,0.0,0.0,0.0,0.0,0.0,0.0,0.0,0.0,0.0,0.0,0.0,0.0,0.0,0.0,0.0,0.0,0.0,0.0,0.0,0.0,0.0,0.0,0.0,0.0,0.0,0.0,0.0,0.0,0.0,0.0,0.0,0.0,0.0,0.0,0.0,0.0,0.0,0.0,1.2448,1.3402,0.0,1.4373,1.3736,1.3035,1.2238,1.1065,0.9482,0.0,0.0,0.0,0.0,0.0,0.0,0.0,0.0,0.0,0.0,0.0,0.0,0.0,0.0,0.0,0.0,0.0,0.0,0.0,0.0,0.0,0.0,0.0,0.0,0.0,0.0,0.0,0.0,0.0,0.0,0.0,0.0,0.0,0.0,0.0,0.0,0.0,0.0,0.0,0.0,0.0,0.0,0.0,0.0,0.0,0.0,0.0,0.0,0.0,0.0,0.0,0.0,0.0,0.0,0.0,0.0,0.0,0.0,0.0,0.0,0.0,0.0,0.0,0.0,0.0,0.0,0.0,0.0,0.0,0.0,0.0,0.0,0.0,0.0,0.0,0.0,0.0,0.0,0.0,0.0,0.0,0.0,0.0,0.0,0.0,0.0,0.0,0.0,0.0,0.0,0.0,0.0,0.0,0.0,0.0,0.0,0.0,0.0,0.0,0.0,0.0,0.0,1.16,1.2282,1.3157,0.0,1.4233,1.3695,1.3232,1.2253,1.1074,0.9744,0.0,0.0,0.0,0.0,0.0,0.0,0.0,0.0,0.0,0.0,0.0,0.0,0.0,0.0,0.0,0.0,0.0,0.0,0.0,0.0,0.0,0.0,0.0,0.0,0.0,0.0,0.0,0.0,0.0,0.0,0.0,0.0,0.0,0.0,0.0,0.0,0.0,0.0,0.0,0.0,0.0,0.0,0.0,0.0,0.0,0.0,0.0,0.0,0.0,0.0,0.0,0.0,0.0,0.0,0.0,0.0,0.0,0.0,0.0,0.0,0.0,0.0,0.0,0.0,0.0,0.0,0.0,0.0,0.0,0.0,0.0,0.0,0.0,0.0,0.0,0.0,0.0,0.0,0.0,0.0,0.0,0.0,0.0,0.0,0.0,0.0,0.0,0.0,0.0,0.0,0.0,0.0,0.0,0.0,0.0,0.0,0.0,0.0,0.0,0.0,0.0,0.0,1.138,1.2609,1.3667,1.4321,1.3905,1.3621,1.3621,1.1967,1.0587,0.0,0.0,0.0,0.0,0.0,0.0,0.0,0.0,0.0,0.0,0.0,0.0,0.0,0.0,0.0,0.0,0.0,0.0,0.0,0.0,0.0,0.0,0.0,0.0,0.0,0.0,0.0,0.0,0.0,0.0,0.0,0.0,0.0,0.0,0.0,0.0,0.0,0.0,0.0,0.0,0.0,0.0,0.0,0.0,0.0,0.0,0.0,0.0,0.0,0.0,0.0,0.0,0.0,0.0,0.0,0.0,0.0,0.0,0.0,0.0,0.0,0.0,0.0,0.0,0.0,0.0,0.0,0.0,0.0,0.0,0.0,0.0,0.0,0.0,0.0,0.0,0.0,0.0,0.0,0.0,0.0,0.0,0.0,0.0,0.0,0.0,0.0,0.0,0.0,0.0,0.0,0.0,0.0,0.0,0.0,0.0,0.0,0.0,0.0,0.0,0.0,0.0,0.0,1.1862,1.3111,1.4026,1.4354,1.3905,1.3621,1.3621,1.2248,1.0961,0.9853,0.0,0.0,0.0,0.0,0.0,0.0,0.0,0.0,0.0,0.0,0.0,0.0,0.0,0.0,0.0,0.0,0.0,0.0,0.0,0.0,0.0,0.0,0.0,0.0,0.0,0.0,0.0,0.0,0.0,0.0,0.0,0.0,0.0,0.0,0.0,0.0,0.0,0.0,0.0,0.0,0.0,0.0,0.0,0.0,0.0,0.0,0.0,0.0,0.0,0.0,0.0,0.0,0.0,0.0,0.0,0.0,0.0,0.0,0.0,0.0,0.0,0.0,0.0,0.0,0.0,0.0,0.0,0.0,0.0,0.0,0.0,0.0,0.0,0.0,0.0,0.0,0.0,0.0,0.0,0.0,0.0,0.0,0.0,0.0,0.0,0.0,0.0,0.0,0.0,0.0,0.0,0.0,0.0,0.0,0.0,0.0,0.0,0.0,0.0,0.0,0.0,0.0,1.2059,1.3218,1.4072,1.4376,1.3905,1.3621,1.3621,1.2368,1.1099,0.9946,0.0,0.0,0.0,0.0,0.0,0.0,0.0,0.0,0.0,0.0,0.0,0.0,0.0,0.0,0.0,0.0,0.0,0.0,0.0,0.0,0.0,0.0,0.0,0.0,0.0,0.0,0.0,0.0,0.0,0.0,0.0,0.0,0.0,0.0,0.0,0.0,0.0,0.0,0.0,0.0,0.0,0.0,0.0,0.0,0.0,0.0,0.0,0.0,0.0,0.0,0.0,0.0,0.0,0.0,0.0,0.0,0.0,0.0,0.0,0.0,0.0,0.0,0.0,0.0,0.0,0.0,0.0,0.0,0.0,0.0,0.0,0.0,0.0,0.0,0.0,0.0,0.0,0.0,0.0,0.0,0.0,0.0,0.0,0.0,0.0,0.0,0.0,0.0,0.0,0.0,0.0,0.0,0.0,0.0,0.0,0.0,0.0,0.0,0.0,0.0,0.0,0.0,1.2023,1.3122,1.3925,1.4329,1.3952,1.3621,1.3621,1.2463,1.1241,1.0153,0.0,0.0,0.0,0.0,0.0,0.0,0.0,0.0,0.0,0.0,0.0,0.0,0.0,0.0,0.0,0.0,0.0,0.0,0.0,0.0,0.0,0.0,0.0,0.0,0.0,0.0,0.0,0.0,0.0,0.0,0.0,0.0,0.0,0.0,0.0,0.0,0.0,0.0,0.0,0.0,0.0,0.0,0.0,0.0,0.0,0.0,0.0,0.0,0.0,0.0,0.0,0.0,0.0,0.0,0.0,0.0,0.0,0.0,0.0,0.0,0.7365,0.0,0.0,0.0,0.0,0.0,0.0,0.0,0.0,0.0,0.0,0.0,0.0,0.0,0.0,0.0,0.0,0.0,0.0,0.0,0.0,0.0,0.0,0.0,0.0,0.0,0.0,0.0,0.0,0.0,0.0,0.0,0.0,0.0,0.0,0.0,0.0,0.0,0.0,0.0,0.0,0.0,1.207,1.3401,1.4264,1.4408,1.4104,1.3915,1.3915,1.317,1.217,1.095,0.0,0.0,0.0,0.0,0.0,0.0,0.0,0.0,0.0,0.0,0.0,0.0,0.0,0.0,0.0,0.0,0.0,0.0,0.0,0.0,0.0,0.0,0.0,0.0,0.0,0.0,0.0,0.0,0.0,0.0,0.0,0.0,0.0,0.0,0.0,0.0,0.0,0.0,0.0,0.0,0.0,0.0,0.0,0.0,0.0,0.0,0.0,0.0,0.0,0.0,0.0,0.0,0.0,0.0,0.0,0.0,0.0,0.0,0.0,0.0,0.0,0.7766,0.0,0.0,0.0,0.0,0.0,0.0,0.0,0.0,0.0,0.0,0.0,0.0,0.0,0.0,0.0,0.0,0.0,0.0,0.0,0.0,0.0,0.0,0.0,0.0,0.0,0.0,0.0,0.0,0.0,0.0,0.0,0.0,0.0,0.0,0.0,0.0,0.0,0.0,0.0,0.0,1.2184,1.3539,1.4373,1.4373,1.415,1.402,1.402,1.3401,1.2642,1.1855,1.075,0.0,0.0,0.0,0.0,0.0,0.0,0.0,0.0,0.0,0.0,0.0,0.0,0.0,0.0,0.0,0.0,0.0,0.0,0.0,0.0,0.0,0.0,0.0,0.0,0.0,0.0,0.0,0.0,0.0,0.0,0.0,0.0,0.0,0.0,0.0,0.0,0.0,0.0,0.0,0.0,0.0,0.0,0.0,0.0,0.0,0.0,0.0,0.0,0.0,0.0,0.0,0.0,0.0,0.9801,1.0108,1.0281,1.0243,1.0472,1.0801,0.9298,0.892,0.9309,0.0,0.0,0.0,0.0,0.0,0.0,0.0,0.0,0.0,0.0,0.0,0.0,0.0,0.0,0.0,0.0,0.0,0.0,0.0,0.0,0.0,0.0,0.0,0.0,0.0,1.3582,1.3619,0.0,0.0,0.0,0.0,0.0,0.0,0.0,0.0,0.0,0.0,0.0,0.0,1.2496,1.3663,1.4373,1.4373,1.4197,1.4067,1.4067,1.3567,1.3099,1.2797,1.1602,1.0562,0.0,0.0,0.0,0.0,0.0,0.0,0.0,0.0,0.0,0.0,0.0,0.0,0.0,0.0,0.0,0.0,0.0,0.0,0.0,0.0,0.0,0.0,0.0,0.0,0.0,0.0,0.0,0.0,0.0,0.0,0.0,0.0,0.6671,0.718,0.0,0.0,0.0,0.0,0.0,0.0,0.0,0.0,0.0,0.0,0.0,0.0,0.0,1.0207,1.0349,1.1132,1.1209,1.0656,1.114,1.1377,1.1394,1.1233,1.1357,1.1707,1.1279,0.0,1.0741,0.9825,0.0,0.0,0.0,0.0,0.0,0.0,0.0,0.0,0.0,0.0,0.0,0.0,0.0,0.0,0.0,0.0,0.0,0.0,0.0,0.0,0.0,0.0,1.4205,1.3748,1.3741,1.3824,0.0,1.32,1.2631,1.1932,0.0,0.0,0.0,0.0,0.0,0.0,0.0,0.0,1.3053,1.3917,1.4373,1.4373,1.4373,1.4337,1.4337,1.4272,1.4043,1.3586,1.2966,1.2261,1.1492,1.0531,0.0,0.0,0.0,0.0,0.0,0.0,0.0,0.0,0.0,0.0,0.0,0.0,0.0,0.0,0.0,0.0,0.0,0.0,0.0,0.0,0.0,0.0,0.0,0.0,0.0,0.0,0.0,0.0,0.0,0.6649,0.7169,0.7383,0.7623,0.7721,0.0,0.0,0.0,0.0,0.0,0.0,0.0,0.0,0.0,1.1027,1.0912,1.0943,1.1155,1.1564,1.1523,1.1144,1.1593,1.1752,1.163,1.1535,1.1639,1.178,1.1677,1.1648,1.1558,1.0854,1.0729,1.0987,0.0,0.0,0.0,0.0,1.0639,1.0761,1.1511,1.179,0.0,0.0,0.0,0.0,0.0,0.0,0.0,0.0,0.0,0.0,0.0,0.0,0.0,1.4451,1.4592,1.4732,1.4592,1.4602,1.4249,0.0,1.3262,1.2925,1.0794,0.0,0.0,0.0,0.0,0.0,1.3375,1.4048,1.4373,1.4373,1.4373,1.4373,1.4373,1.4373,1.4286,1.4089,1.363,1.3083,1.245,1.16,1.0842,0.0,0.0,0.0,0.0,0.0,0.0,0.0,0.0,0.0,0.0,0.0,0.0,0.0,0.0,0.0,0.0,0.0,0.0,0.0,0.0,0.0,0.0,0.0,0.0,0.0,0.0,0.0,0.0,0.7327,0.7628,0.786,0.8333,0.8535,0.0,0.0,0.0,0.0,0.0,0.0,1.13,1.1318,1.1603,1.2201,1.1726,1.1565,1.1695,1.1752,1.1581,1.1226,1.1599,1.1746,1.1668,1.1668,1.178,1.197,1.197,1.2046,1.2141,1.1599,1.1588,1.1913,1.1615,1.1602,1.1849,1.2225,1.2225,1.2232,1.3324,1.3521,1.3248,1.2877,0.0,1.2289,1.1319,0.0,0.0,0.0,0.0,1.3499,1.4147,1.4626,1.4959,1.5116,1.5347,1.5487,1.5206,1.5568,1.5533,0.0,1.4464,1.4293,1.1969,0.0,0.0,0.0,0.0,1.2921,1.3784,1.4165,1.4373,1.4373,1.4373,1.4373,1.4373,1.4373,1.4373,1.4373,1.4056,1.3652,1.315,1.2589,1.1904,1.1127,0.0,0.0,0.0,0.0,0.0,0.0,0.0,0.0,0.0,0.0,0.0,0.0,0.0,0.0,0.0,0.0,0.0,0.0,0.0,0.0,0.0,0.0,0.0,0.0,0.0,0.0,0.0,0.0,0.0,0.9101,0.9411,0.0,0.0,0.0,0.0,1.0876,1.1471,1.1896,1.2124,1.2123,1.2192,1.2308,1.2236,1.2165,1.1997,1.1975,1.1706,1.1091,1.1108,1.131,1.1604,1.1604,1.1995,1.2641,1.2641,1.2641,1.2608,1.2087,1.2027,1.2288,1.2444,1.2531,1.2573,1.2804,1.3193,1.3598,1.3663,1.3958,1.4297,1.4321,1.3817,1.3256,1.3466,1.299,0.0,0.0,1.4277,1.4529,1.5443,1.5705,1.5727,1.5749,1.576,1.576,1.576,1.6065,1.6047,0.0,1.5011,1.478,1.3482,0.0,1.3165,1.3369,1.332,1.3535,1.4266,1.4408,1.4373,1.4373,1.4373,1.4373,1.4373,1.4373,1.4373,1.4373,1.4362,1.4133,1.3674,1.3608,1.3159,1.2223,1.1085,0.0,0.0,0.0,0.0,0.0,0.0,0.0,0.0,0.0,0.0,0.0,0.0,0.0,0.0,0.0,0.0,0.0,0.0,0.0,0.0,0.0,0.0,0.0,0.0,0.0,0.0,0.0,0.0,1.0201,1.0858,0.0,0.0,1.1492,1.1895,1.2033,1.2673,1.3014,1.2925,1.3029,1.3017,1.289,1.2603,1.2346,1.2068,1.18,1.1593,1.1339,1.1339,1.1404,1.1534,1.1534,1.1654,1.1936,1.1936,1.1936,1.195,1.1989,1.2339,1.2838,1.29,1.3193,1.365,1.3699,1.4205,1.4806,1.4806,1.5023,1.5312,1.5312,1.5132,1.4927,1.5017,1.4869,1.4693,1.517,1.5312,1.54,1.5687,1.5785,1.5785,1.5785,1.5785,1.5785,1.5785,1.5939,1.5936,1.5538,1.601,1.619,1.5222,1.5297,1.5245,1.4628,1.4744,1.5015,1.5269,1.5312,1.5192,1.4875,1.4843,1.4722,1.4452,1.4373,1.4373,1.4373,1.4373,1.4297,1.4144,1.3849,1.3537,1.326,1.1862,1.0924,0.0,0.0,0.0,0.0,0.0,0.0,0.0,0.0,0.0,0.0,0.0,0.0,0.0,0.0,0.0,0.0,0.0,0.0,0.0,0.0,0.0,0.0,0.0,0.0,0.0,0.0,1.072,1.1231,1.197,1.2294,1.2001,1.2637,1.3017,1.2833,1.3466,1.3701,1.3271,1.3542,1.3491,1.3119,1.2834,1.2502,1.2159,1.1712,1.1487,1.1487,1.1487,1.1551,1.1662,1.1662,1.1733,1.1853,1.1853,1.1853,1.1911,1.2134,1.2537,1.2959,1.3085,1.3413,1.3844,1.3951,1.4377,1.5018,1.5185,1.5341,1.5506,1.562,1.5672,1.5672,1.5774,1.5785,1.5818,1.597,1.6014,1.6099,1.6273,1.6328,1.6328,1.6328,1.6328,1.6328,1.6328,1.6328,1.6328,1.6328,1.6525,1.6573,1.6018,1.6196,1.616,1.5449,1.5578,1.5785,1.5785,1.5785,1.5655,1.5389,1.5203,1.4974,1.4646,1.4471,1.4373,1.4373,1.4373,1.4373,1.4373,1.406,1.3822,1.3825,1.2544,1.1826,1.1689,0.0,0.0,0.0,0.0,0.0,0.0,0.0,0.0,0.0,0.0,0.0,0.0,0.0,0.0,0.0,0.0,0.0,0.0,0.0,0.0,0.0,0.0,0.0,1.0579,1.0766,1.1206,1.2145,1.2639,1.2789,1.2388,1.3233,1.3652,1.3331,1.3871,1.3905,1.3238,1.3641,1.3586,1.2969,1.2869,1.2636,1.2256,1.1809,1.1527,1.1519,1.1519,1.1702,1.2035,1.2035,1.2226,1.2621,1.2621,1.2621,1.2621,1.2621,1.2621,1.261,1.2981,1.3068,1.3123,1.3405,1.3838,1.432,1.4745,1.4903,1.5018,1.5331,1.5435,1.5487,1.5777,1.5829,1.5927,1.6415,1.6535,1.6656,1.7147,1.7278,1.7278,1.7278,1.7278,1.7278,1.7278,1.7278,1.7278,1.7278,1.6525,1.5829,1.5829,1.5829,1.5829,1.5829,1.5829,0.0,1.5829,1.5829,1.5829,1.5807,1.5432,1.5137,1.5105,1.4679,1.4441,1.4373,1.4373,1.4373,1.4373,1.4228,1.4024,1.3848,1.3248,1.2946,1.2933,0.0,0.0,0.0,0.0,0.0,0.0,0.0,0.0,0.0,0.0,0.0,0.0,0.0,0.0,0.0,0.0,0.0,0.0,0.0,0.0,0.0,0.0,1.1354,1.1203,1.1849,1.2489,1.2936,1.3239,1.3369,1.3244,1.351,1.3564,1.3263,1.3713,1.3831,1.3421,1.3834,1.3951,1.3765,1.3774,1.3504,1.3025,1.2847,1.2609,1.2326,1.2326,1.2321,1.2417,1.2417,1.2533,1.2621,1.2621,1.2621,1.2621,1.2621,1.2621,1.2605,1.2699,1.2966,1.3253,1.3312,1.4005,1.4992,1.5322,1.5614,1.5914,1.6026,1.6026,1.6081,1.6435,1.6545,1.6622,1.6983,1.7071,1.7092,1.7245,1.7278,1.7278,1.7278,1.7278,1.7278,1.7278,1.7278,1.7278,1.7278,1.706,1.6885,1.6885,1.6885,1.6885,1.6885,1.6885,0.0,1.6885,1.6885,1.6743,1.6372,1.6208,1.5847,1.517,1.4985,1.4755,0.0,1.4373,1.4373,1.4373,1.4597,1.4801,1.5037,1.4445,1.3991,0.0,0.0,0.0,0.0,0.0,0.0,0.0,0.0,0.0,0.0,0.0,0.0,0.0,0.0,0.0,0.0,0.0,0.0,0.0,0.0,0.0,0.0,1.1628,1.2279,1.219,1.2609,1.3019,1.3405,1.3549,1.3563,1.342,1.3603,1.3618,1.3362,1.3729,1.3935,1.3769,1.417,1.4412,1.4383,1.4392,1.4182,1.3863,1.3692,1.3459,1.3172,1.3172,1.3103,1.292,1.292,1.2797,0.0,1.2621,1.2621,1.2621,1.2621,1.2621,0.0,0.0,0.0,0.0,0.0,1.3863,1.4765,1.5099,1.5635,1.6224,1.6341,1.6542,1.6745,1.704,1.7227,1.7414,1.7647,1.7763,1.7868,1.7868,1.7868,1.7868,1.7868,1.7868,1.7813,1.7628,1.7584,1.7529,1.7322,0.0,0.0,1.7278,1.7278,1.7278,1.7278,1.7278,1.7278,1.7278,1.7278,1.7169,1.6874,1.6645,1.6295,1.5738,1.5334,0.0,0.0,0.0,1.4424,1.4474,1.4686,0.0,0.0,0.0,0.0,0.0,0.0,0.0,0.0,1.4951,1.5023,0.0,0.0,0.0,0.0,0.0,0.0,0.0,0.0,0.0,0.0,0.0,0.0,0.0,0.0,0.0,0.0,1.2396,1.3043,1.3276,1.3086,1.3124,1.3521,1.3566,1.3501,1.325,1.3671,1.384,1.3584,1.3975,1.4209,1.4209,0.0,0.0,0.0,0.0,1.4765,1.4715,1.43,1.407,1.401,1.401,1.3761,1.339,1.3329,1.3119,1.2739,1.2645,1.2645,1.2685,1.2685,1.2701,1.2733,1.2701,1.2709,1.2741,1.3149,1.3648,1.4082,1.4616,0.0,0.0,1.6457,1.6787,1.7169,1.7461,1.7843,1.8171,1.8171,1.8466,1.8687,1.8687,1.8687,1.8687,1.8687,1.8687,1.8578,1.8174,1.8043,1.7879,1.7442,1.7322,1.7278,1.7278,1.7278,1.7278,1.7278,1.7278,1.7278,1.7278,1.7278,1.7278,1.7278,0.0,0.0,1.6525,1.5749,1.5247,1.5192,1.4733,1.4574,1.4771,1.4744,1.5049,1.5834,1.6089,1.6563,1.7332,1.7565,1.8122,1.8876,1.6112,1.6063,0.0,0.0,0.0,0.0,0.0,0.0,0.0,0.0,0.0,0.0,0.0,0.0,0.0,0.0,0.0,1.2613,1.2967,1.3207,1.3205,1.3312,1.3343,1.3296,1.3402,1.348,1.3429,1.3821,1.4014,1.4014,1.4414,1.4658,1.4658,1.5059,0.0,1.5293,1.5255,1.5059,1.4715,1.4597,1.4359,1.401,0.0,0.0,1.3821,1.345,1.3375,1.3517,1.2865,1.2726,1.2989,1.2989,1.3147,1.3362,1.3092,1.3147,1.3451,1.3517,1.3843,1.4298,1.4886,1.5451,1.6024,1.6476,1.6723,1.6855,1.7169,1.7523,0.0,1.8099,1.8466,1.8687,1.8687,1.8687,1.8687,1.8687,1.8687,1.8665,1.8578,1.8272,1.7977,1.7879,1.7551,1.7278,1.7278,1.7278,1.7278,1.7278,1.7278,1.7278,1.7278,1.7278,1.7278,1.7278,1.7191,1.6961,1.6557,1.635,1.6088,1.5665,1.5236,1.5255,1.5846,1.5539,1.5755,1.6667,1.7114,1.7644,1.8179,1.8715,1.9273,1.9834,1.8763,1.877,0.0,0.0,0.0,0.0,0.0,0.0,0.0,0.0,0.0,0.0,0.0,1.2209,0.0,0.0,1.3173,1.3119,1.3038,1.2979,1.3006,1.2902,1.2959,1.3293,1.3606,1.3818,1.3818,1.4209,1.4463,1.4463,1.4853,1.5098,1.5098,1.5293,1.541,1.541,1.5625,1.5613,1.5384,1.5594,1.5586,1.534,1.534,1.5207,1.5013,1.4755,1.4612,1.4542,1.4107,1.4069,1.4182,1.4182,1.4393,1.4698,1.4529,1.4123,1.3584,1.3584,1.3916,1.4387,1.4985,1.5631,1.6318,1.6857,1.7197,1.7439,1.7765,1.8134,1.8446,1.8786,1.9167,1.9419,1.9419,1.9419,1.9419,1.9419,1.9419,1.9353,1.9102,1.8873,1.8643,1.8392,1.8152,1.7988,1.7988,1.7988,1.7824,1.7355,1.7278,1.7278,1.7278,1.7278,1.7278,1.7278,1.7278,1.7169,1.6918,1.6667,1.6317,1.5807,1.5607,1.5813,1.6584,1.6385,1.6664,1.7543,1.7822,1.8177,1.8645,1.8961,1.9525,2.0319,2.0306,2.0318,0.0,0.0,0.0,0.0,0.0,0.0,0.0,0.0,1.1809,1.2345,1.3015,1.3593,1.3736,1.3731,1.3594,1.3212,1.2837,1.262,1.2687,1.2555,1.2707,1.3394,1.3786,1.4042,1.4204,1.4547,1.479,1.4912,1.5215,1.541,1.541,1.541,1.5449,1.5537,1.5879,1.6164,1.6191,1.6553,1.6665,1.6665,1.6665,1.6529,1.6128,1.6055,1.5845,1.5539,1.5408,1.5408,1.5408,1.5408,1.5575,1.5931,1.5931,1.5188,1.412,1.3985,1.4195,1.4605,1.5204,1.5939,1.674,1.7292,1.7734,1.8076,1.8414,1.8808,1.9142,1.9473,1.9813,2.0085,2.0085,2.0085,2.0085,2.0085,2.0085,1.9976,1.9648,1.9484,1.9299,1.8905,1.8753,1.8687,1.8687,1.8687,1.8425,1.7671,1.7551,1.7518,1.7431,1.742,1.7387,1.7289,1.7278,1.7278,1.7278,1.6907,1.6503,1.6142,1.597,1.6316,1.7111,1.7116,1.746,1.8239,1.8447,1.8721,1.9173,1.9396,1.9926,2.0847,2.1491,2.1478,0.8668,0.9035,0.0,1.0324,1.0664,1.1248,0.0,0.0,1.3104,1.3863,1.4401,1.4547,1.4036,1.3926,1.359,1.283,1.2657,1.2547,1.2307,1.2866,1.3309,1.3423,1.3459,1.3818,1.4651,1.4697,1.4876,1.5284,1.5381,1.541,1.541,1.541,1.5586,1.6037,1.6096,1.625,1.665,1.6709,1.6665,1.6665,1.6665,1.6665,1.6602,1.6192,1.6132,1.6344,1.5954,1.5762,1.5762,1.5762,1.5907,1.6244,1.6244,1.6148,1.5965,1.5432,1.53,1.5441,1.5983,1.6564,1.7239,1.7726,1.7969,1.8076,1.8414,1.8808,1.9142,1.9473,1.9813,2.0085,2.0085,2.0085,2.0085,2.0085,2.0085,2.0074,2.0009,1.9725,1.9397,1.9342,1.8993,1.8687,1.8687,1.8687,1.8654,1.8545,1.8534,1.8381,1.7977,1.7923,1.7759,1.7322,1.7278,1.7278,1.7278,1.7224,1.7169,1.7125,1.6688,1.6796,1.7564,1.7431,1.7713,1.8554,1.9279,1.9764,2.0074,2.1063,2.1746,2.2115,2.2701,2.2671,1.0442,0.0,0.0,0.0,1.2121,1.2758,1.3324,1.3835,1.4247,1.4399,1.4654,1.4675,1.3933,1.3434,1.3027,0.0,1.2277,1.2139,1.2368,1.2529,1.2672,1.3038,1.2991,1.3407,1.4628,1.473,1.4883,1.5352,1.541,1.541,1.541,1.5654,1.5879,1.6115,1.6562,1.6924,1.7109,1.7353,1.748,1.748,1.748,1.748,1.7471,1.7263,1.7226,1.7389,1.7196,1.7051,1.7051,1.7051,1.7154,1.7295,1.7295,1.7088,1.6733,1.6175,1.5974,1.6044,1.6594,1.7019,1.7304,1.7803,1.8144,1.8347,1.8741,1.9075,1.9473,1.9813,2.0009,2.0085,2.0085,2.0085,2.0085,2.0085,2.0085,2.0085,2.0085,1.9922,1.9781,1.9781,1.9681,1.9539,1.9539,1.9539,1.9539,1.9539,1.9058,1.8622,1.8425,1.8403,1.8327,1.8119,1.8097,1.8097,1.8097,1.8097,1.8097,1.8097,1.7901,1.8092,1.8827,1.8761,1.9214,2.0252,2.0636,2.1075,2.1736,2.2178,2.2575,2.2861,2.3419,2.3607,1.1469,0.0,0.0,1.2417,1.3236,1.3918,1.3544,1.4193,1.474,1.4281,1.4305,1.4143,1.3321,1.2657,0.0,1.233,1.191,1.1771,1.2332,1.2188,1.2137,1.2505,1.2408,1.2778,1.4069,1.4287,1.4588,1.5177,1.5235,1.5352,1.5586,1.5889,1.6233,1.6478,1.7051,1.7441,1.7549,1.7852,1.8008,1.8008,1.8008,1.8008,1.8008,1.8008,1.8008,1.8008,1.8008,1.8008,1.8008,1.8008,1.8008,1.8008,1.8008,1.7725,1.7373,1.6941,1.6664,1.6594,1.7028,1.7304,1.7451,1.7872,1.8212,1.8549,1.9008,1.9341,1.9681,2.002,2.0085,2.0085,2.0085,2.0085,2.0085,2.0085,2.0205,2.0335,2.0335,2.0335,2.0335,2.0335,2.0205,2.0085,2.0085,2.0085,2.0085,2.0085,1.9539,1.9037,1.8905,1.8774,1.8687,1.8687,1.8687,1.8687,1.8687,1.8819,1.8939,1.8939,1.9048,1.94,2.0096,2.0238,2.0774,2.1865,2.1917,2.2299,2.2897,2.3111,2.3245,2.3446,2.4096,2.4367,0.0,0.0,1.2708,1.2912,1.3772,1.4507,1.4164,1.4295,1.4294,1.3579,1.3246,1.2861,1.2159,1.1683,1.148,1.1623,1.154,1.1598,1.1964,1.2019,1.2019,1.2019,1.1725,1.189,0.0,1.3126,1.3752,1.4647,1.4715,1.5122,1.6016,1.6115,1.6455,1.7314,1.7373,1.7578,1.7988,1.8008,1.8008,1.8008,1.8008,1.8008,1.8008,1.8008,1.8008,1.8008,1.8008,1.8008,1.8008,1.8008,1.8008,1.8008,1.8008,1.8008,1.794,1.794,1.7588,1.7166,1.7166,1.752,1.8008,1.8008,1.8212,1.8549,1.9008,1.9341,1.9681,2.002,2.0085,2.0085,2.0085,2.0085,2.0085,2.0085,2.0518,2.0903,2.0903,2.0903,2.0903,2.0903,2.0464,2.0085,2.0085,2.0085,2.0085,2.0085,2.0053,1.9868,1.9462,1.8982,1.8687,1.8687,1.8687,1.8687,1.8687,1.9179,1.9499,1.9499,1.9878,2.0493,2.1207,2.1516,2.2011,2.2751,2.3043,2.3162,2.3189,2.3757,2.4041,2.4109,2.4706,2.4978,0.0,0.0,1.3375,1.3459,1.385,1.4122,1.3697,1.358,1.3304,1.2609,1.2414,1.2169,1.1501,1.1309,1.1259,1.1499,1.1527,1.1702,1.2297,1.2385,1.2289,1.2043,1.2123,0.0,0.0,0.0,0.0,1.4163,1.4786,1.5303,1.5628,1.6495,1.707,1.7373,1.7656,1.7871,1.8008,1.8008,1.8008,1.8008,1.8008,1.8008,1.8008,1.8008,1.8008,1.8008,1.8008,1.8008,1.8008,1.8008,1.8008,1.8008,1.8008,1.8008,1.8008,1.8008,1.7872,1.7725,1.7725,1.7872,1.8008,1.8008,1.8212,1.8549,1.9008,1.9341,1.9681,2.002,2.0085,2.0085,2.0085,2.0335,2.0646,2.0646,2.1008,2.1376,2.1376,2.1376,2.1376,2.1376,2.1187,2.1123,2.1123,2.0828,2.0518,2.014,2.0085,2.002,1.9857,1.9757,1.9659,1.9659,1.9965,2.0142,2.0142,2.063,2.0877,2.0877,2.1233,2.1607,2.1995,2.2324,2.2841,2.3649,2.3771,2.4015,2.4408,2.4611,2.4706,2.472,2.5317,2.5602,0.0,1.3162,1.3595,1.3768,1.3693,1.3563,1.3314,1.2967,1.2472,1.1873,1.1733,1.1493,1.0964,1.0871,1.0998,1.1432,1.1487,1.1741,1.2525,1.2448,1.2282,1.2043,1.2115,0.0,0.0,0.0,0.0,1.3674,1.461,1.5272,1.5598,1.6725,1.7451,1.7598,1.7871,1.8008,1.8008,1.8008,1.8008,1.8008,1.8008,1.8008,1.8008,1.8008,1.8008,1.8008,1.8144,1.8212,1.8212,1.8337,1.8405,1.8405,1.8405,1.8279,1.8212,1.8212,1.8076,1.8008,1.8008,1.8008,1.8008,1.8144,1.8414,1.8808,1.9142,1.9539,1.9813,2.002,2.0085,2.0151,2.0335,2.0646,2.0955,2.1135,2.1514,2.1889,2.1889,2.1889,2.1889,2.1889,2.1753,2.1616,2.1616,2.1376,2.1008,2.07,2.0635,2.0518,2.014,2.027,2.0399,2.0399,2.0828,2.1135,2.1135,2.1577,2.1889,2.1889,2.2372,2.2758,2.2981,2.3314,2.3781,2.4435,2.4435,2.4625,2.5005,2.5222,2.5317,2.5344,2.5941,2.6226,1.3336,1.3474,1.3401,1.3856,1.342,1.2967,1.2909,1.2414,1.1814,1.1425,1.1183,1.0939,0.0,0.0,1.0661,1.1352,1.1479,1.1741,1.2525,1.2266,1.2043,0.0,0.0,0.0,0.0,0.0,0.0,1.3268,0.0,1.5016,1.5908,1.6889,1.7598,1.7998,1.8008,1.8008,1.8008,1.8008,1.8008,1.8008,1.8008,1.8008,1.8008,1.8008,1.8008,1.8008,1.8414,1.8549,1.8549,1.8942,1.9075,1.9075,1.9075,1.8875,1.8549,1.8482,1.8279,1.8008,1.8008,1.8008,1.8076,1.8347,1.8741,1.9131,1.9473,1.9813,2.0074,2.0085,2.0151,2.027,2.0775,2.0967,2.1083,2.1565,2.2025,2.242,2.242,2.242,2.242,2.242,2.2013,2.1678,2.1616,2.1616,2.1616,2.1616,2.1616,2.125,2.0335,2.0646,2.0967,2.0967,2.1376,2.1616,2.1616,2.2149,2.242,2.2482,2.3198,2.3793,2.4131,2.4408,2.4694,2.5005,2.5032,2.5059,2.5059,2.5643,2.5941,2.5955,2.6579,2.685,1.3236,1.3232,1.3125,1.3236,1.2764,1.2169,1.1891,1.1551,1.1123,1.0409,1.0254,1.0075,0.0,0.0,0.0,1.101,1.1328,0.0,1.2525,1.248,0.0,0.0,0.0,1.2321,1.2417,1.2425,0.0,0.0,1.46,1.5249,1.5486,1.6968,1.79,1.8008,1.8008,1.8008,1.8008,1.8008,1.8008,1.8008,1.8008,1.8008,1.8008,1.8279,1.8347,1.8414,1.8808,1.8942,1.8942,1.9075,1.9075,1.9075,1.9075,1.9075,1.8942,1.8617,1.8482,1.8347,1.8076,1.8008,1.8008,1.8076,1.8347,1.8741,1.9142,1.9473,1.9813,2.0009,2.0399,2.0711,2.0839,2.1474,2.2037,2.2161,2.2592,2.2896,2.2896,2.2896,2.2896,2.2896,2.2823,2.2641,2.2285,2.2223,2.2087,2.1678,2.1616,2.1491,2.125,2.1313,2.1439,2.1439,2.1901,2.2223,2.2223,2.2641,2.3017,2.3271,2.3721,2.4131,2.4408,2.4694,2.4878,2.5005,2.5439,2.567,2.567,2.6294,2.6592,2.6606,2.7203,2.7244,1.2761,1.2732,1.256,1.256,1.208,1.1499,1.1094,1.0764,1.0417,0.9811,0.9692,0.0,0.0,0.0,0.0,0.0,0.0,0.0,1.2481,1.2578,1.2621,0.0,1.2621,0.0,1.2621,1.2621,1.2943,0.0,1.4749,1.5503,1.5862,1.7226,1.8008,1.8008,1.8008,1.8008,1.8008,1.8008,1.8008,1.8008,1.8008,1.8076,1.8212,1.8414,1.8617,1.8808,0.0,1.9341,1.9341,1.9473,1.9539,1.9539,1.9539,1.9473,1.9274,1.9075,1.8875,1.8741,1.8798,1.8664,1.8472,1.8472,1.8674,1.9075,1.9407,1.9868,2.0194,2.0399,2.0828,2.1262,2.1474,2.1975,2.2482,2.2653,2.2896,2.3078,2.3078,2.3078,2.3078,2.3078,2.3078,2.3017,2.2775,2.2714,2.2592,2.231,2.2249,2.2249,2.2249,2.2075,2.1951,2.1951,2.2396,2.2714,2.2714,2.3078,2.3378,2.3569,2.4015,2.435,2.4509,2.5077,2.5385,2.5385,2.5995,2.6294,2.6307,2.6918,2.7203,2.7216,2.7556,2.7528,1.2164,1.212,1.1873,1.1873,1.1451,1.0923,1.0538,1.0156,0.9811,0.9414,0.0,0.0,0.9316,0.0,1.0165,1.0939,0.0,1.1728,1.2481,1.265,1.2634,1.2674,1.2744,1.2805,1.2805,1.2805,1.3145,1.4101,1.4959,1.5724,1.6571,1.7485,1.8008,1.8008,1.8008,1.8008,1.8008,1.8008,1.8008,1.8008,1.8008,1.8212,1.8482,1.8549,1.8808,1.9208,0.0,0.0,1.9681,2.0009,2.0085,2.0085,2.0085,1.9944,1.9671,1.9605,1.9407,1.9198,1.9584,1.9518,1.9264,1.9198,1.9396,1.9736,1.9944,2.0453,2.0955,2.0892,2.1262,2.1815,2.2285,2.2482,2.2604,2.3017,2.3078,2.3078,2.3078,2.3078,2.3078,2.3078,2.3128,2.3251,2.3251,2.3251,2.3251,2.3251,2.3251,2.3251,2.3299,2.2886,2.2591,2.2591,2.3009,2.3351,2.3412,2.3666,2.3846,2.3966,2.4471,2.4749,2.4807,2.5608,2.6009,2.6009,2.6619,2.6945,2.6945,2.7447,2.7705,2.7705,2.7686,2.7645,1.2043,1.1692,1.1267,1.1267,1.0913,1.0527,1.0099,0.9971,0.0,0.0,0.0,0.9315,0.8981,0.9462,0.0,1.088,0.0,0.0,0.0,0.0,1.289,0.0,0.0,0.0,0.0,0.0,0.0,0.0,0.0,1.6104,1.6571,1.7485,1.8008,1.8008,1.8008,1.8008,1.8008,1.8008,1.8008,1.8008,1.8008,1.8212,1.8482,1.8808,1.9208,1.9539,1.9878,0.0,2.0009,2.0074,2.0085,2.0085,2.0085,2.0074,2.0009,1.9681,1.9539,1.9473,1.9274,1.9649,2.0107,1.9781,1.9977,2.0172,1.9802,2.056,2.1376,2.1019,2.1526,2.2285,2.2359,2.2714,2.3017,2.3078,2.3078,2.3078,2.3078,2.3078,2.3078,2.3078,2.3527,2.3853,2.3853,2.3853,2.3853,2.3853,2.3853,2.3965,2.4185,2.3965,2.3729,2.3729,2.4192,2.4646,2.4874,2.4949,2.5249,2.5818,2.5927,2.6123,2.6377,2.6546,2.666,2.666,2.7257,2.7556,2.7556,2.7664,2.7705,2.7691,2.7542,2.7474,1.1191,1.1006,1.0769,1.0769,1.0624,1.0327,0.9771,0.0,0.0,0.0,0.0,0.9064,0.9082,0.0,0.0,0.0,0.0,0.0,0.0,0.0,0.0,0.0,0.0,0.0,0.0,0.0,0.0,0.0,0.0,1.6402,1.7302,1.7755,1.8008,1.8008,1.8008,1.8008,1.8008,1.8008,1.8008,1.8008,1.8008,1.8279,1.8808,1.9008,1.9407,1.9878,2.0009,0.0,2.0085,2.0085,2.0085,2.0085,2.0085,2.0085,2.0074,2.0259,2.0129,1.9933,2.056,2.0752,2.0688,2.1071,2.1123,2.0996,2.0741,2.125,2.1963,2.1714,2.2211,2.2775,2.2775,2.2957,2.3078,2.3078,2.3364,2.3665,2.3891,2.4017,2.4017,2.4017,2.4243,2.4431,2.4431,2.4545,2.4659,2.4659,2.5071,2.5428,2.5598,2.569,2.5582,2.5073,2.5216,2.5447,2.5623,2.5735,2.5985,2.6294,2.643,2.6627,2.6762,2.7121,2.7394,2.7624,2.768,2.794,2.8419,2.7626,2.7639,2.8405,2.7778,2.7952,1.0411,1.0522,1.0522,1.0624,1.0573,1.033,0.9557,0.9444,0.0,0.0,0.0,0.0,0.9478,0.0,0.0,0.0,0.0,0.0,0.0,0.0,0.0,0.0,0.0,0.0,0.0,0.0,0.0,0.0,0.0,0.0,1.7969,1.8008,1.8008,1.8008,1.8008,1.8008,1.8008,1.8008,1.8008,1.8008,1.8008,1.8405,1.9075,1.9075,1.9539,2.027,2.027,0.0,0.0,2.0335,2.027,2.027,2.0151,2.0085,2.014,2.0711,2.0711,2.0582,2.1901,2.1963,2.1577,2.2334,2.2199,2.1753,2.1616,2.2013,2.2543,2.242,2.2714,2.3078,2.3078,2.3078,2.3103,2.3288,2.3815,2.4343,2.472,2.482,2.482,2.482,2.4908,2.4983,2.5061,2.5307,2.555,2.5614,2.6268,2.6796,2.6871,2.7434,2.7575,2.6894,2.6493,2.6254,2.638,2.6555,2.6743,2.6916,2.7176,2.7373,2.7495,2.7824,2.8174,2.8512,2.8049,2.8232,2.9066,2.7746,2.7774,2.9111,2.8377,2.8864,1.0506,1.0565,1.0573,1.0972,1.0769,1.033,0.9557,0.0,0.0,0.0,0.9616,1.004,1.0264,0.0,0.0,0.0,0.0,0.0,0.0,0.0,0.0,0.0,0.0,0.0,0.0,0.0,0.0,0.0,0.0,0.0,1.8008,1.8008,1.8008,1.8008,1.8008,1.8008,1.8008,1.8008,1.8008,1.8008,1.8008,1.8405,1.9075,1.9075,1.9726,2.0839,2.0839,0.0,0.0,2.1019,2.0839,2.0775,2.027,2.0085,2.014,2.0711,2.1083,2.1388,2.1928,2.2531,2.3062,2.3195,2.2798,2.2223,2.1753,2.2249,2.2957,2.2543,2.2714,2.3078,2.3078,2.3078,2.3263,2.3791,2.4583,2.5116,2.4872,2.482,2.482,2.482,2.5197,2.5668,2.6036,2.6101,2.6219,2.6531,2.699,2.748,2.7804,2.8685,2.942,2.97,2.8319,2.7512,2.7854,2.7919,2.8231,2.9018,2.908,2.9268,2.9775,2.9291,2.9007,2.9007,2.8393,2.8393,2.9066,2.8395,2.8467,2.9199,2.9537,3.0104,1.034,1.0565,1.0624,1.1023,1.082,1.033,0.9557,0.0,0.0,0.9366,0.9725,1.0235,1.0677,1.0974,0.0,0.0,0.0,0.0,0.0,0.0,0.0,0.0,0.0,0.0,0.0,0.0,0.0,0.0,0.0,0.0,1.8008,1.8008,1.8008,1.8008,1.8008,1.8008,1.8008,1.8008,1.8008,1.8008,1.8008,1.8405,1.9075,1.9075,1.9594,2.0399,2.0399,0.0,0.0,2.0955,2.1198,2.1565,2.1187,2.125,2.1616,2.2002,2.2125,2.2237,2.3027,2.3314,2.3374,2.3695,2.3649,2.3365,2.2932,2.2932,2.3078,2.2896,2.3078,2.3378,2.3378,2.4025,2.4833,2.535,2.6286,2.693,2.6596,2.6752,2.6765,2.6253,2.6432,2.6906,2.7367,2.7628,2.7937,2.8293,2.8968,2.9519,2.9654,3.005,3.0329,3.0478,2.9359,2.8803,2.9261,2.9008,2.9135,2.9747,2.9393,2.9256,2.9511,2.8838,2.8626,2.89,2.8441,2.8555,2.9383,2.8612,2.9074,3.0602,3.0529,3.1412,1.0342,1.0629,1.0769,1.1065,1.0788,1.0302,0.0,0.0,0.9909,0.9623,1.003,1.0601,1.1169,1.1468,1.1881,0.0,0.0,0.0,0.0,0.0,0.0,0.0,0.0,0.0,0.0,0.0,0.0,0.0,0.0,0.0,0.0,1.8008,1.8008,1.8008,1.8008,1.8008,1.8008,1.8076,1.8144,1.8144,1.8279,1.8741,1.9452,1.9452,1.9987,2.0775,0.0,0.0,0.0,2.14,2.1714,2.2187,2.1865,2.2051,2.247,2.2907,2.2967,2.3088,2.393,2.4047,2.3859,2.4234,2.4305,2.4176,2.3956,2.3556,2.3258,2.3258,2.3624,2.4051,2.4216,2.5276,2.6484,2.6891,2.7803,2.8429,2.7971,2.8078,2.8091,2.731,2.7443,2.7908,2.8352,2.8789,2.9156,2.958,3.0329,3.0777,3.0777,3.072,3.0734,3.0734,2.9935,2.9525,2.9783,2.9308,2.9195,2.9676,2.9274,2.9088,2.9262,2.8785,2.8708,2.9042,2.8764,2.9137,3.0163,2.9574,3.0235,3.2123,3.199,3.3047,1.0449,1.0878,1.1124,1.1158,1.078,1.0235,0.0,0.9917,1.0247,1.0126,1.0715,1.1431,1.1836,1.2174,1.2542,0.0,0.0,0.0,0.0,0.0,0.0,0.0,0.0,0.0,0.0,0.0,0.0,0.0,0.0,0.0,0.0,1.8008,1.8008,1.8008,1.8008,1.8008,1.8008,1.8347,1.8482,1.8482,1.8875,1.9518,2.0366,2.0366,2.1135,0.0,0.0,0.0,0.0,2.2604,2.242,2.2359,2.2187,2.2101,2.2224,2.3015,2.3492,2.3859,2.4337,2.4694,2.5005,2.5005,2.4765,2.4509,2.4509,2.4073,2.3556,2.3556,2.4279,2.5069,2.5553,2.6849,2.7996,2.8152,2.8856,2.9254,2.8468,2.8287,2.8157,2.759,2.7908,2.8417,2.8739,2.9205,2.9642,3.0054,3.0478,3.0777,3.0777,3.0626,3.0507,3.0507,3.0056,2.9595,2.914,2.8525,2.8326,2.8764,2.882,2.9057,2.9594,2.9579,2.9579,2.9579,2.9579,3.0223,3.1452,3.1452,3.2183,3.3499,3.4143,3.4991,0.9716,1.0288,1.0632,1.0759,1.0578,1.0323,1.0057,1.0095,1.0225,1.018,1.0848,1.1561,1.1971,1.2737,1.3598,1.4499,0.0,0.0,0.0,0.0,0.0,0.0,0.0,0.0,0.0,0.0,0.0,0.0,0.0,0.0,0.0,1.7268,1.7275,1.7568,1.7861,1.7996,1.7945,1.8322,1.8808,1.9386,1.9518,2.0031,2.0869,2.0869,0.0,0.0,0.0,0.0,0.0,2.2482,2.2884,2.3531,2.3233,2.3518,2.4105,2.4092,2.4337,2.4637,2.4765,2.4878,2.5005,2.5005,2.4948,2.4821,2.458,2.4234,2.4047,2.4662,2.5018,2.5555,2.6658,2.7851,2.8933,2.9274,3.0119,3.0524,2.9393,2.9345,2.9184,2.8131,2.8495,2.9107,2.9623,3.0101,3.0379,3.0352,3.0522,3.0431,3.0015,3.0246,3.0507,3.0507,3.0395,3.0048,2.9466,2.9345,2.9287,2.9362,2.9347,2.9401,2.9579,2.9579,2.9579,2.9579,3.0462,3.112,3.1482,3.2437,3.3442,3.456,3.5226,3.5965,0.0,1.0146,1.0522,1.079,1.0794,1.0661,1.045,1.0619,1.0777,1.0654,1.1211,1.1801,1.207,1.2964,1.3866,1.4667,0.0,0.0,0.0,0.0,0.0,0.0,0.0,0.0,0.0,0.0,0.0,0.0,0.0,0.0,0.0,1.6918,1.703,1.7319,1.7566,1.7734,1.792,1.8596,1.9283,2.0042,2.0344,2.0869,2.1577,2.1577,0.0,0.0,0.0,0.0,0.0,2.3017,2.3484,2.4073,2.3956,2.4305,2.4821,2.4694,2.4821,2.5005,2.5005,2.5005,2.5005,2.5005,2.5005,2.4948,2.4765,2.4465,2.4411,2.5156,2.5773,2.6512,2.7785,2.8952,2.9899,3.0366,3.0981,3.1219,3.0208,3.0162,3.0054,2.9071,2.9373,2.9907,2.9981,3.0353,3.0554,3.0197,3.0163,3.0013,2.9624,2.9924,3.0163,3.0163,3.0357,3.0253,2.9639,2.9648,2.9707,2.9609,2.9579,2.9579,2.9579,3.0058,3.0313,3.0313,3.1599,3.2392,3.2647,3.3724,3.4583,3.5193,3.5728,3.6226,0.0,1.0331,1.0654,1.1022,1.1183,1.1199,1.0941,1.1354,0.0,1.1509,1.1791,1.2124,1.2374,1.3061,1.369,0.0,0.0,0.0,0.0,0.0,0.0,0.0,0.0,0.0,0.0,0.0,0.0,0.0,0.0,0.0,0.0,1.6944,1.7114,1.721,1.7216,1.7458,1.7948,1.9102,1.9931,2.0504,2.129,2.1939,2.2482,2.2531,0.0,0.0,0.0,0.0,0.0,2.3956,2.4131,2.4118,2.4408,2.4509,2.458,2.4878,2.5005,2.5005,2.5005,2.5005,2.5061,2.5061,2.5061,2.5061,2.5061,2.4821,2.47,2.5387,2.6499,2.7757,2.9026,3.0044,3.0896,3.1409,3.1482,3.1351,3.0896,3.0777,3.0658,3.019,3.045,3.0514,2.9929,3.0182,3.0223,2.9609,2.9505,2.9505,2.9505,2.9549,2.9594,2.9639,3.0208,3.0357,2.9834,2.9699,2.9624,2.9579,2.9669,2.9729,2.9729,3.0971,3.1616,3.1616,3.2916,3.3888,3.4547,3.519,3.5504,3.5569,3.5861,3.6037,0.9833,0.0,1.004,1.0376,1.065,1.0981,0.0,1.1655,0.0,0.0,0.0,0.0,0.0,0.0,0.0,0.0,0.0,0.0,0.0,0.0,0.0,0.0,0.0,0.0,0.0,0.0,0.0,0.0,0.0,0.0,0.0,1.643,1.6485,1.7002,1.7052,1.7561,1.8566,1.9625,2.0557,2.1318,2.2177,2.2871,2.333,2.3603,0.0,0.0,0.0,0.0,2.4015,2.4073,2.4234,2.4408,2.4452,2.4637,2.4878,2.4948,2.5005,2.5005,2.5005,2.523,2.5619,2.5865,2.577,2.5564,2.5564,2.5216,2.5151,2.6607,2.7242,2.7973,2.9912,3.0601,3.0896,3.1409,3.1482,3.1351,3.0896,3.0777,3.0658,3.019,3.0087,2.9987,2.9841,2.9826,2.9579,2.8921,2.8831,2.8831,2.8831,2.9265,2.9759,3.0238,3.0881,3.1435,3.1794,3.0881,3.0088,2.9609,3.0522,3.1076,3.1076,3.2347,3.3036,3.3036,3.3829,3.4577,3.5265,3.5429,3.5748,3.6241,3.6367,3.6677,0.9918,1.0458,1.09,1.1437,1.1929,1.2354,1.2738,0.0,0.0,0.0,0.0,0.0,0.0,0.0,0.0,0.0,0.0,0.0,0.0,0.0,0.0,0.0,0.0,0.0,0.0,0.0,0.0,0.0,0.0,0.0,0.0,1.6775,1.6922,1.7754,1.7929,1.829,1.8794,1.9692,2.051,2.1183,2.2048,2.2546,2.286,2.3119,2.3433,0.0,0.0,0.0,2.4292,2.4478,2.4593,2.4765,2.4978,2.516,2.5328,2.555,2.5495,2.5342,2.5536,2.5756,2.6028,2.6375,2.6229,2.5934,2.5784,2.566,2.58,2.6872,2.7499,2.825,3.0026,3.0792,3.1219,3.1409,3.1482,3.1409,3.1161,3.0909,3.0572,3.0338,2.9941,2.9596,2.9286,2.9193,2.9011,2.8652,2.8607,2.8712,2.9011,2.9894,3.0612,3.0941,3.1854,3.2572,3.2931,3.2287,3.1734,3.139,3.2048,3.2437,3.2437,3.341,3.4098,3.4412,3.4771,3.513,3.5504,3.5683,3.5925,3.6304,3.6554,3.6938,1.0323,1.1494,1.2591,1.2997,1.3687,1.4227,0.0,0.0,0.0,0.0,0.0,0.0,0.0,0.0,0.0,0.0,0.0,0.0,0.0,0.0,0.0,0.0,0.0,0.0,0.0,0.0,0.0,0.0,0.0,0.0,0.0,1.749,1.7809,1.878,1.9004,1.906,1.896,1.972,2.033,2.0726,2.1554,2.2005,2.2005,2.232,2.2745,0.0,0.0,0.0,2.4446,2.4799,2.5036,2.5174,2.5605,2.577,2.5825,2.619,2.6082,2.5825,2.6283,2.6481,2.6534,2.6849,2.6745,2.6428,2.6082,2.619,2.6486,2.6872,2.7689,2.8642,2.9865,3.0837,3.1582,3.1539,3.1539,3.1495,3.1405,3.0911,3.0477,3.0372,2.9864,2.928,2.8831,2.8667,2.8637,2.8742,2.8742,2.9026,2.9789,3.0851,3.1556,3.175,3.2826,3.3529,3.3634,3.3649,3.3694,3.3799,3.3709,3.3694,3.3799,3.4337,3.4906,3.5489,3.5504,3.5504,3.5504,3.5861,3.6037,3.61,3.6693,3.7015,1.194,1.3763,1.4857,1.3047,1.3873,1.5054,0.0,0.0,0.0,0.0,0.0,0.0,0.0,0.0,0.0,0.0,0.0,0.0,0.0,0.0,0.0,0.0,0.0,0.0,0.0,0.0,0.0,0.0,0.0,0.0,0.0,1.7556,1.7929,1.9069,1.8886,1.9081,1.9664,2.0254,2.0648,2.0682,2.1802,2.2307,2.2361,2.2858,2.3124,0.0,0.0,2.3595,2.4204,2.464,2.5146,2.5605,2.6028,2.619,2.6244,2.6297,2.6244,2.6283,2.6938,2.7297,2.755,2.8008,2.783,2.7434,2.7129,2.7027,2.7097,2.7769,2.8354,2.9037,3.0167,3.1204,3.1883,3.1597,3.1712,3.166,3.0848,3.0582,3.0357,2.9819,2.9205,2.8891,2.9355,2.8966,2.8786,2.934,2.943,2.9864,3.1076,3.1347,3.1958,3.308,3.338,3.3724,3.4277,3.4322,3.4577,3.516,3.4651,3.4592,3.5175,3.5295,3.54,3.5504,3.5504,3.5504,3.5504,3.5861,3.6163,3.6429,3.6816,3.7121,1.1944,1.3685,1.503,1.4524,1.5512,1.6694,0.0,0.0,0.0,0.0,0.0,0.0,0.0,0.0,0.0,0.0,0.0,0.0,0.0,0.0,0.0,0.0,0.0,0.0,0.0,0.0,0.0,0.0,0.0,0.0,0.0,0.0,1.8845,1.9396,1.9631,1.9876,2.0258,2.0719,2.081,2.0422,2.1251,2.164,2.164,2.2049,2.2427,2.2726,0.0,2.3553,2.4187,2.5095,2.5601,2.594,2.674,2.7041,2.7041,2.7041,2.7056,2.7071,2.7565,2.778,2.7959,2.8414,2.8365,2.7993,2.765,2.7665,2.7891,2.8394,2.8897,2.955,3.0634,3.1539,3.2191,3.2023,3.1981,3.1743,3.0951,3.0363,2.9819,2.9175,2.8801,2.8697,2.9011,2.9086,2.934,2.9983,3.0088,3.0552,3.1898,3.2377,3.3021,3.418,3.465,3.4997,3.5299,3.5455,3.5528,3.5474,3.5205,3.5175,3.5489,3.5683,3.5797,3.5797,3.594,3.6067,3.6067,3.6367,3.6708,3.7103,3.7225,3.7464,1.2268,1.3588,1.4925,0.0,0.0,0.0,0.0,0.0,0.0,0.0,0.0,0.0,0.0,0.0,0.0,0.0,0.0,0.0,0.0,0.0,0.0,0.0,0.0,0.0,0.0,0.0,0.0,0.0,0.0,0.0,0.0,0.0,1.9656,1.972,2.0308,2.066,2.0759,2.1091,2.0993,2.0422,2.1068,2.1313,2.1264,2.1602,2.1994,2.2484,2.2941,2.3473,2.4197,2.5423,2.6022,2.6278,2.7444,2.7864,2.7864,2.7864,2.7879,2.791,2.814,2.8253,2.8332,2.87,2.8716,2.8477,2.8061,2.8238,2.8662,2.9048,2.9574,3.0228,3.1039,3.187,3.2523,3.2398,3.218,3.1738,3.0958,3.0075,2.9267,2.8487,2.8487,2.8652,2.8801,2.937,3.0068,3.0769,3.0979,3.1562,3.275,3.3548,3.4348,3.5262,3.5905,3.6274,3.6274,3.6569,3.6523,3.591,3.5846,3.5797,3.5619,3.5925,3.6085,3.6133,3.6352,3.66,3.6815,3.7029,3.7358,3.7764,3.777,3.7976,1.4125,1.4814,1.5458,1.7083,0.0,0.0,0.0,0.0,0.0,0.0,0.0,0.0,0.0,0.0,0.0,0.0,0.0,0.0,0.0,0.0,0.0,0.0,0.0,0.0,0.0,0.0,0.0,0.0,0.0,0.0,0.0,0.0,0.0,2.0131,2.0472,2.0795,2.1126,2.1444,2.1396,2.1126,2.1988,2.2282,2.2035,2.2558,2.2828,2.2872,2.2917,2.3356,2.42,2.536,2.6146,2.6763,2.7911,2.8348,2.8348,2.8348,2.8477,2.8637,2.8637,2.8842,2.9045,2.9075,2.9075,2.8982,2.8732,2.8842,2.9218,3.0037,3.0643,3.1115,3.1312,3.2114,3.2773,3.2453,3.2083,3.1486,3.0334,2.9522,2.8767,2.7835,2.8158,2.8801,2.94,3.0028,3.0784,3.1758,3.2421,3.3175,3.4127,3.4908,3.56,3.6353,3.6768,3.7011,3.7011,3.7413,3.7472,3.7011,3.7011,3.6662,3.5973,3.6304,3.6507,3.6554,3.6507,3.6876,3.7706,3.7605,3.7764,3.8278,3.8551,3.875,1.3528,1.4175,1.4899,0.0,0.0,0.0,0.0,0.0,0.0,0.0,0.0,0.0,0.0,0.0,0.0,0.0,0.0,0.0,0.0,0.0,0.0,0.0,0.0,0.0,0.0,0.0,0.0,0.0,0.0,0.0,0.0,0.0,0.0,2.0055,2.1006,2.1541,2.1684,2.2249,2.2558,2.2575,2.2694,2.274,2.2815,2.2995,2.3098,2.3098,2.3493,2.3816,2.4173,2.5438,2.6324,2.7069,2.8327,2.8716,2.8605,2.8763,2.8716,2.8573,2.8842,2.8936,2.892,2.9289,2.9409,2.9454,2.9605,2.9694,3.0,3.0926,3.1372,3.1642,3.2179,3.2748,3.3096,3.2973,3.2732,3.2126,3.0784,3.0026,2.928,2.8102,2.8246,2.8801,2.946,3.0088,3.0979,3.2421,3.2844,3.3508,3.4877,3.5306,3.5874,3.6738,3.7163,3.7589,3.8141,3.839,3.8374,3.8197,3.778,3.7294,3.6723,3.7266,3.7401,3.6892,3.7298,3.7637,3.7969,3.7911,3.8311,3.8974,3.8843,3.8952,1.2922,1.3462,1.4197,0.0,0.0,0.0,0.0,0.0,0.0,0.0,0.0,0.0,0.0,0.0,0.0,0.0,0.0,0.0,0.0,0.0,0.0,0.0,0.0,0.0,0.0,0.0,0.0,0.0,0.0,0.0,0.0,0.0,0.0,0.0,2.1396,2.2077,2.2263,2.2889,2.3377,2.3752,2.3551,2.3508,2.3537,2.3608,2.3651,2.3651,2.4173,2.4436,2.462,2.5798,2.6796,2.7624,2.8605,2.887,2.8873,2.9152,2.8982,2.8684,2.8998,2.9106,2.9166,2.9483,2.975,3.0011,3.0146,3.0231,3.0467,3.1449,3.171,3.1886,3.2788,3.315,3.3309,3.3309,3.2819,3.2081,3.1009,3.0247,2.9458,2.8335,2.8586,2.9152,2.9606,3.0126,3.0976,3.2593,3.3104,3.3829,3.531,3.5838,3.6513,3.746,3.7812,3.8238,3.8952,3.9172,3.9172,3.9007,3.8684,3.8206,3.7531,3.8124,3.8197,3.7578,3.8042,3.8439,3.8701,3.8606,3.8882,3.9592,3.9329,3.9382,1.2659,1.2944,0.0,0.0,0.0,0.0,0.0,0.0,0.0,0.0,0.0,0.0,0.0,0.0,0.0,0.0,0.0,0.0,0.0,0.0,0.0,0.0,0.0,0.0,0.0,0.0,0.0,0.0,0.0,0.0,0.0,0.0,0.0,0.0,2.1664,2.231,2.2889,2.3231,2.3794,2.4589,2.4589,2.4508,2.4302,2.4508,2.4589,2.463,2.495,2.5224,2.5464,2.6482,2.751,2.8496,2.8555,2.8802,2.9152,2.9499,2.938,2.9121,2.9121,2.9483,2.9859,2.9645,3.0166,3.0723,3.0342,3.0326,3.0691,3.148,3.171,3.1935,3.3034,3.3309,3.3309,3.3309,3.2234,3.1124,3.0857,3.0005,2.9137,2.8541,2.9197,2.9899,2.9916,3.0143,3.0775,3.2182,3.3277,3.4312,3.5315,3.6669,3.786,3.8694,3.8805,3.8952,3.9365,3.985,3.9918,3.9435,3.985,3.9575,3.8334,3.8606,3.8827,3.8908,3.8827,3.9222,4.007,3.9644,3.9644,4.007,4.007,4.007,1.1104,0.0,0.0,0.0,0.0,0.0,0.0,0.0,0.0,0.0,0.0,0.0,0.0,0.0,0.0,0.0,0.0,0.0,0.0,0.0,0.0,0.0,0.0,0.0,0.0,0.0,0.0,0.0,0.0,0.0,0.0,0.0,0.0,0.0,2.2434,2.2934,2.3231,2.3822,2.4364,2.4934,2.5137,2.5075,2.4791,2.4831,2.4989,2.5185,2.5262,2.5454,2.5819,2.658,2.7098,2.7492,2.8486,2.8923,2.9097,2.9762,3.0027,3.0054,2.9913,3.014,3.0443,2.9904,3.0386,3.1077,3.0611,3.0908,3.1601,3.2433,3.2479,3.2504,3.3462,3.3503,3.3309,3.3309,3.2977,3.2459,3.1595,3.1038,3.0434,2.9555,2.9462,2.972,3.0163,3.0732,3.1686,3.3284,3.4654,3.6088,3.7621,3.8156,3.8623,3.9169,3.9222,3.9382,3.985,4.002,4.002,3.9918,4.002,3.9799,3.9082,3.9487,3.9435,3.8827,3.9098,3.9382,3.9592,3.9487,3.9644,4.007,4.007,3.98,0.0,0.0,0.0,0.0,0.0,0.0,0.0,0.0,0.0,0.0,0.0,0.0,0.0,0.0,0.0,0.0,0.0,0.0,0.0,0.0,0.0,0.0,0.0,0.0,0.0,0.0,0.0,0.0,0.0,0.0,0.0,0.0,0.0,0.0,2.2614,2.2908,2.3112,2.4053,2.4652,2.4965,2.5558,2.5668,2.5355,2.524,2.524,2.5416,2.5721,2.6049,2.6417,2.6656,2.6895,2.7259,2.8059,2.8655,2.9214,2.9856,3.0327,3.0601,3.0493,3.0723,3.0987,3.0167,3.0537,3.1177,3.0748,3.0991,3.1627,3.254,3.2815,3.3056,3.3758,3.3808,3.3575,3.3346,3.3103,3.2685,3.1855,3.1469,3.1015,3.0124,2.9924,3.0048,3.0489,3.0776,3.1593,3.3323,3.5175,3.6959,3.8608,3.8805,3.8952,3.9382,3.9418,3.9592,4.007,4.007,4.007,4.007,4.007,3.9969,3.9696,3.9969,3.9867,3.9329,3.954,3.9696,3.9696,3.9696,3.9799,4.007,4.007,3.9681,0.0,0.0,0.0,0.0,0.0,0.0,0.0,0.0,0.0,0.0,0.0,0.0,0.0,0.0,0.0,0.0,0.0,0.0,0.0,0.0,0.0,0.0,0.0,0.0,0.0,0.0,0.0,0.0,0.0,0.0,0.0,0.0,0.0,2.2503,2.2532,2.2643,2.2833,2.407,2.4724,0.0,2.5815,2.6183,2.5911,2.561,2.5492,2.5551,2.6298,2.6824,2.7181,2.674,2.6978,2.7601,2.7506,2.8248,2.9409,2.9799,3.0381,3.0925,3.0885,3.1223,3.1482,3.0421,3.0559,3.111,3.0681,3.0716,3.1133,3.2183,3.2978,3.3609,3.4057,3.4209,3.4119,3.3575,3.2958,3.2342,3.1919,3.1596,3.1178,3.0422,3.0526,3.0767,3.0831,3.0577,3.0975,3.2787,3.5102,3.714,3.8537,3.8832,3.9061,3.9418,3.947,3.9644,4.007,4.007,4.007,4.007,4.007,4.007,4.007,4.007,4.007,4.007,4.007,4.007,4.007,4.007,4.007,4.007,4.007,3.9648,0.0,0.0,0.0,0.0,0.0,0.0,0.0,0.0,0.0,0.0,0.0,0.0,0.0,0.0,0.0,0.0,0.0,0.0,0.0,0.0,0.0,0.0,0.0,0.0,0.0,0.0,0.0,0.0,0.0,0.0,0.0,0.0,0.0,2.3971,2.3927,2.386,2.3814,2.4408,2.4739,0.0,2.5426,2.5791,2.5976,2.5963,2.6052,2.6298,2.7034,2.7289,2.7181,2.71,2.7267,2.7632,2.8045,2.8801,2.9748,3.0262,3.102,3.1802,3.1654,3.1856,3.1969,3.0369,3.0453,3.1089,3.0412,3.0639,3.1532,3.3335,3.379,3.3994,3.5033,3.5098,3.4875,3.475,3.4235,3.3616,3.2989,3.2811,3.2412,3.1204,3.1032,3.1122,3.1096,3.1506,3.237,3.3912,3.5635,3.7093,3.7951,3.911,3.9867,3.9969,3.9969,3.9969,4.007,4.007,4.007,4.007,4.007,4.007,4.007,4.007,4.007,4.007,4.007,4.007,4.007,4.007,4.007,4.007,4.007,3.9377,0.0,0.0,0.0,0.0,0.0,0.0,0.0,0.0,0.0,0.0,0.0,0.0,0.0,0.0,0.0,0.0,0.0,0.0,0.0,0.0,0.0,0.0,0.0,0.0,0.0,0.0,0.0,0.0,0.0,0.0,0.0,2.487,2.465,2.4267,2.4134,2.4001,2.3903,2.4593,2.4913,2.4853,2.5614,2.5985,2.6012,2.6385,2.6657,2.6824,2.7444,2.7612,2.743,2.7474,2.7582,2.7736,2.8049,2.8983,3.0159,3.0454,3.1417,3.2573,3.2454,3.2573,3.2441,3.0656,3.0427,3.0653,2.9787,3.0071,3.0951,3.2406,3.3482,3.4372,3.5054,3.5386,3.5637,3.5942,3.5054,3.3972,3.3439,3.2959,3.2386,3.1528,3.1286,3.119,3.119,3.1799,3.2899,3.4759,3.6028,3.7297,3.8751,3.9597,4.007,4.007,4.007,4.007,4.007,4.007,4.007,4.007,4.007,4.007,4.007,4.007,4.007,4.007,4.007,4.007,4.007,4.007,4.007,4.007,3.9715,3.9157,0.0,0.0,0.0,0.0,0.0,0.0,0.0,0.0,0.0,0.0,0.0,0.0,0.0,0.0,0.0,0.0,0.0,0.0,0.0,0.0,0.0,0.0,0.0,0.0,0.0,0.0,0.0,0.0,0.0,0.0,2.4448,2.4378,2.4274,2.416,2.4011,2.3891,2.3817,2.4678,2.5005,2.4803,2.5872,2.6221,2.5968,2.6845,2.7208,2.7099,2.7689,2.7915,2.784,2.7915,2.7954,2.801,2.802,2.9122,3.0661,3.0575,3.1655,3.3147,3.3117,3.3086,3.2816,3.1041,3.0463,3.0261,2.9289,2.955,3.0346,3.1208,3.302,3.4723,3.4863,3.5588,3.6333,3.6733,3.5432,3.404,3.3741,3.2846,3.2036,3.1577,3.1363,3.119,3.119,3.1901,3.3102,3.4962,3.6231,3.7635,3.9462,3.9918,4.007,4.007,4.007,4.007,4.007,4.007,4.007,4.007,4.007,4.007,4.007,4.007,4.007,4.007,4.007,4.007,4.007,4.007,4.007,4.0054,3.9326,3.8988,0.0,0.0,0.0,0.0,0.0,0.0,0.0,0.0,0.0,0.0,0.0,0.0,0.0,0.0,0.0,0.0,0.0,0.0,0.0,0.0,0.0,0.0,0.0,0.0,0.0,0.0,0.0,0.0,0.0,0.0,2.4233,2.4376,2.4475,2.4444,2.4477,2.4439,2.4315,2.4678,2.4808,2.4711,2.5509,2.5804,2.5708,2.7207,2.7528,2.6978,2.809,2.8507,2.8402,2.8402,2.8578,2.8814,2.8652,2.9685,3.1236,3.0948,3.1888,3.3262,3.3147,3.3086,3.2816,3.1182,3.0661,3.0489,2.9689,2.9857,3.0667,3.2104,3.3564,3.4846,3.5495,3.6264,3.6716,3.6089,3.5259,3.4568,3.4328,3.3477,3.2526,3.1654,3.1363,3.119,3.119,3.2341,3.3355,3.366,3.6011,3.7872,3.8159,3.9292,4.007,4.007,4.007,4.007,4.007,4.007,4.007,4.007,4.007,4.007,4.007,4.007,4.007,4.007,4.007,4.007,4.007,4.007,4.007,4.0054,3.9326,3.8988,0.0,0.0,0.0,0.0,0.0,0.0,0.0,0.0,0.0,0.0,0.0,0.0,0.0,0.0,0.0,0.0,0.0,0.0,0.0,0.0,0.0,0.0,0.0,0.0,0.0,0.0,0.0,0.0,0.0,2.3102,2.3286,2.3637,2.3919,2.4157,2.4351,2.4511,2.4684,2.4868,2.5033,2.5156,2.5401,2.5458,2.5409,2.6502,2.7083,2.7301,2.839,2.8785,2.8628,2.8724,2.8911,2.9114,2.9135,2.9901,3.098,3.0826,3.1728,3.3021,3.294,3.3176,3.3302,3.2101,3.1402,3.0866,3.0005,3.017,3.0794,3.1314,3.3247,3.5137,3.5166,3.6209,3.7097,3.6587,3.5548,3.46,3.4191,3.3258,3.2254,3.1606,3.1363,3.1461,3.229,3.2983,3.3981,3.5673,3.706,3.821,3.9022,3.9681,4.007,4.007,4.007,4.007,4.007,4.007,4.007,4.007,4.007,4.007,4.007,4.007,4.007,4.007,4.007,4.007,4.007,4.007,4.007,4.0054,3.9326,3.9208,0.0,0.0,0.0,0.0,0.0,0.0,0.0,0.0,0.0,0.0,0.0,0.0,0.0,0.0,0.0,0.0,0.0,0.0,0.0,0.0,0.0,0.0,0.0,0.0,0.0,0.0,0.0,0.0,0.0,2.1939,2.217,2.2631,2.3092,2.3506,2.3847,2.4201,2.4648,2.4943,2.5227,2.5467,2.5414,2.5323,2.524,2.5967,2.6635,2.7263,2.8352,2.8861,2.896,2.9064,2.9105,2.912,2.9476,3.0001,3.0565,3.0753,3.1759,3.3018,3.2919,3.3364,3.3825,3.2937,3.2077,3.1262,3.0356,3.0494,3.0939,3.0728,3.3009,3.5408,3.4996,3.613,3.725,3.6653,3.5588,3.4477,3.3634,3.272,3.1965,3.1593,3.1402,3.1743,3.3152,3.377,3.4948,3.7577,3.8353,3.9047,4.0135,4.032,4.0288,4.0221,4.0171,4.0171,4.0138,4.007,4.007,4.007,4.007,4.007,4.007,4.007,4.007,4.007,4.007,4.007,4.007,4.007,3.9986,3.9783,3.9242,3.9276,0.0,0.0,0.0,0.0,0.0,0.0,0.0,0.0,0.0,0.0,0.0,0.0,0.0,0.0,0.0,0.0,0.0,0.0,0.0,0.0,0.0,0.0,0.0,0.0,0.0,0.0,0.0,0.0,0.0,2.0879,2.1067,2.1536,2.2012,2.2479,2.2906,2.3433,2.3946,2.4725,2.5195,2.541,2.5524,2.5488,2.533,2.6187,2.6508,2.6431,2.7773,2.8839,2.9644,2.9513,2.923,2.8882,2.9592,2.9977,3.0223,3.0912,3.2229,3.3599,3.3285,3.3702,3.4203,3.3278,3.2428,3.1611,3.0794,3.0844,3.1195,3.117,3.3266,3.5508,3.5475,3.6416,3.702,3.5545,3.4942,3.4247,3.2562,3.2143,3.1965,3.1593,3.1479,3.1901,3.3194,3.4789,3.6385,3.7928,3.9633,4.0784,4.0871,4.0871,4.0776,4.0534,4.0485,4.0387,4.0121,4.007,4.007,4.007,4.007,4.007,4.007,4.007,4.007,4.007,4.007,4.007,4.007,4.007,3.9715,3.9056,3.9005,3.9005,0.0,0.0,0.0,0.0,0.0,0.0,0.0,0.0,0.0,0.0,0.0,0.0,0.0,0.0,0.0,0.0,0.0,0.0,0.0,0.0,0.0,0.0,0.0,0.0,0.0,0.0,0.0,0.0,0.0,0.0,1.9572,2.0091,2.059,2.0985,2.1742,2.2658,2.3771,2.448,2.4935,2.515,2.5375,2.5459,2.5437,2.5746,2.6106,2.6544,2.7588,2.8464,2.9166,2.9581,2.9734,2.9669,2.9332,2.9617,3.0203,2.9947,3.0796,3.215,3.2541,3.3106,3.3668,3.3955,3.3044,3.184,3.1605,3.1238,3.0942,3.1225,3.325,3.5319,3.5461,3.6744,3.7484,3.5544,3.4782,3.411,3.2599,3.2196,3.2054,3.1893,3.2084,3.281,3.4687,3.5966,3.7359,3.9375,4.0384,4.0888,4.0888,4.0888,4.0871,4.0776,4.0583,4.0485,4.037,4.0188,4.007,4.007,4.0271,4.0288,4.0138,4.0288,4.0288,4.0121,4.007,4.007,4.007,4.0271,3.9946,3.9231,3.9918,3.9915,0.0,0.0,0.0,0.0,0.0,0.0,0.0,0.0,0.0,0.0,0.0,0.0,0.0,0.0,0.0,0.0,0.0,0.0,0.0,0.0,0.0,0.0,0.0,0.0,0.0,0.0,0.0,0.0,0.0,0.0,1.844,1.8919,1.9445,2.0011,2.1004,2.204,2.3118,2.3836,2.4403,2.4812,2.5023,2.5224,2.5401,2.5475,2.5756,2.6256,2.7129,2.8049,2.8962,2.9673,2.9918,2.9812,2.9136,2.9159,2.9462,2.8955,2.9698,3.1073,3.1836,3.2705,3.36,3.441,3.3481,3.2066,3.2086,3.1442,3.0809,3.139,3.3315,3.5312,3.5733,3.6903,3.7493,3.5661,3.4822,3.4074,3.2802,3.2422,3.2266,3.2108,3.231,3.3279,3.5642,3.6612,3.7948,4.0363,4.0948,4.1152,4.1152,4.1152,4.1105,4.1012,4.0758,4.0583,4.0534,4.0271,4.007,4.007,4.032,4.0468,4.0368,4.0549,4.0614,4.0514,4.0402,4.0251,3.9946,4.0317,4.0141,3.9453,4.0414,4.0642,0.0,0.0,0.0,0.0,0.0,0.0,0.0,0.0,0.0,0.0,0.0,0.0,0.0,0.0,0.0,0.0,0.0,0.0,0.0,0.0,0.0,0.0,0.0,0.0,0.0,0.0,0.0,0.0,0.0,1.7323,1.772,1.8013,1.8603,1.9611,2.0734,2.1507,2.1949,2.2758,2.3555,2.4358,2.452,2.4793,2.5196,2.5395,2.5453,2.5444,2.6384,2.764,2.9088,2.9768,2.9742,2.9225,2.9137,2.8676,2.8034,2.8074,2.9096,3.0559,3.1251,3.2579,3.4056,3.4604,3.3715,3.241,3.2164,3.1442,3.0872,3.1659,3.3449,3.5375,3.6343,3.6959,3.7022,3.5818,3.502,3.4202,3.2991,3.2734,3.2603,3.2214,3.2318,3.3283,3.5866,3.6771,3.8099,4.0784,4.1408,4.1604,4.1604,4.1604,4.1498,4.1255,4.1041,4.0776,4.0517,4.0288,4.0138,4.007,4.0387,4.0628,4.0874,4.0913,4.1024,4.1258,4.1024,4.0509,3.9733,4.0254,4.0203,3.9681,4.0521,4.1036,0.4388,0.0,0.0,0.0,0.0,0.0,0.0,0.0,0.0,0.0,0.0,0.0,0.0,0.0,0.0,0.0,0.0,0.0,0.0,0.0,0.0,0.0,0.0,0.0,0.0,0.0,0.0,0.0,1.5988,1.6163,1.6607,1.6514,1.7068,1.8373,1.8737,1.9541,2.0767,2.1798,2.2649,2.3318,2.4094,2.4615,2.4911,2.5215,2.5379,2.5449,2.644,2.7098,2.7535,2.8833,2.9709,3.0133,2.9387,2.9023,2.8869,2.8315,2.8753,2.9743,3.051,3.1842,3.3333,3.4002,3.3834,3.3218,3.2593,3.1675,3.0882,3.1109,3.2769,3.5055,3.7562,3.8198,3.7796,3.6417,3.5864,3.5198,3.3491,3.322,3.3129,3.2636,3.3523,3.4889,3.6505,3.7905,3.9311,4.0941,4.1408,4.1604,4.1604,4.1604,4.156,4.1498,4.1272,4.1041,4.0823,4.0517,4.0337,4.0121,4.0517,4.071,4.0628,4.0931,4.1071,4.1024,4.0918,4.066,4.0281,4.0781,4.0349,3.9128,4.0358,4.1266,0.0,0.0,0.0,0.0,0.0,0.0,0.0,0.4147,0.0,0.0,0.0,0.0,0.0,0.0,0.0,0.0,0.0,0.0,0.0,0.0,0.0,0.0,0.0,0.0,0.0,0.0,0.0,1.5603,1.5424,1.5322,1.5389,1.5656,1.6102,1.6847,1.7411,1.8347,1.9697,2.0798,2.1782,2.2663,2.344,2.4063,2.4507,2.4864,2.5094,2.5275,2.5912,2.644,2.6914,2.78,2.8935,3.0006,2.9052,2.8945,2.9171,2.802,2.8288,2.933,2.9833,3.1293,3.3056,3.3813,3.3918,3.3623,3.2733,3.1765,3.0979,3.0923,3.2828,3.5453,3.7868,3.8729,3.8618,3.7285,3.6703,3.5984,3.4316,3.3834,3.3541,3.2975,3.3691,3.5068,3.7003,3.8102,3.9332,4.1279,4.1587,4.1604,4.1604,4.1604,4.1648,4.1805,4.1569,4.1418,4.1463,4.1082,4.0849,4.0814,4.11,4.1283,4.1428,4.1666,4.1744,4.1613,4.1498,4.127,4.0945,4.1253,4.1007,4.0235,4.1014,4.1742,0.0,0.0,0.0,0.0,0.0,0.0,0.3154,0.293,0.0,0.0,0.0,0.0,0.0,0.0,0.0,0.0,0.0,0.0,0.0,0.0,0.0,0.0,0.0,0.0,0.0,1.419,1.4444,1.5412,1.5142,1.4709,1.4307,1.5096,1.5454,1.5297,1.6431,1.7598,1.8749,1.9743,2.0894,2.2163,2.2683,2.3312,2.4062,2.4377,2.4681,2.4939,2.5082,2.5738,2.6688,2.671,2.779,2.9324,2.8546,2.8694,2.9145,2.7588,2.79,2.9101,2.9154,3.0742,3.2875,3.3716,3.3967,3.3765,3.2877,3.1982,3.1238,3.1092,3.3255,3.5982,3.7455,3.8646,3.9207,3.8219,3.7492,3.6665,3.5275,3.452,3.3952,3.3327,3.3459,3.4522,3.7248,3.772,3.8687,4.1558,4.1725,4.1543,4.1587,4.1648,4.178,4.2061,4.1899,4.1881,4.2157,4.1717,4.1508,4.1768,4.176,4.2032,4.2616,4.2631,4.257,4.257,4.218,4.1931,4.1736,4.1639,4.1768,4.2061,4.2061,4.2269,0.0,0.0,0.0,0.0,0.0,0.0,0.0,0.2288,0.0,0.0,0.0,0.0,0.0,0.0,0.0,0.0,0.0,0.0,0.0,0.0,0.0,0.0,0.0,0.0,0.0,1.38,1.4444,1.5412,1.5142,1.472,1.4258,1.4014,1.4143,1.4675,1.5262,1.6328,1.776,1.8941,2.0107,2.125,2.2055,2.288,2.3699,2.4007,2.4222,2.4441,2.4695,2.503,2.5371,2.5543,2.7134,2.9464,2.9226,2.9279,2.9334,2.826,2.8066,2.8318,2.8322,2.9571,3.1402,3.2841,3.3685,3.4108,3.3968,3.3168,3.227,3.2087,3.2997,3.4585,3.6826,3.7985,3.8541,3.8482,3.8169,3.7449,3.5876,3.5273,3.4803,3.3997,3.4293,3.5232,3.6866,3.7482,3.8526,4.0788,4.1103,4.1149,4.1561,4.1866,4.2019,4.2103,4.2044,4.2068,4.2216,4.2074,4.1973,4.181,4.2015,4.2157,4.2279,4.2494,4.2472,4.2187,4.1765,4.1845,4.2391,4.1487,4.1297,4.1675,4.1977,4.2269,0.0,0.0,0.0,0.3167,0.0,0.0,0.0,0.0,0.2479,0.0,0.0,0.0,0.0,0.0,0.0,0.0,0.0,0.0,0.0,0.0,0.0,0.0,0.0,0.0,0.0,1.3104,1.355,1.4093,1.4261,1.3998,1.3208,1.3314,1.3505,1.3758,1.44,1.5496,1.6998,1.8179,1.9403,2.0766,2.1599,2.2426,2.3212,2.3556,2.389,2.4209,2.4407,2.4625,2.4881,2.51,2.6312,2.8055,2.8589,2.906,2.9302,2.8469,2.8369,2.8644,2.824,2.9225,3.0925,3.2635,3.3655,3.4218,3.4287,3.3218,3.1981,3.1911,3.2485,3.3608,3.5628,3.7029,3.8007,3.8461,3.8376,3.7866,3.6577,3.5826,3.5136,3.419,3.4199,3.4871,3.6401,3.7047,3.8096,4.0188,4.0846,4.1319,4.1803,4.2145,4.2391,4.2516,4.2555,4.2634,4.2846,4.2693,4.2598,4.2657,4.2637,4.2693,4.2846,4.2995,4.2882,4.2573,4.2332,4.2332,4.2609,4.216,4.2002,4.2103,4.2269,4.2432,0.0,0.0,0.0,0.0,0.0,0.279,0.0,0.0,0.0,0.2706,0.0,0.0,0.0,0.0,0.0,0.0,0.0,0.0,0.0,0.0,0.0,0.0,0.0,0.0,0.0,1.2236,1.2563,1.2874,1.314,1.2976,1.2213,1.2859,1.3175,1.2909,1.3815,1.4937,1.6353,1.7464,1.8792,2.0348,2.1165,2.1943,2.2772,2.3098,2.3504,2.4004,2.4118,2.4332,2.461,2.4885,2.5466,2.6327,2.7654,2.8635,2.9244,2.8647,2.8702,2.8999,2.8339,2.8999,3.0413,3.2217,3.3451,3.424,3.4301,3.3094,3.1678,3.1569,3.201,3.2838,3.4225,3.5947,3.749,3.8165,3.8445,3.8343,3.7373,3.6404,3.5435,3.4481,3.4005,3.4284,3.5789,3.645,3.7522,3.9662,4.0724,4.1474,4.2103,4.2472,4.2747,4.2995,4.2976,4.3142,4.3479,4.325,4.3214,4.3479,4.325,4.3214,4.3497,4.3444,4.3304,4.3032,4.2976,4.2882,4.267,4.2957,4.2882,4.253,4.257,4.2609,0.0,0.0,0.0,0.0,0.3562,0.0,0.0,0.0,0.2309,0.237,0.0,0.0,0.0,0.0,0.0,0.0,0.0,0.0,0.0,0.0,0.0,0.0,0.0,0.0,0.0,0.0,1.2229,1.3101,1.2162,1.1792,1.2325,1.268,1.2816,1.2648,1.3721,1.4789,1.5864,1.6818,1.8152,1.9803,2.0565,2.1505,2.2617,2.2669,2.3007,2.3571,2.3703,2.3923,2.419,2.452,2.4826,2.5275,2.7245,2.8572,2.9374,2.9295,2.8863,2.8314,2.8223,2.8269,2.8663,3.0438,3.2535,3.4381,3.438,3.365,3.2663,3.1891,3.1731,3.202,3.291,3.4879,3.6778,3.7452,3.866,3.9377,3.8362,3.7318,3.6322,3.5497,3.4489,3.41,3.4972,3.5574,3.6749,3.913,4.0217,4.1198,4.2411,4.2768,4.2957,4.2995,4.2976,4.3142,4.3479,4.3463,4.3444,4.3497,4.3444,4.3444,4.3497,4.3214,4.3032,4.2976,4.2976,4.2995,4.2957,4.3286,4.2995,4.2145,4.2472,4.2609,0.0,0.0,0.0,0.0,0.0,0.0,0.0,0.0,0.2419,0.0,0.0,0.0,0.0,0.0,0.0,0.0,0.0,0.0,0.0,0.0,0.0,0.0,0.0,0.0,0.0,0.0,0.0,0.0,0.0,1.0537,1.077,1.1734,1.2229,1.2215,1.3219,1.4226,1.5207,1.6255,1.7598,1.9141,2.0128,2.1212,2.2252,2.2485,2.2933,2.3517,2.3634,2.375,2.3901,2.4263,2.4532,2.4869,2.6918,2.8008,2.8485,2.8658,2.8475,2.8145,2.8179,2.8184,2.8612,3.1331,3.3219,3.4456,3.4419,3.3779,3.2866,3.1954,3.1352,3.1256,3.2564,3.4314,3.6064,3.737,3.8763,3.9577,3.8769,3.7582,3.6503,3.5744,3.4629,3.3917,3.4266,3.53,3.6699,3.8452,3.9987,4.1391,4.2683,4.3105,4.3286,4.3286,4.3286,4.3339,4.3497,4.3497,4.3497,4.3497,4.3497,4.3497,4.3497,4.3356,4.3286,4.3286,4.3286,4.3286,4.3286,4.3444,4.3178,4.2652,4.2768,4.2844,0.4833,0.0,0.0,0.0,0.0,0.0,0.0,0.0,0.0,0.0,0.0,0.0,0.0,0.0,0.0,0.0,0.0,0.0,0.0,0.0,0.0,0.0,0.0,0.0,0.0,0.0,0.0,0.0,0.0,0.0,0.9857,1.0984,1.1746,1.2003,1.2829,1.37,1.4653,1.5636,1.6892,1.8478,1.9641,2.0782,2.1869,2.2334,2.2857,2.3448,2.3611,2.37,2.3743,2.4117,2.4353,2.4655,2.6416,2.7405,2.7881,2.8563,2.8505,2.8105,2.8159,2.8179,2.8709,3.1914,3.3507,3.419,3.4342,3.3963,3.3265,3.2293,3.141,3.1044,3.2256,3.3747,3.5362,3.7034,3.8537,3.9501,3.9203,3.7942,3.67,3.6129,3.489,3.3876,3.3815,3.5183,3.6776,3.8132,3.9918,4.158,4.2977,4.3339,4.3497,4.3497,4.3497,4.3497,4.3497,4.3497,4.3497,4.3497,4.3497,4.3497,4.3497,4.3497,4.3497,4.3497,4.3497,4.3497,4.3497,4.3497,4.3375,4.3142,4.3142,4.3105,0.0,0.0,0.0,0.4256,0.0,0.0,0.0,0.0,0.4229,0.0,0.0,0.0,0.0,0.0,0.0,0.0,0.0,0.0,0.0,0.0,0.0,0.0,0.0,0.0,0.0,0.0,0.0,0.0,0.0,0.0,1.0436,1.0807,1.1348,1.226,1.264,1.3303,1.4294,1.4869,1.6089,1.7932,1.8964,2.0141,2.1439,2.2113,2.2704,2.3241,2.3567,2.37,2.3721,2.4057,2.4284,2.4534,2.5684,2.6829,2.8005,2.9709,2.9377,2.8098,2.8101,2.8156,2.8625,3.1188,3.2633,3.3472,3.4187,3.4389,3.4154,3.314,3.2275,3.1679,3.1718,3.2987,3.4634,3.617,3.7821,3.9201,3.9833,3.8553,3.7213,3.693,3.5413,3.4099,3.3842,3.5183,3.6835,3.842,4.0084,4.168,4.3277,4.3479,4.3497,4.3497,4.3497,4.3497,4.3497,4.3497,4.3497,4.3497,4.3497,4.3497,4.3497,4.3497,4.3497,4.3497,4.3497,4.3497,4.3497,4.3497,4.3479,4.3479,4.3479,4.3304,0.0,0.0,0.4297,0.4423,0.0,0.0,0.0,0.0,0.0,0.0,0.0,0.0,0.0,0.0,0.0,0.0,0.0,0.0,0.0,0.0,0.0,0.0,0.0,0.0,0.0,0.0,0.0,0.0,0.0,0.0,0.0,0.9806,1.0878,1.1738,1.2197,1.2971,1.4107,1.4653,1.5504,1.6722,1.8204,1.9531,2.0719,2.1691,2.2476,2.3084,2.3412,2.3585,2.3567,2.3789,2.4039,2.4412,2.6018,2.7044,2.7835,2.9137,2.8971,2.8113,2.8154,2.8187,2.8618,3.1164,3.2601,3.3433,3.4177,3.4408,3.4193,3.3179,3.2314,3.1814,3.2352,3.3333,3.4757,3.6968,3.8252,3.9235,4.0147,3.8728,3.7294,3.7232,3.5593,3.4147,3.3954,3.4842,3.6288,3.8377,3.9625,4.1075,4.3204,4.3497,4.3497,4.3497,4.3497,4.3497,4.3497,4.3497,4.3497,4.3497,4.3497,4.3497,4.3497,4.3497,4.3497,4.3497,4.3497,4.3497,4.3497,4.3497,4.3497,4.3497,4.3497,4.3444,0.3008,0.3421,0.0,0.4053,0.3913,0.0,0.4193,0.0,0.0,0.0,0.0,0.0,0.0,0.0,0.0,0.0,0.0,0.0,0.0,0.0,0.0,0.0,0.0,0.0,0.0,0.0,0.4665,0.5136,0.0,0.0,0.0,0.0,1.0371,1.173,1.1836,1.2533,1.3967,1.4354,1.505,1.6139,1.7638,1.8987,2.0138,2.1332,2.2158,2.2634,2.323,2.3453,2.3476,2.3703,2.3959,2.4358,2.5893,2.6965,2.7759,2.9096,2.8975,2.814,2.8181,2.8212,2.8608,3.0853,3.2356,3.339,3.3838,3.439,3.4588,3.3299,3.255,3.2256,3.2776,3.3314,3.4449,3.7315,3.8331,3.8975,4.0223,3.9193,3.789,3.7489,3.5972,3.4647,3.4161,3.4467,3.568,3.8315,3.9417,4.0827,4.322,4.3497,4.3497,4.3497,4.3497,4.3497,4.3497,4.3497,4.3497,4.3497,4.3497,4.3497,4.3497,4.3497,4.3497,4.3497,4.3497,4.3497,4.3497,4.3497,4.3497,4.3497,4.3497,4.3497]},{"header":{"parameterUnit":"m.s-1","parameterCategory":1,"la1":30.6,"la2":29.2853,"lo1":-89.7004,"lo2":-87.6739,"dy":0.0162,"dx":0.0183,"nx":112,"ny":82,"refTime":"2025-04-12T06:00:00:Z","depth":0,"parameterNumber":3,"parameterNumberName":"V-component_of_WINDS"},"data":[0.0,0.0,0.0,0.0,0.0,0.0,0.0,0.0,0.0,0.0,0.0,0.0,0.0,0.0,0.0,0.0,0.0,0.0,0.0,0.0,0.0,0.0,0.0,0.0,0.0,0.0,0.0,0.0,0.0,0.0,0.0,0.0,0.0,0.0,0.0,0.0,0.0,0.0,0.0,0.0,0.0,0.0,0.0,0.0,0.0,0.0,0.0,0.0,0.0,0.0,0.0,0.0,0.0,0.0,0.0,0.0,0.0,0.0,0.0,0.0,0.0,0.0,0.0,0.0,0.0,0.0,0.0,0.0,0.0,0.0,0.0,0.0,0.0,0.0,0.0,0.0,0.0,0.0,0.0,0.0,0.0,0.0,0.0,0.0,0.0,0.0,0.0,0.0,0.0,0.0,0.0,1.3318,1.6263,1.8007,1.7843,1.8001,1.6689,1.3407,0.0,0.0,0.0,0.0,0.0,0.0,0.0,0.0,0.0,0.0,0.0,0.0,0.0,0.0,0.0,0.0,0.0,0.0,0.0,0.0,0.0,0.0,0.0,0.0,0.0,0.0,0.0,0.0,0.0,0.0,0.0,0.0,0.0,0.0,0.0,0.0,0.0,0.0,0.0,0.0,0.0,0.0,0.0,0.0,0.0,0.0,0.0,0.0,0.0,0.0,0.0,0.0,0.0,0.0,0.0,0.0,0.0,0.0,0.0,0.0,0.0,0.0,0.0,0.0,0.0,0.0,0.0,0.0,0.0,0.0,0.0,0.0,0.0,0.0,0.0,0.0,0.0,0.0,0.0,0.0,0.0,0.0,0.0,0.0,0.0,0.0,0.0,0.0,0.0,0.0,0.0,0.0,0.0,0.0,0.0,0.0,0.0,0.0,0.0,0.0,0.0,0.0,0.0,0.0,1.3163,1.7488,1.8439,1.8765,1.8799,1.8013,1.6293,1.3391,0.0,0.0,0.0,0.0,0.0,0.0,0.0,0.0,0.0,0.0,0.0,0.0,0.0,0.0,0.0,0.0,0.0,0.0,0.0,0.0,0.0,0.0,0.0,0.0,0.0,0.0,0.0,0.0,0.0,0.0,0.0,0.0,0.0,0.0,0.0,0.0,0.0,0.0,0.0,0.0,0.0,0.0,0.0,0.0,0.0,0.0,0.0,0.0,0.0,0.0,0.0,0.0,0.0,0.0,0.0,0.0,0.0,0.0,0.0,0.0,0.0,0.0,0.0,0.0,0.0,0.0,0.0,0.0,0.0,0.0,0.0,0.0,0.0,0.0,0.0,0.0,0.0,0.0,0.0,0.0,0.0,0.0,0.0,0.0,0.0,0.0,0.0,0.0,0.0,0.0,0.0,0.0,0.0,0.0,0.0,0.0,0.0,0.0,0.0,0.0,0.0,0.0,0.0,1.2498,1.4829,1.8594,1.9593,1.9745,1.9151,1.8805,1.7249,1.4101,1.346,0.0,0.0,0.0,0.0,0.0,0.0,0.0,0.0,0.0,0.0,0.0,0.0,0.0,0.0,0.0,0.0,0.0,0.0,0.0,0.0,0.0,0.0,0.0,0.0,0.0,0.0,0.0,0.0,0.0,0.0,0.0,0.0,0.0,0.0,0.0,0.0,0.0,0.0,0.0,0.0,0.0,0.0,0.0,0.0,0.0,0.0,0.0,0.0,0.0,0.0,0.0,0.0,0.0,0.0,0.0,0.0,0.0,0.0,0.0,0.0,0.0,0.0,0.0,0.0,0.0,0.0,0.0,0.0,0.0,0.0,0.0,0.0,0.0,0.0,0.0,0.0,0.0,0.0,0.0,0.0,0.0,0.0,0.0,0.0,0.0,0.0,0.0,0.0,0.0,0.0,0.0,0.0,0.0,0.0,0.0,0.0,0.0,0.0,0.0,0.0,0.0,0.0,1.4798,1.6559,1.924,2.0447,2.0651,1.9642,1.9454,1.8052,1.4967,1.363,0.0,0.0,0.0,0.0,0.0,0.0,0.0,0.0,0.0,0.0,0.0,0.0,0.0,0.0,0.0,0.0,0.0,0.0,0.0,0.0,0.0,0.0,0.0,0.0,0.0,0.0,0.0,0.0,0.0,0.0,0.0,0.0,0.0,0.0,0.0,0.0,0.0,0.0,0.0,0.0,0.0,0.0,0.0,0.0,0.0,0.0,0.0,0.0,0.0,0.0,0.0,0.0,0.0,0.0,0.0,0.0,0.0,0.0,0.0,0.0,0.0,0.0,0.0,0.0,0.0,0.0,0.0,0.0,0.0,0.0,0.0,0.0,0.0,0.0,0.0,0.0,0.0,0.0,0.0,0.0,0.0,0.0,0.0,0.0,0.0,0.0,0.0,0.0,0.0,0.0,0.0,0.0,0.0,0.0,0.0,0.0,0.0,0.0,0.0,0.0,0.0,0.0,1.6281,1.8765,2.0558,2.1245,2.1292,2.0664,1.9475,1.7853,1.5663,1.3411,0.0,0.0,0.0,0.0,0.0,0.0,0.0,0.0,0.0,0.0,0.0,0.0,0.0,0.0,0.0,0.0,0.0,0.0,0.0,0.0,0.0,0.0,0.0,0.0,0.0,0.0,0.0,0.0,0.0,0.0,0.0,0.0,0.0,0.0,0.0,0.0,0.0,0.0,0.0,0.0,0.0,0.0,0.0,0.0,0.0,0.0,0.0,0.0,0.0,0.0,0.0,0.0,0.0,0.0,0.0,0.0,0.0,0.0,0.0,0.0,0.0,0.0,0.0,0.0,0.0,0.0,0.0,0.0,0.0,0.0,0.0,0.0,0.0,0.0,0.0,0.0,0.0,0.0,0.0,0.0,0.0,0.0,0.0,0.0,0.0,0.0,0.0,0.0,0.0,0.0,0.0,0.0,0.0,0.0,0.0,0.0,0.0,0.0,0.0,0.0,0.0,0.0,1.615,1.8195,0.0,2.1309,2.1354,2.0759,1.9874,1.8507,1.6424,0.0,0.0,0.0,0.0,0.0,0.0,0.0,0.0,0.0,0.0,0.0,0.0,0.0,0.0,0.0,0.0,0.0,0.0,0.0,0.0,0.0,0.0,0.0,0.0,0.0,0.0,0.0,0.0,0.0,0.0,0.0,0.0,0.0,0.0,0.0,0.0,0.0,0.0,0.0,0.0,0.0,0.0,0.0,0.0,0.0,0.0,0.0,0.0,0.0,0.0,0.0,0.0,0.0,0.0,0.0,0.0,0.0,0.0,0.0,0.0,0.0,0.0,0.0,0.0,0.0,0.0,0.0,0.0,0.0,0.0,0.0,0.0,0.0,0.0,0.0,0.0,0.0,0.0,0.0,0.0,0.0,0.0,0.0,0.0,0.0,0.0,0.0,0.0,0.0,0.0,0.0,0.0,0.0,0.0,0.0,0.0,0.0,0.0,0.0,0.0,0.0,0.0,1.4781,1.6448,1.8276,0.0,2.1402,2.1497,2.1073,2.0094,1.8706,1.6792,0.0,0.0,0.0,0.0,0.0,0.0,0.0,0.0,0.0,0.0,0.0,0.0,0.0,0.0,0.0,0.0,0.0,0.0,0.0,0.0,0.0,0.0,0.0,0.0,0.0,0.0,0.0,0.0,0.0,0.0,0.0,0.0,0.0,0.0,0.0,0.0,0.0,0.0,0.0,0.0,0.0,0.0,0.0,0.0,0.0,0.0,0.0,0.0,0.0,0.0,0.0,0.0,0.0,0.0,0.0,0.0,0.0,0.0,0.0,0.0,0.0,0.0,0.0,0.0,0.0,0.0,0.0,0.0,0.0,0.0,0.0,0.0,0.0,0.0,0.0,0.0,0.0,0.0,0.0,0.0,0.0,0.0,0.0,0.0,0.0,0.0,0.0,0.0,0.0,0.0,0.0,0.0,0.0,0.0,0.0,0.0,0.0,0.0,0.0,0.0,0.0,0.0,1.5171,1.7515,1.9519,2.1132,2.1617,2.1797,2.1797,2.0016,1.8245,0.0,0.0,0.0,0.0,0.0,0.0,0.0,0.0,0.0,0.0,0.0,0.0,0.0,0.0,0.0,0.0,0.0,0.0,0.0,0.0,0.0,0.0,0.0,0.0,0.0,0.0,0.0,0.0,0.0,0.0,0.0,0.0,0.0,0.0,0.0,0.0,0.0,0.0,0.0,0.0,0.0,0.0,0.0,0.0,0.0,0.0,0.0,0.0,0.0,0.0,0.0,0.0,0.0,0.0,0.0,0.0,0.0,0.0,0.0,0.0,0.0,0.0,0.0,0.0,0.0,0.0,0.0,0.0,0.0,0.0,0.0,0.0,0.0,0.0,0.0,0.0,0.0,0.0,0.0,0.0,0.0,0.0,0.0,0.0,0.0,0.0,0.0,0.0,0.0,0.0,0.0,0.0,0.0,0.0,0.0,0.0,0.0,0.0,0.0,0.0,0.0,0.0,0.0,1.5957,1.8213,2.0031,2.118,2.1617,2.1797,2.1797,2.0485,1.8795,1.6728,0.0,0.0,0.0,0.0,0.0,0.0,0.0,0.0,0.0,0.0,0.0,0.0,0.0,0.0,0.0,0.0,0.0,0.0,0.0,0.0,0.0,0.0,0.0,0.0,0.0,0.0,0.0,0.0,0.0,0.0,0.0,0.0,0.0,0.0,0.0,0.0,0.0,0.0,0.0,0.0,0.0,0.0,0.0,0.0,0.0,0.0,0.0,0.0,0.0,0.0,0.0,0.0,0.0,0.0,0.0,0.0,0.0,0.0,0.0,0.0,0.0,0.0,0.0,0.0,0.0,0.0,0.0,0.0,0.0,0.0,0.0,0.0,0.0,0.0,0.0,0.0,0.0,0.0,0.0,0.0,0.0,0.0,0.0,0.0,0.0,0.0,0.0,0.0,0.0,0.0,0.0,0.0,0.0,0.0,0.0,0.0,0.0,0.0,0.0,0.0,0.0,0.0,1.6297,1.8617,2.0379,2.1213,2.1617,2.1797,2.1797,2.0686,1.9031,1.6718,0.0,0.0,0.0,0.0,0.0,0.0,0.0,0.0,0.0,0.0,0.0,0.0,0.0,0.0,0.0,0.0,0.0,0.0,0.0,0.0,0.0,0.0,0.0,0.0,0.0,0.0,0.0,0.0,0.0,0.0,0.0,0.0,0.0,0.0,0.0,0.0,0.0,0.0,0.0,0.0,0.0,0.0,0.0,0.0,0.0,0.0,0.0,0.0,0.0,0.0,0.0,0.0,0.0,0.0,0.0,0.0,0.0,0.0,0.0,0.0,0.0,0.0,0.0,0.0,0.0,0.0,0.0,0.0,0.0,0.0,0.0,0.0,0.0,0.0,0.0,0.0,0.0,0.0,0.0,0.0,0.0,0.0,0.0,0.0,0.0,0.0,0.0,0.0,0.0,0.0,0.0,0.0,0.0,0.0,0.0,0.0,0.0,0.0,0.0,0.0,0.0,0.0,1.6323,1.8828,2.0645,2.1244,2.1587,2.1797,2.1797,2.0743,1.9084,1.6731,0.0,0.0,0.0,0.0,0.0,0.0,0.0,0.0,0.0,0.0,0.0,0.0,0.0,0.0,0.0,0.0,0.0,0.0,0.0,0.0,0.0,0.0,0.0,0.0,0.0,0.0,0.0,0.0,0.0,0.0,0.0,0.0,0.0,0.0,0.0,0.0,0.0,0.0,0.0,0.0,0.0,0.0,0.0,0.0,0.0,0.0,0.0,0.0,0.0,0.0,0.0,0.0,0.0,0.0,0.0,0.0,0.0,0.0,0.0,0.0,1.1075,0.0,0.0,0.0,0.0,0.0,0.0,0.0,0.0,0.0,0.0,0.0,0.0,0.0,0.0,0.0,0.0,0.0,0.0,0.0,0.0,0.0,0.0,0.0,0.0,0.0,0.0,0.0,0.0,0.0,0.0,0.0,0.0,0.0,0.0,0.0,0.0,0.0,0.0,0.0,0.0,0.0,1.6386,1.9228,2.1147,2.1261,2.1511,2.1634,2.1634,2.0974,1.9571,1.7271,0.0,0.0,0.0,0.0,0.0,0.0,0.0,0.0,0.0,0.0,0.0,0.0,0.0,0.0,0.0,0.0,0.0,0.0,0.0,0.0,0.0,0.0,0.0,0.0,0.0,0.0,0.0,0.0,0.0,0.0,0.0,0.0,0.0,0.0,0.0,0.0,0.0,0.0,0.0,0.0,0.0,0.0,0.0,0.0,0.0,0.0,0.0,0.0,0.0,0.0,0.0,0.0,0.0,0.0,0.0,0.0,0.0,0.0,0.0,0.0,0.0,1.2073,0.0,0.0,0.0,0.0,0.0,0.0,0.0,0.0,0.0,0.0,0.0,0.0,0.0,0.0,0.0,0.0,0.0,0.0,0.0,0.0,0.0,0.0,0.0,0.0,0.0,0.0,0.0,0.0,0.0,0.0,0.0,0.0,0.0,0.0,0.0,0.0,0.0,0.0,0.0,0.0,1.7003,1.9608,2.1309,2.1309,2.1481,2.1589,2.1589,2.1035,2.0036,1.8431,1.6633,0.0,0.0,0.0,0.0,0.0,0.0,0.0,0.0,0.0,0.0,0.0,0.0,0.0,0.0,0.0,0.0,0.0,0.0,0.0,0.0,0.0,0.0,0.0,0.0,0.0,0.0,0.0,0.0,0.0,0.0,0.0,0.0,0.0,0.0,0.0,0.0,0.0,0.0,0.0,0.0,0.0,0.0,0.0,0.0,0.0,0.0,0.0,0.0,0.0,0.0,0.0,0.0,0.0,1.5686,1.6415,1.711,1.7132,1.7428,1.7799,1.5399,1.4485,1.4541,0.0,0.0,0.0,0.0,0.0,0.0,0.0,0.0,0.0,0.0,0.0,0.0,0.0,0.0,0.0,0.0,0.0,0.0,0.0,0.0,0.0,0.0,0.0,0.0,0.0,1.6772,1.6159,0.0,0.0,0.0,0.0,0.0,0.0,0.0,0.0,0.0,0.0,0.0,0.0,1.7764,1.9973,2.1309,2.1309,2.145,2.1559,2.1559,2.1092,2.0463,1.9612,1.778,1.6033,0.0,0.0,0.0,0.0,0.0,0.0,0.0,0.0,0.0,0.0,0.0,0.0,0.0,0.0,0.0,0.0,0.0,0.0,0.0,0.0,0.0,0.0,0.0,0.0,0.0,0.0,0.0,0.0,0.0,0.0,0.0,0.0,0.9396,1.0113,0.0,0.0,0.0,0.0,0.0,0.0,0.0,0.0,0.0,0.0,0.0,0.0,0.0,1.4645,1.5635,1.706,1.7938,1.8272,1.9007,1.9411,1.9537,1.9653,1.9672,1.958,1.9243,0.0,1.6779,1.5347,0.0,0.0,0.0,0.0,0.0,0.0,0.0,0.0,0.0,0.0,0.0,0.0,0.0,0.0,0.0,0.0,0.0,0.0,0.0,0.0,0.0,0.0,1.8765,1.8327,1.8234,1.8098,0.0,1.5593,1.3724,1.2908,0.0,0.0,0.0,0.0,0.0,0.0,0.0,0.0,1.847,2.0249,2.1309,2.1309,2.1309,2.1356,2.1356,2.1259,2.0919,2.0237,1.9313,1.8092,1.6488,1.511,0.0,0.0,0.0,0.0,0.0,0.0,0.0,0.0,0.0,0.0,0.0,0.0,0.0,0.0,0.0,0.0,0.0,0.0,0.0,0.0,0.0,0.0,0.0,0.0,0.0,0.0,0.0,0.0,0.0,0.9364,1.0144,1.0447,1.0444,1.02,0.0,0.0,0.0,0.0,0.0,0.0,0.0,0.0,0.0,1.612,1.6644,1.7344,1.8293,1.9437,2.0162,2.0418,2.113,2.1533,2.1644,2.1694,2.1661,2.1584,2.1618,2.1122,2.012,1.8064,1.7087,1.6758,0.0,0.0,0.0,0.0,1.5699,1.5805,1.7066,1.7397,0.0,0.0,0.0,0.0,0.0,0.0,0.0,0.0,0.0,0.0,0.0,0.0,0.0,1.9799,1.972,1.9639,1.972,1.8606,1.6982,0.0,1.4285,1.3502,1.1832,0.0,0.0,0.0,0.0,0.0,1.946,2.0632,2.1309,2.1309,2.1309,2.1309,2.1309,2.1309,2.1179,2.0888,2.0208,1.9305,1.82,1.6722,1.513,0.0,0.0,0.0,0.0,0.0,0.0,0.0,0.0,0.0,0.0,0.0,0.0,0.0,0.0,0.0,0.0,0.0,0.0,0.0,0.0,0.0,0.0,0.0,0.0,0.0,0.0,0.0,0.0,1.0463,1.0944,1.133,1.1737,1.164,0.0,0.0,0.0,0.0,0.0,0.0,1.5133,1.5941,1.7122,1.8788,1.9134,1.9732,2.0671,2.131,2.178,2.2031,2.2521,2.2928,2.3274,2.3274,2.3371,2.3493,2.3493,2.3389,2.3075,2.0501,1.9286,1.8972,1.8144,1.778,1.7734,1.821,1.821,1.8135,1.9754,2.0046,1.9641,1.909,0.0,1.8049,1.6702,0.0,0.0,0.0,0.0,1.8752,1.9561,2.0131,2.0685,2.1389,2.1417,2.1316,2.1517,2.1232,2.0061,0.0,1.6566,1.6014,1.4076,0.0,0.0,0.0,0.0,1.88,2.034,2.1001,2.1309,2.1309,2.1309,2.1309,2.1309,2.1309,2.1309,2.1309,2.0839,2.024,1.9495,1.8317,1.6843,1.497,0.0,0.0,0.0,0.0,0.0,0.0,0.0,0.0,0.0,0.0,0.0,0.0,0.0,0.0,0.0,0.0,0.0,0.0,0.0,0.0,0.0,0.0,0.0,0.0,0.0,0.0,0.0,0.0,0.0,1.3556,1.3629,0.0,0.0,0.0,0.0,1.3983,1.4683,1.5931,1.7807,1.7973,1.8864,2.079,2.0877,2.1392,2.2444,2.2522,2.2729,2.3122,2.3157,2.358,2.4327,2.4327,2.4594,2.508,2.508,2.508,2.4878,2.2262,2.1044,2.0757,1.9723,1.9296,1.9269,1.9163,1.956,2.0159,2.0256,2.0694,2.1195,2.1132,2.0104,1.902,1.9777,1.899,0.0,0.0,2.1067,2.1439,2.2896,2.3284,2.3317,2.3349,2.3365,2.3365,2.3365,2.3157,2.2188,0.0,1.8956,1.8416,1.7102,0.0,1.747,1.8485,1.876,1.942,2.1051,2.1261,2.1309,2.1309,2.1309,2.1309,2.1309,2.1309,2.1309,2.1309,2.1293,2.0953,2.0273,2.0175,1.8968,1.6443,1.5049,0.0,0.0,0.0,0.0,0.0,0.0,0.0,0.0,0.0,0.0,0.0,0.0,0.0,0.0,0.0,0.0,0.0,0.0,0.0,0.0,0.0,0.0,0.0,0.0,0.0,0.0,0.0,0.0,1.5123,1.6023,0.0,0.0,1.5744,1.6223,1.6486,1.7686,1.876,1.9528,2.016,2.1138,2.2553,2.2737,2.3342,2.4471,2.4601,2.4721,2.4882,2.4882,2.5024,2.5308,2.5308,2.5425,2.5596,2.5596,2.5596,2.5482,2.4445,2.3831,2.3522,2.3153,2.2852,2.2605,2.2575,2.2514,2.2476,2.2476,2.259,2.2701,2.2701,2.2328,2.1924,2.2264,2.194,2.1682,2.2491,2.2701,2.2831,2.3367,2.3513,2.3513,2.3513,2.3513,2.3513,2.3513,2.3409,2.3079,2.2191,2.1537,2.091,2.02,2.0485,2.0887,2.1087,2.1553,2.2053,2.2637,2.2701,2.2523,2.2054,2.2005,2.1827,2.1326,2.1309,2.1309,2.1309,2.1309,2.1195,2.0969,2.0532,1.9514,1.7838,1.603,1.4045,0.0,0.0,0.0,0.0,0.0,0.0,0.0,0.0,0.0,0.0,0.0,0.0,0.0,0.0,0.0,0.0,0.0,0.0,0.0,0.0,0.0,0.0,0.0,0.0,0.0,0.0,1.5526,1.6572,1.7747,1.8141,1.7299,1.8047,1.8591,1.8672,1.9871,2.0701,2.0933,2.1777,2.2677,2.3545,2.4012,2.4669,2.5491,2.5699,2.58,2.58,2.58,2.5943,2.6193,2.6193,2.6354,2.6621,2.6621,2.6621,2.6595,2.6473,2.6284,2.5991,2.527,2.4832,2.4594,2.4533,2.4286,2.3918,2.3836,2.3736,2.3651,2.36,2.3565,2.3565,2.3497,2.3513,2.3562,2.3789,2.3854,2.3867,2.4126,2.4207,2.4207,2.4207,2.4207,2.4207,2.4207,2.4207,2.4207,2.4207,2.3383,2.2602,2.2353,2.2706,2.2971,2.2797,2.3205,2.3513,2.3513,2.3513,2.3318,2.2815,2.2539,2.2199,2.1714,2.1455,2.1309,2.1309,2.1309,2.1309,2.1309,2.0553,1.9649,1.8513,1.6274,1.4474,1.3154,0.0,0.0,0.0,0.0,0.0,0.0,0.0,0.0,0.0,0.0,0.0,0.0,0.0,0.0,0.0,0.0,0.0,0.0,0.0,0.0,0.0,0.0,0.0,1.4428,1.5447,1.6613,1.8006,1.8827,1.8961,1.8195,1.9344,2.024,2.043,2.1057,2.1617,2.2032,2.2815,2.3414,2.3762,2.4722,2.5345,2.5552,2.5762,2.589,2.5872,2.5872,2.6282,2.7032,2.7032,2.746,2.8182,2.8182,2.8182,2.8182,2.8182,2.8182,2.7994,2.5893,2.5103,2.5074,2.4947,2.4709,2.4433,2.4179,2.4082,2.4033,2.3835,2.3768,2.3734,2.3612,2.3578,2.3724,2.4337,2.4515,2.4693,2.5422,2.5616,2.5616,2.5616,2.5616,2.5616,2.5616,2.5616,2.5616,2.5616,2.4499,2.3578,2.3578,2.3578,2.3578,2.3578,2.3578,0.0,2.3578,2.3578,2.3578,2.3545,2.2879,2.2442,2.2394,2.1762,2.131,2.1309,2.1309,2.1309,2.1309,2.0414,1.9481,1.8545,1.5858,1.4441,1.4427,0.0,0.0,0.0,0.0,0.0,0.0,0.0,0.0,0.0,0.0,0.0,0.0,0.0,0.0,0.0,0.0,0.0,0.0,0.0,0.0,0.0,0.0,1.5627,1.5278,1.7001,1.8692,1.9731,2.0582,2.0986,2.0788,2.1105,2.1394,2.1537,2.2269,2.2792,2.3013,2.3722,2.4533,2.5352,2.5635,2.6219,2.7155,2.724,2.7351,2.7522,2.7522,2.7674,2.7888,2.7888,2.7986,2.8182,2.8182,2.8182,2.8182,2.8182,2.8182,2.8146,2.7546,2.7183,2.7023,2.6994,2.6619,2.6098,2.5883,2.5731,2.5592,2.5522,2.5522,2.5487,2.5307,2.5236,2.5232,2.5297,2.5308,2.5341,2.5567,2.5616,2.5616,2.5616,2.5616,2.5616,2.5616,2.5616,2.5616,2.5616,2.5292,2.5033,2.5033,2.5033,2.5033,2.5033,2.5033,0.0,2.5033,2.5033,2.4822,2.4272,2.4029,2.3495,2.2491,2.2216,2.1876,0.0,2.1309,2.1309,2.1309,2.0847,2.0002,1.8735,1.6764,1.5471,0.0,0.0,0.0,0.0,0.0,0.0,0.0,0.0,0.0,0.0,0.0,0.0,0.0,0.0,0.0,0.0,0.0,0.0,0.0,0.0,0.0,0.0,1.6152,1.7701,1.7572,1.887,2.0143,2.094,2.1474,2.1811,2.1899,2.2199,2.2441,2.2572,2.3308,2.3776,2.3849,2.4543,2.5215,2.5814,2.6233,2.6813,2.7504,2.7612,2.7748,2.7929,2.7929,2.794,2.8025,2.8025,2.8081,0.0,2.8182,2.8182,2.8182,2.8182,2.8182,0.0,0.0,0.0,0.0,0.0,2.7504,2.7053,2.6824,2.6809,2.6868,2.6797,2.6995,2.7191,2.7007,2.6911,2.6814,2.6661,2.6584,2.649,2.649,2.649,2.649,2.649,2.649,2.6409,2.6134,2.6069,2.5988,2.5681,0.0,0.0,2.5616,2.5616,2.5616,2.5616,2.5616,2.5616,2.5616,2.5616,2.5454,2.5017,2.4677,2.4159,2.3333,2.2734,0.0,0.0,0.0,2.1085,2.0575,2.04,0.0,0.0,0.0,0.0,0.0,0.0,0.0,0.0,1.4065,1.3233,0.0,0.0,0.0,0.0,0.0,0.0,0.0,0.0,0.0,0.0,0.0,0.0,0.0,0.0,0.0,0.0,1.7786,1.9613,2.0443,2.0841,2.1209,2.1744,2.1923,2.2032,2.2161,2.2865,2.3379,2.3528,2.4205,2.4611,2.4611,0.0,0.0,0.0,0.0,2.7053,2.7103,2.7324,2.7465,2.7496,2.7496,2.76,2.776,2.7789,2.7975,2.8279,2.8235,2.8235,2.8324,2.8324,2.836,2.8431,2.836,2.8378,2.8449,2.8198,2.7982,2.7788,2.7489,0.0,0.0,2.7799,2.8216,2.8716,2.8493,2.8279,2.8115,2.8115,2.7899,2.7705,2.7705,2.7705,2.7705,2.7705,2.7705,2.7543,2.6944,2.6749,2.6506,2.5859,2.5681,2.5616,2.5616,2.5616,2.5616,2.5616,2.5616,2.5616,2.5616,2.5616,2.5616,2.5616,0.0,0.0,2.4499,2.3349,2.2604,2.2523,2.1843,2.0911,1.9781,1.9655,1.9348,1.8787,1.8673,1.8804,1.9165,1.9085,1.918,1.9376,1.5424,1.4149,0.0,0.0,0.0,0.0,0.0,0.0,0.0,0.0,0.0,0.0,0.0,0.0,0.0,0.0,0.0,1.8182,1.9406,2.0533,2.1549,2.2375,2.2651,2.202,2.2639,2.3114,2.3144,2.3819,2.4272,2.4272,2.4966,2.5389,2.5389,2.6082,0.0,2.6488,2.669,2.6891,2.7103,2.7166,2.7293,2.7496,0.0,0.0,2.7569,2.773,2.82,2.8824,2.8393,2.8584,2.9173,2.9173,2.953,3.0011,2.9405,2.953,3.0036,3.0006,2.9857,2.9642,2.9373,2.9212,2.9058,2.8827,2.882,2.8901,2.8716,2.8455,0.0,2.8139,2.7899,2.7705,2.7705,2.7705,2.7705,2.7705,2.7705,2.7672,2.7543,2.7089,2.6652,2.6506,2.6021,2.5616,2.5616,2.5616,2.5616,2.5616,2.5616,2.5616,2.5616,2.5616,2.5616,2.5616,2.5486,2.5146,2.4547,2.424,2.3851,2.3335,2.2588,2.1888,2.1221,2.0621,1.9986,1.9258,1.9775,1.9856,1.9581,2.0069,2.0133,1.9747,1.8358,1.8126,0.0,0.0,0.0,0.0,0.0,0.0,0.0,0.0,0.0,0.0,0.0,1.4359,0.0,0.0,1.8553,1.9634,2.0664,2.1709,2.2756,2.3397,2.35,2.2794,2.3448,2.3934,2.3934,2.4611,2.505,2.505,2.5727,2.615,2.615,2.6488,2.6691,2.6691,2.7063,2.7318,2.747,2.7845,2.8118,2.8253,2.8253,2.8302,2.8384,2.8496,2.8833,2.9327,2.9084,2.9167,2.9568,2.9568,3.0008,3.0642,3.029,3.0287,3.0511,3.0511,3.0361,3.0162,2.9892,2.9868,2.9899,2.9644,2.9786,3.0053,2.9861,2.9593,2.9376,2.9206,2.8958,2.879,2.879,2.879,2.879,2.879,2.879,2.8692,2.832,2.798,2.764,2.7267,2.6911,2.6668,2.6668,2.6668,2.6426,2.5729,2.5616,2.5616,2.5616,2.5616,2.5616,2.5616,2.5616,2.5454,2.5082,2.4709,2.4191,2.3545,2.3139,2.2689,2.2108,2.1744,2.1234,2.054,2.0867,2.0818,2.0347,2.0693,2.0756,2.0587,2.0573,2.023,0.0,0.0,0.0,0.0,0.0,0.0,0.0,0.0,1.3231,1.4139,1.5442,1.6637,1.7424,1.9162,2.0538,2.0739,2.1793,2.2884,2.3736,2.4247,2.441,2.404,2.4492,2.4819,2.4726,2.5452,2.5876,2.5828,2.6353,2.6691,2.6691,2.6691,2.6759,2.6911,2.7503,2.7857,2.8044,2.867,2.9011,2.9011,2.9011,2.9066,2.9246,2.9264,2.9489,2.985,2.9917,2.9917,2.9917,2.9917,3.0403,3.1098,3.1098,3.0968,3.0805,3.0866,3.0792,3.0621,3.0328,3.0456,3.0671,3.0408,3.0717,3.1151,3.0952,3.0692,3.0485,3.0274,3.0076,2.9918,2.9918,2.9918,2.9918,2.9918,2.9918,2.9756,2.913,2.8887,2.8611,2.8029,2.7802,2.7705,2.7705,2.7705,2.7316,2.6199,2.6021,2.5972,2.5843,2.5826,2.5778,2.5632,2.5616,2.5616,2.5616,2.5065,2.4466,2.3932,2.3789,2.341,2.2811,2.2611,2.2248,2.164,2.1694,2.1536,2.1108,2.1354,2.1556,2.1682,2.2255,2.1666,1.2671,1.2266,0.0,1.2524,1.2596,1.3228,0.0,0.0,1.5826,1.7273,1.8268,1.9044,1.9497,2.055,2.154,2.2001,2.2952,2.3722,2.4023,2.5251,2.6121,2.6063,2.6132,2.5988,2.5505,2.6377,2.6836,2.6606,2.664,2.6691,2.6691,2.6691,2.6996,2.7637,2.7739,2.8146,2.8839,2.8941,2.9011,2.9011,2.9011,2.9011,2.9047,2.9211,2.9712,3.0418,3.0647,3.0768,3.0768,3.0768,3.122,3.1881,3.1881,3.1864,3.1847,3.2174,3.2258,3.2191,3.1882,3.165,3.1422,3.1172,3.1123,3.1151,3.0952,3.0692,3.0485,3.0274,3.0076,2.9918,2.9918,2.9918,2.9918,2.9918,2.9918,2.9902,2.9805,2.9243,2.8757,2.8676,2.8158,2.7705,2.7705,2.7705,2.7656,2.7494,2.7478,2.7251,2.6652,2.6571,2.6328,2.5681,2.5616,2.5616,2.5616,2.5535,2.5454,2.5389,2.4742,2.4099,2.3521,2.2716,2.1972,2.1344,2.1695,2.1758,2.1526,2.2686,2.3117,2.2901,2.3611,2.3477,1.5053,0.0,0.0,0.0,1.5514,1.6256,1.6978,1.7471,1.7991,1.8765,1.9624,2.0384,2.0852,2.1499,2.2225,0.0,2.3709,2.448,2.5499,2.6267,2.6717,2.6584,2.7084,2.7186,2.6527,2.685,2.6989,2.6725,2.6691,2.6691,2.6691,2.7114,2.7503,2.7772,2.8687,2.9313,2.9634,3.0057,3.0277,3.0277,3.0277,3.0277,3.026,3.0357,3.0602,3.0891,3.1022,3.1079,3.1079,3.1079,3.1268,3.1524,3.1524,3.1637,3.1804,3.2091,3.2214,3.2179,3.1877,3.1674,3.1542,3.1308,3.1112,3.0992,3.0733,3.0526,3.0274,3.0076,2.9946,2.9918,2.9918,2.9918,2.9918,2.9918,2.9918,2.9918,2.9918,2.9675,2.9464,2.9464,2.9178,2.8968,2.8968,2.8968,2.8968,2.8968,2.8255,2.7608,2.7316,2.7284,2.717,2.6863,2.683,2.683,2.683,2.683,2.683,2.683,2.6539,2.5838,2.4647,2.423,2.3622,2.279,2.2918,2.31,2.3207,2.3783,2.3893,2.3674,2.4357,2.4446,1.6456,0.0,0.0,1.6858,1.7807,1.8638,1.8138,1.8921,1.9829,2.0114,2.0717,2.1368,2.1845,2.2258,0.0,2.3813,2.4418,2.5242,2.6597,2.6899,2.6943,2.6817,2.7228,2.7402,2.7026,2.7155,2.7149,2.6825,2.6791,2.686,2.6996,2.752,2.7975,2.8397,2.9533,3.0209,3.0395,3.092,3.119,3.119,3.119,3.119,3.119,3.119,3.119,3.119,3.119,3.119,3.119,3.119,3.119,3.119,3.119,3.1329,3.1504,3.1694,3.1841,3.1877,3.1691,3.1542,3.1483,3.1269,3.1072,3.0871,3.0568,3.0359,3.0162,2.9962,2.9918,2.9918,2.9918,2.9918,2.9918,2.9918,2.9814,2.9726,2.9726,2.9726,2.9726,2.9726,2.9814,2.9918,2.9918,2.9918,2.9918,2.9918,2.8968,2.8223,2.8029,2.7834,2.7705,2.7705,2.7705,2.7705,2.7705,2.7639,2.7557,2.7557,2.7458,2.6825,2.5492,2.5329,2.4867,2.3966,2.3918,2.4018,2.4341,2.4461,2.4495,2.4385,2.4952,2.5233,0.0,0.0,1.7733,1.7609,1.8528,1.9515,1.9765,2.051,2.1291,2.1731,2.1936,2.2164,2.2512,2.2807,2.328,2.4232,2.5176,2.605,2.6871,2.6996,2.6996,2.6996,2.6336,2.609,0.0,2.7366,2.7582,2.7117,2.7103,2.7281,2.774,2.7772,2.8501,2.9989,3.0091,3.0446,3.1157,3.119,3.119,3.119,3.119,3.119,3.119,3.119,3.119,3.119,3.119,3.119,3.119,3.119,3.119,3.119,3.119,3.119,3.123,3.123,3.1406,3.1617,3.1617,3.1445,3.119,3.119,3.1072,3.0871,3.0568,3.0359,3.0162,2.9962,2.9918,2.9918,2.9918,2.9918,2.9918,2.9918,2.9576,2.9305,2.9305,2.9305,2.9305,2.9305,2.9637,2.9918,2.9918,2.9918,2.9918,2.9918,2.987,2.9594,2.8854,2.8142,2.7705,2.7705,2.7705,2.7705,2.7705,2.739,2.7211,2.7211,2.6863,2.6348,2.5726,2.5416,2.4989,2.4397,2.4176,2.4089,2.4118,2.4709,2.5005,2.4966,2.5584,2.5865,0.0,0.0,1.946,1.9402,2.0152,2.0936,2.1193,2.1523,2.1924,2.2286,2.2395,2.2529,2.2943,2.306,2.3605,2.5088,2.559,2.6282,2.762,2.7817,2.7603,2.7049,2.7228,0.0,0.0,0.0,0.0,2.7352,2.7663,2.7894,2.8049,2.8861,2.9567,3.0091,3.0581,3.0954,3.119,3.119,3.119,3.119,3.119,3.119,3.119,3.119,3.119,3.119,3.119,3.119,3.119,3.119,3.119,3.119,3.119,3.119,3.119,3.119,3.1269,3.1329,3.1329,3.1269,3.119,3.119,3.1072,3.0871,3.0568,3.0359,3.0162,2.9962,2.9918,2.9918,2.9918,2.9726,2.9486,2.9486,2.9182,2.8889,2.8889,2.8889,2.8889,2.8889,2.9028,2.9074,2.9074,2.9335,2.9576,2.9858,2.9918,2.9821,2.9578,2.9292,2.9146,2.9146,2.8914,2.8766,2.8766,2.8395,2.8213,2.8213,2.7922,2.7286,2.6213,2.5908,2.5479,2.4812,2.4723,2.4868,2.5275,2.5486,2.5584,2.5598,2.6217,2.6512,0.0,1.9605,2.0443,2.0703,2.1289,2.1811,2.194,2.2124,2.2385,2.2686,2.2781,2.2925,2.3247,2.3313,2.3856,2.5526,2.58,2.6371,2.7968,2.7959,2.7585,2.7049,2.721,0.0,0.0,0.0,0.0,2.7577,2.8066,2.8422,2.8579,2.9561,3.0226,3.048,3.0954,3.119,3.119,3.119,3.119,3.119,3.119,3.119,3.119,3.119,3.119,3.119,3.1112,3.1072,3.1072,3.0975,3.0935,3.0935,3.0935,3.1032,3.1072,3.1072,3.1151,3.119,3.119,3.119,3.119,3.1112,3.0952,3.0692,3.0485,3.0231,3.0076,2.9962,2.9918,2.9874,2.9726,2.9486,2.9243,2.909,2.8811,2.8527,2.8527,2.8527,2.8527,2.8527,2.8606,2.8685,2.8685,2.8889,2.9182,2.9425,2.947,2.9576,2.9858,2.977,2.9681,2.9681,2.9335,2.909,2.909,2.8764,2.8527,2.8527,2.8125,2.7485,2.6553,2.6236,2.5839,2.5303,2.5303,2.55,2.5893,2.6118,2.6217,2.6245,2.6863,2.7158,1.9958,2.0453,2.0734,2.1439,2.1899,2.2124,2.2136,2.2395,2.2695,2.2915,2.3056,2.3194,0.0,0.0,2.3945,2.5497,2.5783,2.6371,2.7968,2.7549,2.7049,0.0,0.0,0.0,0.0,0.0,0.0,2.7818,0.0,2.8845,2.93,2.985,3.048,3.1173,3.119,3.119,3.119,3.119,3.119,3.119,3.119,3.119,3.119,3.119,3.119,3.119,3.0952,3.0871,3.0871,3.0609,3.0526,3.0526,3.0526,3.0651,3.0871,3.0912,3.1032,3.119,3.119,3.119,3.1151,3.0992,3.0733,3.0468,3.0274,3.0076,2.9902,2.9918,2.9874,2.977,2.9396,2.9259,2.9152,2.8748,2.8446,2.8186,2.8186,2.8186,2.8186,2.8186,2.8431,2.8638,2.8685,2.8685,2.8685,2.8685,2.8685,2.8982,2.9726,2.9486,2.9259,2.9259,2.8889,2.8685,2.8685,2.835,2.8186,2.8137,2.7524,2.7011,2.6683,2.6404,2.6136,2.5893,2.5921,2.595,2.595,2.6554,2.6863,2.6877,2.7523,2.7804,2.0188,2.1073,2.1735,2.1919,2.222,2.2529,2.2721,2.2917,2.2933,2.2579,2.25,2.2367,0.0,0.0,0.0,2.473,2.5444,0.0,2.7968,2.8031,0.0,0.0,0.0,2.7674,2.7888,2.7906,0.0,0.0,2.9123,2.945,2.9591,3.0455,3.1004,3.119,3.119,3.119,3.119,3.119,3.119,3.119,3.119,3.119,3.119,3.1032,3.0992,3.0952,3.0692,3.0609,3.0609,3.0526,3.0526,3.0526,3.0526,3.0526,3.0609,3.0831,3.0912,3.0992,3.1151,3.119,3.119,3.1151,3.0992,3.0733,3.0485,3.0274,3.0076,2.9946,2.9681,2.9441,2.935,2.8889,2.8462,2.8365,2.8024,2.7775,2.7775,2.7775,2.7775,2.7775,2.781,2.7959,2.8268,2.8317,2.8398,2.8638,2.8685,2.8779,2.8982,2.8935,2.8842,2.8842,2.8542,2.8317,2.8317,2.7959,2.7675,2.7488,2.7049,2.6683,2.6404,2.6136,2.5988,2.5893,2.6343,2.6582,2.6582,2.7228,2.7537,2.7551,2.8169,2.8212,2.1133,2.1832,2.2313,2.2313,2.2599,2.2813,2.2621,2.2694,2.2597,2.1907,2.1768,0.0,0.0,0.0,0.0,0.0,0.0,0.0,2.7388,2.7923,2.8182,0.0,2.8182,0.0,2.8182,2.8182,2.8401,0.0,2.942,2.9781,2.9989,3.0759,3.119,3.119,3.119,3.119,3.119,3.119,3.119,3.119,3.119,3.1151,3.1072,3.0952,3.0831,3.0692,0.0,3.0359,3.0359,3.0274,3.0231,3.0231,3.0231,3.0274,3.0401,3.0526,3.0651,3.0733,3.0675,3.0757,3.0895,3.0895,3.0773,3.0526,3.0316,3.0017,2.9798,2.9681,2.9335,2.8997,2.8889,2.851,2.8137,2.7974,2.7775,2.7625,2.7625,2.7625,2.7625,2.7625,2.7625,2.7675,2.7875,2.7925,2.8024,2.8174,2.8222,2.8222,2.8222,2.8383,2.8479,2.8479,2.8155,2.7925,2.7925,2.7625,2.7372,2.7233,2.6788,2.6457,2.6283,2.6311,2.6287,2.6287,2.6919,2.7228,2.7242,2.7874,2.8169,2.8183,2.8535,2.8507,2.2287,2.2556,2.2686,2.2686,2.2968,2.3029,2.2217,2.2158,2.2036,2.1144,0.0,0.0,2.0802,0.0,2.2305,2.2935,0.0,2.5885,2.6613,2.7439,2.8047,2.8136,2.8126,2.8099,2.8099,2.8099,2.8351,2.8912,2.9358,2.9886,3.0362,3.0904,3.119,3.119,3.119,3.119,3.119,3.119,3.119,3.119,3.119,3.1072,3.0912,3.0871,3.0692,3.0443,0.0,0.0,3.0162,2.9946,2.9918,2.9918,2.9918,2.9989,3.0146,3.0189,3.0316,3.0426,3.0156,3.0199,3.0384,3.0426,3.03,3.0103,2.9989,2.9621,2.9243,2.9289,2.8997,2.8559,2.8268,2.8137,2.8039,2.7675,2.7625,2.7625,2.7625,2.7625,2.7625,2.7625,2.7685,2.7709,2.7709,2.7709,2.7709,2.7709,2.7709,2.7709,2.7643,2.8011,2.8274,2.8274,2.8037,2.7829,2.7778,2.7587,2.7432,2.7328,2.6823,2.654,2.6486,2.675,2.6933,2.6933,2.7565,2.7902,2.7902,2.8422,2.8689,2.8689,2.8545,2.8503,2.253,2.2824,2.3102,2.3102,2.3271,2.3234,2.242,2.2264,0.0,0.0,0.0,1.975,1.9151,2.0177,0.0,2.1943,0.0,0.0,0.0,0.0,2.7176,0.0,0.0,0.0,0.0,0.0,0.0,0.0,0.0,2.966,3.0362,3.0904,3.119,3.119,3.119,3.119,3.119,3.119,3.119,3.119,3.119,3.1072,3.0912,3.0692,3.0443,3.0231,3.0033,0.0,2.9946,2.9902,2.9918,2.9918,2.9918,2.9902,2.9946,3.0162,3.0231,3.0274,3.0401,3.0113,2.981,3.0027,2.9897,2.9766,3.006,2.9499,2.8889,2.9198,2.8826,2.8268,2.8235,2.7925,2.7675,2.7625,2.7625,2.7625,2.7625,2.7625,2.7625,2.7625,2.8038,2.8427,2.8427,2.8427,2.8427,2.8427,2.8427,2.8308,2.8068,2.8308,2.8531,2.8531,2.8959,2.9113,2.8867,2.8828,2.8539,2.8052,2.7925,2.7769,2.7554,2.7609,2.7607,2.7607,2.8226,2.8535,2.8535,2.8647,2.8689,2.8675,2.7783,2.7354,2.3074,2.3206,2.336,2.336,2.3448,2.3195,2.1946,0.0,0.0,0.0,0.0,1.9004,1.8518,0.0,0.0,0.0,0.0,0.0,0.0,0.0,0.0,0.0,0.0,0.0,0.0,0.0,0.0,0.0,0.0,2.9742,3.0738,3.1065,3.119,3.119,3.119,3.119,3.119,3.119,3.119,3.119,3.119,3.1032,3.0692,3.0568,3.0316,3.0033,2.9946,0.0,2.9918,2.9918,2.9918,2.9918,2.9918,2.9918,2.9902,2.9754,2.9842,2.9973,2.9499,2.9364,2.9409,2.9136,2.9074,2.9166,2.9348,2.8982,2.8494,2.8685,2.8301,2.7875,2.7875,2.7725,2.7625,2.7625,2.7844,2.8203,2.8599,2.8622,2.8622,2.8622,2.8891,2.9116,2.9116,2.8994,2.8872,2.8872,2.8462,2.8117,2.7936,2.8407,2.8662,2.859,2.888,2.9016,2.8834,2.8708,2.8482,2.8197,2.8096,2.7937,2.7834,2.8085,2.812,2.7866,2.8414,2.8432,2.7927,2.8112,2.8126,2.7913,2.7297,2.723,2.3522,2.3494,2.3494,2.3448,2.3471,2.3066,2.1465,2.1087,0.0,0.0,0.0,0.0,1.8208,0.0,0.0,0.0,0.0,0.0,0.0,0.0,0.0,0.0,0.0,0.0,0.0,0.0,0.0,0.0,0.0,0.0,3.1123,3.119,3.119,3.119,3.119,3.119,3.119,3.119,3.119,3.119,3.119,3.0935,3.0526,3.0526,3.0231,2.977,2.977,0.0,0.0,2.9726,2.977,2.977,2.9874,2.9918,2.9858,2.9441,2.9441,2.9531,2.8542,2.8494,2.8764,2.8204,2.8286,2.8606,2.8685,2.8431,2.8088,2.8186,2.7925,2.7625,2.7625,2.7625,2.7655,2.7754,2.8256,2.8883,2.946,2.9579,2.9579,2.9579,2.9684,2.9774,2.9734,2.95,2.9263,2.9207,2.8541,2.7992,2.7947,2.8408,2.8679,2.8464,2.8785,2.903,2.8915,2.8727,2.8553,2.8363,2.8141,2.7977,2.7857,2.8191,2.8174,2.7775,2.8049,2.7865,2.7223,2.7385,2.7412,2.7147,2.6929,2.7153,2.3458,2.3453,2.3471,2.3265,2.336,2.3066,2.1465,0.0,0.0,0.0,1.818,1.7927,1.7777,0.0,0.0,0.0,0.0,0.0,0.0,0.0,0.0,0.0,0.0,0.0,0.0,0.0,0.0,0.0,0.0,0.0,3.119,3.119,3.119,3.119,3.119,3.119,3.119,3.119,3.119,3.119,3.119,3.0935,3.0526,3.0526,3.0087,2.935,2.935,0.0,0.0,2.9198,2.935,2.9396,2.977,2.9918,2.9858,2.9441,2.9152,2.8904,2.8448,2.7947,2.7485,2.7399,2.778,2.8317,2.8606,2.8222,2.7725,2.8088,2.7925,2.7625,2.7625,2.7625,2.7724,2.8353,2.8782,2.9148,2.951,2.9579,2.9579,2.9579,3.0028,3.0321,3.0083,3.0026,2.9897,2.9595,2.907,2.8581,2.8293,2.8436,2.841,2.8061,2.9454,3.0288,3.0001,2.994,2.9619,2.8766,2.8702,2.8511,2.8009,2.7554,2.7287,2.7287,2.6827,2.6827,2.7223,2.6711,2.6663,2.711,2.6595,2.6634,2.3361,2.3453,2.3448,2.3241,2.3336,2.3066,2.1465,0.0,0.0,1.8682,1.81,1.7816,1.7509,1.7647,0.0,0.0,0.0,0.0,0.0,0.0,0.0,0.0,0.0,0.0,0.0,0.0,0.0,0.0,0.0,0.0,3.119,3.119,3.119,3.119,3.119,3.119,3.119,3.119,3.119,3.119,3.119,3.0935,3.0526,3.0526,3.0172,2.9681,2.9681,0.0,0.0,2.9243,2.9044,2.8748,2.9028,2.8982,2.8685,2.8415,2.8319,2.8207,2.7565,2.7297,2.7246,2.7019,2.7086,2.7357,2.7695,2.7695,2.7625,2.7775,2.7625,2.7372,2.7372,2.7275,2.7339,2.803,2.8312,2.8753,2.9799,2.9842,2.9857,3.0334,3.0541,3.0412,2.9997,2.9757,2.944,2.9044,2.8343,2.7769,2.7653,2.7657,2.767,2.7564,2.8725,2.931,2.8881,2.9135,2.9008,2.8352,2.8015,2.7763,2.752,2.701,2.6578,2.6251,2.629,2.6166,2.5769,2.6104,2.6409,2.6719,2.6773,2.7306,2.2825,2.3188,2.336,2.3199,2.3136,2.2736,0.0,0.0,1.9983,1.8485,1.791,1.7555,1.7199,1.7002,1.7287,0.0,0.0,0.0,0.0,0.0,0.0,0.0,0.0,0.0,0.0,0.0,0.0,0.0,0.0,0.0,0.0,3.119,3.119,3.119,3.119,3.119,3.119,3.1151,3.1112,3.1112,3.1032,3.0733,3.0241,3.0241,2.9913,2.9396,0.0,0.0,0.0,2.892,2.8685,2.8271,2.8496,2.8352,2.7997,2.7665,2.7615,2.7515,2.6811,2.6707,2.6849,2.6563,2.6525,2.6616,2.6841,2.7218,2.7473,2.7473,2.7417,2.7305,2.7132,2.7224,2.7425,2.7846,2.8047,2.8553,2.9864,2.9979,2.9993,3.0732,3.0613,3.019,2.9747,2.9296,2.8903,2.8441,2.767,2.7229,2.7229,2.694,2.6716,2.6716,2.7551,2.8018,2.7773,2.7934,2.7826,2.7313,2.6942,2.6654,2.6463,2.6146,2.5735,2.5358,2.5673,2.5665,2.531,2.5936,2.6515,2.6954,2.7443,2.81,2.1784,2.2553,2.3193,2.3133,2.26,2.195,0.0,2.011,1.8972,1.808,1.7486,1.7027,1.6747,1.6528,1.6643,0.0,0.0,0.0,0.0,0.0,0.0,0.0,0.0,0.0,0.0,0.0,0.0,0.0,0.0,0.0,0.0,3.119,3.119,3.119,3.119,3.119,3.119,3.0992,3.0912,3.0912,3.0651,3.0199,2.9633,2.9633,2.909,0.0,0.0,0.0,0.0,2.8039,2.8186,2.8235,2.8271,2.8288,2.8192,2.755,2.7144,2.6849,2.6443,2.6136,2.5893,2.5893,2.6096,2.6283,2.6283,2.6736,2.7218,2.7218,2.7442,2.7599,2.7045,2.7561,2.8241,2.803,2.8234,2.8748,2.9608,2.9808,2.9931,3.0507,3.019,2.9685,2.9373,2.8826,2.8376,2.8026,2.7564,2.7229,2.7229,2.6273,2.5598,2.5598,2.6127,2.6648,2.7173,2.6716,2.6184,2.5673,2.561,2.537,2.4833,2.482,2.482,2.482,2.482,2.536,2.6508,2.6508,2.7005,2.8109,2.8649,2.8973,2.0143,2.0863,2.1325,2.0558,2.0761,2.0933,2.0062,1.8987,1.789,1.6942,1.6312,1.5839,1.5531,1.5521,1.5921,1.7052,0.0,0.0,0.0,0.0,0.0,0.0,0.0,0.0,0.0,0.0,0.0,0.0,0.0,0.0,0.0,2.961,2.9922,3.0429,3.0937,3.0858,3.0163,3.0644,3.0692,3.0284,3.0199,2.9837,2.9257,2.9257,0.0,0.0,0.0,0.0,0.0,2.8137,2.776,2.7188,2.7444,2.7174,2.6654,2.664,2.6443,2.619,2.6096,2.5988,2.5893,2.5893,2.5948,2.6042,2.6244,2.6563,2.6943,2.7151,2.7302,2.7284,2.7009,2.725,2.7337,2.6942,2.7,2.7484,2.8634,2.8712,2.8931,3.0036,2.9637,2.898,2.8481,2.7947,2.7353,2.6501,2.6184,2.5991,2.5635,2.5605,2.5598,2.5598,2.5731,2.5777,2.5614,2.6077,2.6025,2.5077,2.5065,2.5,2.482,2.482,2.482,2.482,2.5561,2.6113,2.6533,2.7218,2.7813,2.8237,2.8781,2.8736,0.0,1.949,1.9999,1.9566,1.9675,1.9636,1.866,1.7499,1.6359,1.5358,1.481,1.4444,1.4195,1.4398,1.487,1.5592,0.0,0.0,0.0,0.0,0.0,0.0,0.0,0.0,0.0,0.0,0.0,0.0,0.0,0.0,0.0,2.8864,2.8912,2.8967,2.982,3.0106,2.9677,2.9904,2.9978,2.9853,2.9601,2.9257,2.8764,2.8764,0.0,0.0,0.0,0.0,0.0,2.7675,2.7255,2.6736,2.6841,2.6525,2.6042,2.6136,2.6042,2.5893,2.5893,2.5893,2.5893,2.5893,2.5893,2.5948,2.6096,2.6351,2.664,2.7095,2.7159,2.7097,2.7067,2.7117,2.704,2.6514,2.646,2.6782,2.7802,2.7881,2.8026,2.9071,2.8739,2.8011,2.7472,2.6972,2.6327,2.5451,2.531,2.5184,2.4858,2.5109,2.531,2.531,2.5473,2.5385,2.487,2.5434,2.5485,2.4845,2.482,2.482,2.482,2.5222,2.5435,2.5435,2.6515,2.718,2.7394,2.8298,2.8762,2.8882,2.9061,2.8816,0.0,1.8167,1.8926,1.9481,1.8891,1.7922,1.6928,1.5627,0.0,1.3416,1.3037,1.2889,1.2813,1.3234,1.3572,0.0,0.0,0.0,0.0,0.0,0.0,0.0,0.0,0.0,0.0,0.0,0.0,0.0,0.0,0.0,0.0,2.8622,2.8065,2.7015,2.7956,2.877,2.9432,2.886,2.8865,2.9419,2.8904,2.8463,2.8137,2.8073,0.0,0.0,0.0,0.0,0.0,2.6841,2.6683,2.6669,2.6404,2.6283,2.6244,2.5988,2.5893,2.5893,2.5893,2.5893,2.5839,2.5839,2.5839,2.5839,2.5839,2.6042,2.6372,2.6987,2.7083,2.7039,2.7067,2.7171,2.7095,2.6589,2.6533,2.6658,2.7095,2.7229,2.7364,2.7908,2.7537,2.6997,2.6479,2.5892,2.536,2.4845,2.4757,2.4757,2.4757,2.4795,2.4833,2.487,2.5347,2.5473,2.5034,2.4921,2.4858,2.482,2.4895,2.4946,2.4946,2.5988,2.6647,2.6647,2.762,2.8436,2.8988,2.9528,2.9792,2.9714,2.93,2.9052,1.3978,0.0,1.5835,1.4957,1.4931,1.4908,0.0,1.3001,0.0,0.0,0.0,0.0,0.0,0.0,0.0,0.0,0.0,0.0,0.0,0.0,0.0,0.0,0.0,0.0,0.0,0.0,0.0,0.0,0.0,0.0,0.0,2.6811,2.664,2.6057,2.6258,2.6531,2.6888,2.7769,2.8036,2.7783,2.788,2.7745,2.7437,2.7152,0.0,0.0,0.0,0.0,2.6788,2.6736,2.6563,2.6404,2.6336,2.619,2.5988,2.5948,2.5893,2.5893,2.5893,2.5674,2.5286,2.4978,2.5104,2.5342,2.5342,2.566,2.6159,2.684,2.7006,2.7013,2.717,2.7193,2.7095,2.6589,2.6533,2.6658,2.7095,2.7229,2.7364,2.7908,2.721,2.6531,2.6401,2.5586,2.482,2.4268,2.4192,2.4192,2.4192,2.4556,2.4971,2.5372,2.5912,2.6377,2.6678,2.5912,2.5247,2.4845,2.5611,2.6076,2.6076,2.7143,2.772,2.772,2.8386,2.9013,2.9591,2.9729,2.9468,2.8828,2.8669,2.8271,1.1409,1.2743,1.4014,1.3451,1.3307,1.3075,1.2141,0.0,0.0,0.0,0.0,0.0,0.0,0.0,0.0,0.0,0.0,0.0,0.0,0.0,0.0,0.0,0.0,0.0,0.0,0.0,0.0,0.0,0.0,0.0,0.0,2.5832,2.5689,2.5121,2.502,2.529,2.5986,2.6491,2.6729,2.675,2.6627,2.6515,2.6297,2.6017,2.6025,0.0,0.0,0.0,2.651,2.6365,2.6258,2.6096,2.5865,2.5715,2.555,2.5328,2.5384,2.5564,2.5314,2.509,2.4808,2.4381,2.4567,2.4935,2.5118,2.5216,2.5575,2.6989,2.7023,2.6808,2.7394,2.7242,2.6782,2.6589,2.6533,2.6589,2.685,2.6633,2.6575,2.6841,2.6258,2.5614,2.5346,2.4823,2.4343,2.4042,2.4004,2.4092,2.4343,2.5084,2.5686,2.5963,2.6728,2.7331,2.7632,2.7092,2.6628,2.6339,2.6892,2.7218,2.7218,2.8034,2.8612,2.8875,2.9176,2.9478,2.9792,2.9546,2.9221,2.8749,2.8431,2.7962,0.9376,1.0671,1.2266,1.2717,1.2324,1.1573,0.0,0.0,0.0,0.0,0.0,0.0,0.0,0.0,0.0,0.0,0.0,0.0,0.0,0.0,0.0,0.0,0.0,0.0,0.0,0.0,0.0,0.0,0.0,0.0,0.0,2.5329,2.5082,2.4364,2.4214,2.4616,2.5623,2.5241,2.5331,2.594,2.5461,2.5202,2.5202,2.4898,2.504,0.0,0.0,0.0,2.6101,2.5793,2.57,2.5729,2.5272,2.5104,2.5048,2.4637,2.4751,2.5048,2.4509,2.4266,2.4208,2.3859,2.3975,2.4323,2.4751,2.4637,2.4807,2.6989,2.6856,2.636,2.7367,2.7043,2.6383,2.6465,2.6465,2.6427,2.6352,2.5937,2.5573,2.5485,2.5059,2.4569,2.4192,2.4054,2.4029,2.4117,2.4117,2.4356,2.4996,2.5887,2.6596,2.676,2.7544,2.8134,2.8222,2.8235,2.8273,2.836,2.8285,2.8273,2.836,2.8812,2.9289,2.9779,2.9792,2.9792,2.9792,2.93,2.9052,2.8973,2.8283,2.7893,0.8283,0.8229,0.8406,0.9051,0.9226,0.9,0.0,0.0,0.0,0.0,0.0,0.0,0.0,0.0,0.0,0.0,0.0,0.0,0.0,0.0,0.0,0.0,0.0,0.0,0.0,0.0,0.0,0.0,0.0,0.0,0.0,2.5307,2.502,2.4188,2.4282,2.4204,2.396,2.4461,2.4717,2.4867,2.4861,2.4883,2.4834,2.4405,2.4261,0.0,0.0,2.4648,2.5173,2.4747,2.4819,2.5272,2.4808,2.4637,2.458,2.4523,2.458,2.4509,2.3728,2.3314,2.3015,2.258,2.2738,2.3122,2.3479,2.3598,2.4079,2.6008,2.6096,2.5689,2.5879,2.5952,2.605,2.6396,2.6258,2.5983,2.577,2.5661,2.5473,2.5021,2.4506,2.4243,2.4632,2.4305,2.4155,2.4619,2.4695,2.5059,2.6076,2.642,2.6816,2.7758,2.8009,2.8298,2.8762,2.88,2.9013,2.9503,2.9076,2.9026,2.9515,2.9616,2.9704,2.9792,2.9792,2.9792,2.9792,2.93,2.8895,2.859,2.8122,2.7719,0.6284,0.6237,0.638,0.6657,0.7357,0.7918,0.0,0.0,0.0,0.0,0.0,0.0,0.0,0.0,0.0,0.0,0.0,0.0,0.0,0.0,0.0,0.0,0.0,0.0,0.0,0.0,0.0,0.0,0.0,0.0,0.0,0.0,2.4338,2.3952,2.3709,2.3478,2.3201,2.3316,2.3522,2.3911,2.3705,2.3616,2.3616,2.3235,2.3224,2.3533,0.0,2.3348,2.3873,2.3607,2.3665,2.3874,2.3658,2.361,2.361,2.361,2.3623,2.3636,2.3027,2.2798,2.2641,2.2099,2.2161,2.2567,2.2895,2.2907,2.3094,2.4466,2.4899,2.5127,2.5933,2.5884,2.5606,2.5816,2.5898,2.582,2.54,2.5253,2.5021,2.4481,2.4167,2.4079,2.4343,2.4406,2.4619,2.5159,2.5247,2.5636,2.6766,2.7168,2.7585,2.8176,2.8436,2.8721,2.8969,2.8839,2.9028,2.9767,2.9541,2.9515,2.9779,2.9546,2.9378,2.9378,2.9234,2.9077,2.9077,2.8669,2.8167,2.758,2.7545,2.7219,0.3957,0.4122,0.4492,0.0,0.0,0.0,0.0,0.0,0.0,0.0,0.0,0.0,0.0,0.0,0.0,0.0,0.0,0.0,0.0,0.0,0.0,0.0,0.0,0.0,0.0,0.0,0.0,0.0,0.0,0.0,0.0,0.0,2.3739,2.3711,2.3157,2.2844,2.2754,2.242,2.2512,2.3083,2.2495,2.2263,2.231,2.1983,2.209,2.2484,2.1961,2.2081,2.2565,2.2493,2.2521,2.2643,2.2623,2.2665,2.2665,2.2665,2.2677,2.2702,2.2384,2.2273,2.2235,2.1726,2.1737,2.2049,2.2421,2.2261,2.2193,2.3313,2.3842,2.4369,2.5815,2.5693,2.5182,2.5312,2.5368,2.5359,2.4958,2.4682,2.4341,2.3904,2.3904,2.4042,2.4167,2.4644,2.5119,2.559,2.5765,2.6133,2.7117,2.7654,2.8064,2.8301,2.856,2.8724,2.8724,2.8315,2.8407,2.9209,2.9287,2.9378,2.9624,2.9221,2.8961,2.887,2.8657,2.8339,2.7995,2.7777,2.7267,2.6565,2.6693,2.6467,0.1453,0.1622,0.183,0.2363,0.0,0.0,0.0,0.0,0.0,0.0,0.0,0.0,0.0,0.0,0.0,0.0,0.0,0.0,0.0,0.0,0.0,0.0,0.0,0.0,0.0,0.0,0.0,0.0,0.0,0.0,0.0,0.0,0.0,2.3363,2.3038,2.2694,2.236,2.2109,2.2156,2.236,2.1513,2.1237,2.1465,2.0944,2.0736,2.0775,2.0725,2.0938,2.1223,2.128,2.1649,2.216,2.2201,2.2247,2.2247,2.2247,2.2049,2.1776,2.1776,2.1537,2.1296,2.1221,2.1221,2.1348,2.1651,2.1537,2.162,2.3257,2.3301,2.3129,2.4354,2.4753,2.4921,2.5241,2.473,2.416,2.4237,2.3907,2.3504,2.3253,2.3627,2.4167,2.4669,2.5197,2.5602,2.5832,2.6254,2.6626,2.6904,2.7396,2.7939,2.8402,2.7959,2.7637,2.7637,2.7058,2.6976,2.7637,2.7637,2.8131,2.9131,2.8749,2.8395,2.8176,2.8395,2.7914,2.6648,2.6823,2.6565,2.5819,2.5516,2.5285,-0.1124,-0.0836,-0.0325,0.0,0.0,0.0,0.0,0.0,0.0,0.0,0.0,0.0,0.0,0.0,0.0,0.0,0.0,0.0,0.0,0.0,0.0,0.0,0.0,0.0,0.0,0.0,0.0,0.0,0.0,0.0,0.0,0.0,0.0,2.3377,2.2526,2.2016,2.1874,2.1299,2.0944,2.0868,2.0795,2.0746,2.0633,2.0434,2.0346,2.0346,1.9888,1.9808,1.9927,1.9785,2.0108,2.0677,2.1346,2.1737,2.1851,2.1675,2.1737,2.1925,2.1537,2.1411,2.14,2.0892,2.0688,2.0624,2.0442,2.0313,2.0522,2.2161,2.2377,2.257,2.4249,2.4565,2.449,2.4622,2.4554,2.4319,2.3728,2.3777,2.371,2.296,2.3492,2.4167,2.472,2.5247,2.5765,2.6254,2.6478,2.6773,2.7372,2.7584,2.7777,2.8063,2.7499,2.6812,2.6091,2.5652,2.5641,2.6008,2.6577,2.7221,2.8051,2.7325,2.7174,2.7926,2.7348,2.6846,2.634,2.6423,2.5841,2.4829,2.5105,2.4935,-0.3312,-0.2892,-0.2376,0.0,0.0,0.0,0.0,0.0,0.0,0.0,0.0,0.0,0.0,0.0,0.0,0.0,0.0,0.0,0.0,0.0,0.0,0.0,0.0,0.0,0.0,0.0,0.0,0.0,0.0,0.0,0.0,0.0,0.0,0.0,2.2156,2.1506,2.1313,2.061,2.0055,1.9579,1.985,1.9901,1.9837,1.9722,1.967,1.967,1.9056,1.875,1.8637,1.8487,1.8938,1.9795,2.0404,2.1072,2.1463,2.1083,2.1348,2.1812,2.136,2.1146,2.0996,2.0549,2.0161,1.977,1.9671,1.9539,1.9786,2.1413,2.1896,2.2327,2.4151,2.4418,2.42,2.42,2.4174,2.3956,2.3367,2.3209,2.3015,2.264,2.3045,2.3712,2.4514,2.4834,2.5308,2.6042,2.6214,2.643,2.6972,2.7376,2.739,2.7092,2.6599,2.5913,2.4935,2.4478,2.4478,2.485,2.5242,2.5891,2.6894,2.608,2.6008,2.6928,2.6268,2.5684,2.5253,2.5432,2.5009,2.3907,2.4337,2.4251,-0.4955,-0.452,0.0,0.0,0.0,0.0,0.0,0.0,0.0,0.0,0.0,0.0,0.0,0.0,0.0,0.0,0.0,0.0,0.0,0.0,0.0,0.0,0.0,0.0,0.0,0.0,0.0,0.0,0.0,0.0,0.0,0.0,0.0,0.0,2.1949,2.1264,2.061,2.0194,1.9527,1.8614,1.8614,1.8721,1.8987,1.8721,1.8614,1.856,1.8127,1.7744,1.7501,1.7528,1.8382,1.9676,1.9625,2.0261,2.1083,2.056,2.0764,2.1158,2.1158,2.0549,1.9857,2.0279,1.9497,1.8643,1.933,1.932,1.9364,2.1333,2.1896,2.2257,2.3781,2.42,2.42,2.42,2.342,2.2821,2.3147,2.2001,2.1169,2.1999,2.2202,2.2633,2.401,2.3976,2.4152,2.5143,2.5419,2.5506,2.5658,2.652,2.6633,2.5369,2.52,2.4935,2.4241,2.3474,2.3396,2.4166,2.3474,2.3897,2.5735,2.5432,2.5094,2.4787,2.5094,2.4509,2.3135,2.382,2.382,2.3135,2.3135,2.3135,-0.7143,0.0,0.0,0.0,0.0,0.0,0.0,0.0,0.0,0.0,0.0,0.0,0.0,0.0,0.0,0.0,0.0,0.0,0.0,0.0,0.0,0.0,0.0,0.0,0.0,0.0,0.0,0.0,0.0,0.0,0.0,0.0,0.0,0.0,2.1104,2.056,2.0194,1.9463,1.878,1.8116,1.7765,1.7886,1.8344,1.829,1.8073,1.7799,1.7689,1.7412,1.7008,1.7344,1.7766,1.8197,1.8854,1.9326,1.9626,1.9792,1.9781,1.9704,1.9987,1.9573,1.8839,1.8596,1.8258,1.7852,1.7407,1.7398,1.7879,1.9778,2.0592,2.1311,2.3105,2.3897,2.42,2.42,2.3959,2.3475,2.2536,2.2139,2.1708,2.0888,2.0918,2.1297,2.2116,2.243,2.2811,2.3632,2.4265,2.4802,2.5256,2.5616,2.5443,2.4594,2.4509,2.4251,2.3474,2.3222,2.3222,2.3396,2.3222,2.356,2.4659,2.4079,2.4166,2.5094,2.4669,2.4251,2.3907,2.4079,2.382,2.3135,2.3135,2.2978,0.0,0.0,0.0,0.0,0.0,0.0,0.0,0.0,0.0,0.0,0.0,0.0,0.0,0.0,0.0,0.0,0.0,0.0,0.0,0.0,0.0,0.0,0.0,0.0,0.0,0.0,0.0,0.0,0.0,0.0,0.0,0.0,0.0,0.0,1.9144,1.8884,1.8633,1.7961,1.7503,1.7158,1.6837,1.6989,1.759,1.7755,1.7755,1.7468,1.6944,1.6436,1.5951,1.6496,1.6888,1.7116,1.7789,1.8343,1.8701,1.8747,1.8767,1.8844,1.9054,1.8643,1.7891,1.7593,1.7102,1.6665,1.6349,1.6391,1.6817,1.8598,1.9523,2.0257,2.1818,2.2911,2.3728,2.4116,2.4051,2.353,2.2201,2.1729,2.1217,2.0129,1.9901,2.0172,2.1052,2.1152,2.141,2.2582,2.3503,2.4347,2.5072,2.52,2.4935,2.4251,2.4155,2.3907,2.3135,2.3135,2.3135,2.3135,2.3135,2.3309,2.3734,2.3309,2.3484,2.4337,2.3993,2.3734,2.3734,2.3734,2.356,2.3135,2.3135,2.291,0.0,0.0,0.0,0.0,0.0,0.0,0.0,0.0,0.0,0.0,0.0,0.0,0.0,0.0,0.0,0.0,0.0,0.0,0.0,0.0,0.0,0.0,0.0,0.0,0.0,0.0,0.0,0.0,0.0,0.0,0.0,0.0,0.0,1.5977,1.6371,1.6451,1.6287,1.6007,1.5827,0.0,1.5588,1.581,1.6507,1.7112,1.7357,1.7234,1.5958,1.5099,1.4529,1.5206,1.5733,1.6177,1.6527,1.7226,1.8022,1.7641,1.7807,1.8307,1.8375,1.7755,1.7005,1.6949,1.6163,1.5342,1.5972,1.599,1.612,1.7839,1.8658,1.9209,2.0262,2.1584,2.2798,2.3728,2.3618,2.3069,2.1937,2.0913,2.0054,1.9568,1.9075,1.9132,2.0407,2.0047,2.0115,2.1804,2.2905,2.3889,2.4788,2.4978,2.4765,2.4155,2.4069,2.382,2.3135,2.3135,2.3135,2.3135,2.3135,2.3135,2.3135,2.3135,2.3135,2.3135,2.3135,2.3135,2.3135,2.3135,2.3135,2.3135,2.3135,2.2891,0.0,0.0,0.0,0.0,0.0,0.0,0.0,0.0,0.0,0.0,0.0,0.0,0.0,0.0,0.0,0.0,0.0,0.0,0.0,0.0,0.0,0.0,0.0,0.0,0.0,0.0,0.0,0.0,0.0,0.0,0.0,0.0,0.0,1.228,1.3195,1.3985,1.4593,1.4092,1.3784,0.0,1.3166,1.3354,1.4251,1.5833,1.6358,1.5958,1.4678,1.4282,1.4529,1.4638,1.4575,1.4385,1.5148,1.5557,1.5734,1.6346,1.6668,1.6821,1.7097,1.676,1.6027,1.5725,1.5433,1.5163,1.508,1.5193,1.5635,1.7261,1.8156,1.8843,2.0023,2.0881,2.1476,2.1714,2.2339,2.2356,2.0514,1.991,1.9475,1.8564,1.8279,1.8241,1.8592,1.8744,1.9163,2.0276,2.1201,2.1959,2.2579,2.3153,2.3484,2.3309,2.3309,2.3309,2.3135,2.3135,2.3135,2.3135,2.3135,2.3135,2.3135,2.3135,2.3135,2.3135,2.3135,2.3135,2.3135,2.3135,2.3135,2.3135,2.3135,2.2734,0.0,0.0,0.0,0.0,0.0,0.0,0.0,0.0,0.0,0.0,0.0,0.0,0.0,0.0,0.0,0.0,0.0,0.0,0.0,0.0,0.0,0.0,0.0,0.0,0.0,0.0,0.0,0.0,0.0,0.0,0.0,0.4273,0.5578,0.7131,0.8844,1.0188,1.1083,1.1078,1.1223,1.1589,1.0938,1.1164,1.2199,1.44,1.5313,1.5099,1.3983,1.3692,1.4052,1.3923,1.3752,1.3528,1.3909,1.4136,1.4304,1.4771,1.5069,1.5275,1.548,1.5275,1.4956,1.4622,1.4513,1.4539,1.4447,1.4667,1.5179,1.6157,1.706,1.7893,1.8443,1.9514,2.0265,1.9719,2.0648,2.1228,1.9697,1.9318,1.8982,1.7929,1.7881,1.8008,1.8008,1.8359,1.8994,2.0068,2.0801,2.1533,2.2373,2.2861,2.3135,2.3135,2.3135,2.3135,2.3135,2.3135,2.3135,2.3135,2.3135,2.3135,2.3135,2.3135,2.3135,2.3135,2.3135,2.3135,2.3135,2.3135,2.3135,2.3135,2.293,2.2607,0.0,0.0,0.0,0.0,0.0,0.0,0.0,0.0,0.0,0.0,0.0,0.0,0.0,0.0,0.0,0.0,0.0,0.0,0.0,0.0,0.0,0.0,0.0,0.0,0.0,0.0,0.0,0.0,0.0,0.0,-0.2246,-0.0905,0.0424,0.1689,0.3964,0.5736,0.6998,0.7663,0.8488,0.9397,0.8909,0.9157,1.0229,1.2447,1.3714,1.4182,1.3356,1.3017,1.313,1.3017,1.2887,1.2765,1.2696,1.2814,1.3094,1.3294,1.36,1.3985,1.4057,1.4129,1.4014,1.3739,1.3643,1.3711,1.3813,1.4174,1.4637,1.5053,1.6016,1.6935,1.7004,1.8133,1.9116,1.8115,1.8939,1.9752,1.8896,1.8773,1.8496,1.7684,1.7745,1.8008,1.8008,1.8418,1.9111,2.0185,2.0918,2.1728,2.2783,2.3047,2.3135,2.3135,2.3135,2.3135,2.3135,2.3135,2.3135,2.3135,2.3135,2.3135,2.3135,2.3135,2.3135,2.3135,2.3135,2.3135,2.3135,2.3135,2.3135,2.3125,2.2705,2.251,0.0,0.0,0.0,0.0,0.0,0.0,0.0,0.0,0.0,0.0,0.0,0.0,0.0,0.0,0.0,0.0,0.0,0.0,0.0,0.0,0.0,0.0,0.0,0.0,0.0,0.0,0.0,0.0,0.0,0.0,-0.6607,-0.546,-0.4151,-0.2677,-0.0855,0.1281,0.3797,0.4351,0.55,0.7144,0.7194,0.7582,0.8353,0.9169,1.0636,1.2437,1.1851,1.1663,1.1764,1.1764,1.1329,1.0773,1.1142,1.1395,1.1601,1.2347,1.3046,1.3608,1.3985,1.4129,1.4014,1.3316,1.3094,1.3099,1.2832,1.3371,1.4138,1.48,1.592,1.6995,1.7312,1.7785,1.8106,1.7699,1.7483,1.7424,1.768,1.7706,1.766,1.7546,1.7745,1.8008,1.8008,1.8672,1.9258,1.9434,2.0791,2.1865,2.2031,2.2685,2.3135,2.3135,2.3135,2.3135,2.3135,2.3135,2.3135,2.3135,2.3135,2.3135,2.3135,2.3135,2.3135,2.3135,2.3135,2.3135,2.3135,2.3135,2.3135,2.3125,2.2705,2.251,0.0,0.0,0.0,0.0,0.0,0.0,0.0,0.0,0.0,0.0,0.0,0.0,0.0,0.0,0.0,0.0,0.0,0.0,0.0,0.0,0.0,0.0,0.0,0.0,0.0,0.0,0.0,0.0,0.0,-1.0346,-0.9824,-0.8779,-0.7599,-0.636,-0.4403,-0.2198,0.0431,0.1303,0.3018,0.5462,0.5053,0.5064,0.5401,0.6731,0.88,1.1309,1.0898,1.0905,1.1205,1.0954,1.0451,0.9812,0.9748,0.986,1.0141,1.0539,1.1391,1.2346,1.2562,1.2818,1.3034,1.2564,1.2369,1.2236,1.1971,1.2497,1.323,1.3942,1.4977,1.6106,1.6962,1.7271,1.7496,1.7746,1.7338,1.6876,1.6954,1.6855,1.6969,1.743,1.7745,1.8164,1.8643,1.9043,1.9619,2.0596,2.1396,2.206,2.2529,2.291,2.3135,2.3135,2.3135,2.3135,2.3135,2.3135,2.3135,2.3135,2.3135,2.3135,2.3135,2.3135,2.3135,2.3135,2.3135,2.3135,2.3135,2.3135,2.3135,2.3125,2.2705,2.2637,0.0,0.0,0.0,0.0,0.0,0.0,0.0,0.0,0.0,0.0,0.0,0.0,0.0,0.0,0.0,0.0,0.0,0.0,0.0,0.0,0.0,0.0,0.0,0.0,0.0,0.0,0.0,0.0,0.0,-1.2859,-1.2416,-1.1469,-1.0463,-0.9497,-0.7633,-0.5699,-0.3684,-0.1689,0.0606,0.3014,0.2783,0.2717,0.2764,0.4579,0.6764,0.9188,0.9624,1.0008,1.0255,1.0078,0.9527,0.8764,0.8452,0.8391,0.8548,0.8673,0.9483,1.0569,1.0935,1.1326,1.1729,1.1664,1.1517,1.1301,1.1049,1.1629,1.2422,1.2885,1.4011,1.5304,1.6226,1.6752,1.7074,1.7384,1.7166,1.6816,1.6495,1.6403,1.6551,1.7332,1.7676,1.8143,1.9141,1.9399,1.9975,2.1477,2.181,2.2092,2.2707,2.2696,2.2794,2.2872,2.296,2.296,2.3057,2.3135,2.3135,2.3135,2.3135,2.3135,2.3135,2.3135,2.3135,2.3135,2.3135,2.3135,2.3135,2.3135,2.3086,2.2969,2.2656,2.2676,0.0,0.0,0.0,0.0,0.0,0.0,0.0,0.0,0.0,0.0,0.0,0.0,0.0,0.0,0.0,0.0,0.0,0.0,0.0,0.0,0.0,0.0,0.0,0.0,0.0,0.0,0.0,0.0,0.0,-1.4552,-1.4277,-1.3523,-1.2773,-1.2015,-1.0864,-0.9826,-0.9013,-0.4638,-0.1983,-0.0998,0.039,0.1001,0.1051,0.2522,0.3785,0.5078,0.7507,0.8474,0.8361,0.8882,0.8175,0.6867,0.7173,0.699,0.67,0.7279,0.7737,0.8299,0.9623,1.0143,1.0375,1.0652,1.0615,1.0347,1.008,1.0847,1.1819,1.1887,1.344,1.5072,1.515,1.6119,1.6871,1.6199,1.648,1.6796,1.6413,1.6289,1.6551,1.7332,1.7539,1.7865,1.9068,1.9583,2.0169,2.1132,2.1519,2.1686,2.1731,2.1731,2.1909,2.2353,2.2441,2.2618,2.3047,2.3135,2.3135,2.3135,2.3135,2.3135,2.3135,2.3135,2.3135,2.3135,2.3135,2.3135,2.3135,2.3135,2.293,2.2549,2.2519,2.2519,0.0,0.0,0.0,0.0,0.0,0.0,0.0,0.0,0.0,0.0,0.0,0.0,0.0,0.0,0.0,0.0,0.0,0.0,0.0,0.0,0.0,0.0,0.0,0.0,0.0,0.0,0.0,0.0,0.0,0.0,-1.6206,-1.5557,-1.4823,-1.4155,-1.3,-1.1545,-0.9725,-0.5877,-0.3615,-0.3032,-0.1941,-0.1223,-0.0777,0.0899,0.2341,0.3671,0.5051,0.6245,0.7272,0.7926,0.7414,0.6306,0.657,0.6363,0.5939,0.5821,0.6546,0.7644,0.8264,0.9181,1.0053,0.9977,1.0024,0.9887,0.9587,0.9849,1.0503,1.1288,1.2349,1.3558,1.4779,1.5408,1.5815,1.5918,1.5943,1.5906,1.5988,1.614,1.6421,1.6691,1.733,1.828,1.9525,2.0039,2.0709,2.1826,2.1813,2.1741,2.1741,2.1741,2.1731,2.1909,2.2264,2.2441,2.2608,2.2969,2.3135,2.3135,2.2784,2.2794,2.3057,2.2794,2.2794,2.3047,2.3135,2.3135,2.3135,2.2784,2.2485,2.2083,2.2013,2.1898,0.0,0.0,0.0,0.0,0.0,0.0,0.0,0.0,0.0,0.0,0.0,0.0,0.0,0.0,0.0,0.0,0.0,0.0,0.0,0.0,0.0,0.0,0.0,0.0,0.0,0.0,0.0,0.0,0.0,0.0,-1.7652,-1.7109,-1.6388,-1.5564,-1.4301,-1.2725,-1.078,-0.7918,-0.6028,-0.5105,-0.4187,-0.3377,-0.2726,-0.0834,0.0562,0.1663,0.2911,0.4442,0.6156,0.6919,0.6633,0.5593,0.5796,0.547,0.4996,0.4586,0.5237,0.6463,0.6912,0.7927,0.9003,0.9301,0.9364,0.927,0.92,0.9314,0.9714,1.0579,1.1471,1.2505,1.3896,1.4444,1.4864,1.5506,1.5232,1.4993,1.5383,1.5638,1.5912,1.6272,1.682,1.7788,1.9453,1.9672,2.0071,2.1688,2.1544,2.1195,2.1195,2.1195,2.1284,2.1463,2.19,2.2264,2.2353,2.2784,2.3135,2.3135,2.2696,2.2432,2.2492,2.2246,2.2167,2.2227,2.2511,2.2541,2.2485,2.2463,2.2136,2.1644,2.1715,2.1496,0.0,0.0,0.0,0.0,0.0,0.0,0.0,0.0,0.0,0.0,0.0,0.0,0.0,0.0,0.0,0.0,0.0,0.0,0.0,0.0,0.0,0.0,0.0,0.0,0.0,0.0,0.0,0.0,0.0,-1.8988,-1.8592,-1.8171,-1.7424,-1.6311,-1.479,-1.357,-1.2608,-1.0855,-0.916,-0.7505,-0.6284,-0.5383,-0.467,-0.2781,-0.1668,-0.1111,0.1094,0.3088,0.4868,0.5921,0.5647,0.4629,0.481,0.4478,0.3878,0.3572,0.3895,0.4567,0.5651,0.6407,0.7084,0.8468,0.8641,0.8382,0.8996,0.9314,0.9512,0.9679,1.0949,1.2267,1.2514,1.3179,1.4026,1.4836,1.4416,1.3992,1.4689,1.4832,1.5117,1.6061,1.585,1.6323,1.887,1.8434,1.8479,2.0669,2.0645,2.0292,2.0292,2.0292,2.0464,2.0907,2.1365,2.1909,2.2344,2.2794,2.3057,2.3135,2.2618,2.2059,2.1391,2.1526,2.1356,2.0683,2.1356,2.1539,2.1126,2.197,2.1942,2.1099,2.1432,2.1248,-1.0274,0.0,0.0,0.0,0.0,0.0,0.0,0.0,0.0,0.0,0.0,0.0,0.0,0.0,0.0,0.0,0.0,0.0,0.0,0.0,0.0,0.0,0.0,0.0,0.0,0.0,0.0,0.0,-2.01,-1.996,-1.9617,-1.9594,-1.8956,-1.7666,-1.7019,-1.5966,-1.4541,-1.2712,-1.1169,-0.9898,-0.7887,-0.6538,-0.5751,-0.4673,-0.3398,-0.2003,-0.0519,0.0769,0.1865,0.3796,0.4573,0.4638,0.4852,0.4402,0.3673,0.3539,0.3658,0.3916,0.4628,0.5329,0.6103,0.715,0.7734,0.8052,0.7975,0.8487,0.9074,0.8994,1.0254,1.1814,1.2934,1.3715,1.4131,1.3525,1.3498,1.36,1.3872,1.376,1.3977,1.5046,1.5454,1.6177,1.8002,1.8385,1.9067,2.0748,2.0645,2.0292,2.0292,2.0292,2.0382,2.0464,2.0916,2.1365,2.182,2.2344,2.2706,2.3047,2.2344,2.1989,2.2059,2.1535,2.1266,2.1356,2.1642,2.1166,1.9974,2.0891,2.1004,2.026,1.9684,1.9462,0.0,0.0,0.0,0.0,0.0,0.0,0.0,-1.6035,0.0,0.0,0.0,0.0,0.0,0.0,0.0,0.0,0.0,0.0,0.0,0.0,0.0,0.0,0.0,0.0,0.0,0.0,0.0,-2.0426,-2.0561,-2.0613,-2.0514,-2.0311,-1.9884,-1.9126,-1.8427,-1.741,-1.6022,-1.4428,-1.2895,-1.1361,-0.9709,-0.8285,-0.7143,-0.6199,-0.4992,-0.344,-0.2324,-0.1154,0.0,0.1335,0.2722,0.4017,0.4212,0.4132,0.3776,0.3378,0.3599,0.4057,0.4126,0.4677,0.5532,0.6191,0.6978,0.7608,0.7557,0.8067,0.8591,0.8721,0.9724,1.1093,1.2579,1.2959,1.2921,1.2657,1.2548,1.2654,1.3173,1.2903,1.2959,1.4338,1.4649,1.5157,1.6863,1.7465,1.8341,2.0022,2.0283,2.0292,2.0292,2.0292,2.0201,1.9828,2.0275,2.0538,2.0447,2.1159,2.1606,2.1587,2.1168,2.0808,2.043,1.9985,1.9911,2.0184,2.0464,2.0352,1.986,2.0344,2.0223,1.9624,1.9125,1.8803,0.0,0.0,0.0,0.0,0.0,0.0,-1.6418,-1.6003,0.0,0.0,0.0,0.0,0.0,0.0,0.0,0.0,0.0,0.0,0.0,0.0,0.0,0.0,0.0,0.0,0.0,-2.1337,-2.1214,-2.0545,-2.0745,-2.1007,-2.1212,-2.0682,-2.0416,-2.0485,-1.9409,-1.8303,-1.718,-1.6059,-1.4427,-1.2349,-1.1495,-1.0257,-0.8639,-0.7511,-0.644,-0.5358,-0.431,-0.2876,-0.1282,-0.1225,0.0424,0.2953,0.3252,0.365,0.3967,0.3204,0.3549,0.4414,0.3903,0.4252,0.506,0.5491,0.6219,0.6946,0.7364,0.7678,0.8079,0.8696,0.9301,1.0063,1.163,1.1539,1.115,1.1867,1.1642,1.1473,1.2492,1.2224,1.219,1.355,1.3433,1.3773,1.5619,1.6108,1.6922,1.883,1.9679,2.015,2.0283,2.0201,1.9928,1.9279,1.9538,1.953,1.888,1.9786,2.0133,1.9588,1.9695,1.9155,1.787,1.7986,1.8179,1.8179,1.878,1.933,2.0019,1.9861,1.9588,1.9279,1.9279,1.8819,0.0,0.0,0.0,0.0,0.0,0.0,0.0,-1.4449,0.0,0.0,0.0,0.0,0.0,0.0,0.0,0.0,0.0,0.0,0.0,0.0,0.0,0.0,0.0,0.0,0.0,-2.115,-2.1214,-2.0545,-2.0745,-2.1023,-2.1339,-2.1477,-2.1368,-2.0959,-2.0438,-1.9546,-1.8391,-1.7055,-1.5568,-1.3932,-1.2541,-1.1098,-0.9695,-0.8619,-0.787,-0.7298,-0.5986,-0.4809,-0.3735,-0.2685,-0.0888,0.1286,0.23,0.3013,0.3407,0.3345,0.3322,0.3352,0.3478,0.3565,0.3717,0.4616,0.5185,0.5631,0.5761,0.6447,0.7302,0.8149,0.861,0.8944,0.9867,1.0445,1.0779,1.0401,1.0945,1.1449,1.1312,1.1717,1.2069,1.2123,1.2567,1.3348,1.4801,1.5718,1.6852,1.8588,1.884,1.9297,2.0158,1.9745,1.9371,1.9188,1.9271,1.9171,1.8796,1.9063,1.9239,1.9497,1.9147,1.888,1.8603,1.8257,1.8357,1.9004,1.8268,1.8086,1.8542,1.8797,1.9257,2.0102,1.9463,1.8819,0.0,0.0,0.0,-1.5061,0.0,0.0,0.0,0.0,-1.4814,0.0,0.0,0.0,0.0,0.0,0.0,0.0,0.0,0.0,0.0,0.0,0.0,0.0,0.0,0.0,0.0,-2.0275,-2.0473,-2.0602,-2.0557,-2.0949,-2.1982,-2.194,-2.1823,-2.1595,-2.1149,-2.0286,-1.9045,-1.7865,-1.6498,-1.488,-1.3496,-1.2113,-1.0762,-0.9938,-0.9051,-0.8159,-0.7346,-0.6426,-0.5345,-0.42,-0.2649,-0.0796,0.1186,0.216,0.2564,0.3055,0.342,0.3581,0.3342,0.333,0.3592,0.3935,0.458,0.519,0.5124,0.5857,0.6798,0.7294,0.75,0.7759,0.8636,0.9318,0.9829,0.9947,1.0643,1.1216,1.1095,1.1468,1.1756,1.1689,1.2195,1.2864,1.3791,1.4874,1.6073,1.7683,1.8079,1.8505,1.9604,1.9096,1.8542,1.8156,1.8064,1.7878,1.7311,1.7684,1.7863,1.7669,1.777,1.7684,1.7311,1.7044,1.7326,1.8071,1.7535,1.7535,1.8087,1.7896,1.8263,1.9188,1.8819,1.845,0.0,0.0,0.0,0.0,0.0,-1.5056,0.0,0.0,0.0,-1.5746,0.0,0.0,0.0,0.0,0.0,0.0,0.0,0.0,0.0,0.0,0.0,0.0,0.0,0.0,0.0,-1.9207,-1.9531,-2.0306,-2.0041,-2.0565,-2.2261,-2.1939,-2.1819,-2.2136,-2.1582,-2.0749,-1.9576,-1.8565,-1.722,-1.5543,-1.4411,-1.312,-1.1665,-1.1141,-1.0159,-0.8856,-0.86,-0.7847,-0.6709,-0.5688,-0.449,-0.3058,-0.0362,0.1,0.1405,0.2192,0.308,0.3882,0.3166,0.324,0.36,0.3457,0.4181,0.5041,0.4897,0.5538,0.6229,0.6279,0.6367,0.6606,0.7509,0.8134,0.8742,0.9604,1.0391,1.0904,1.1159,1.1391,1.1599,1.1621,1.2042,1.2478,1.3026,1.3992,1.516,1.6632,1.7077,1.7712,1.8856,1.8357,1.7707,1.7044,1.7037,1.6669,1.5825,1.6386,1.648,1.5825,1.6386,1.648,1.5832,1.592,1.6298,1.6951,1.7037,1.7326,1.7893,1.7138,1.7326,1.8272,1.8179,1.8087,0.0,0.0,0.0,0.0,-1.7313,0.0,0.0,0.0,-1.5927,-1.4554,0.0,0.0,0.0,0.0,0.0,0.0,0.0,0.0,0.0,0.0,0.0,0.0,0.0,0.0,0.0,0.0,-1.8653,-1.9151,-1.8999,-1.9528,-2.1029,-2.1,-2.1329,-2.2241,-2.1642,-2.0926,-2.0124,-1.9178,-1.7838,-1.6108,-1.5287,-1.3899,-1.1963,-1.1864,-1.1283,-1.0249,-0.994,-0.9183,-0.8153,-0.7031,-0.619,-0.5372,-0.2743,-0.1123,-0.0256,0.032,0.1576,0.3038,0.278,0.2909,0.3076,0.3199,0.3779,0.445,0.4755,0.5029,0.5393,0.5623,0.5738,0.579,0.6025,0.6859,0.7901,0.8733,0.9639,1.0459,1.091,1.1409,1.1714,1.1534,1.196,1.2412,1.2815,1.3656,1.4568,1.5611,1.5943,1.6645,1.8003,1.7606,1.7138,1.7044,1.7037,1.6669,1.5825,1.5927,1.592,1.5832,1.592,1.592,1.5832,1.648,1.6951,1.7037,1.7037,1.7044,1.7138,1.6292,1.7044,1.9096,1.8357,1.8087,0.0,0.0,0.0,0.0,0.0,0.0,0.0,0.0,-1.5713,0.0,0.0,0.0,0.0,0.0,0.0,0.0,0.0,0.0,0.0,0.0,0.0,0.0,0.0,0.0,0.0,0.0,0.0,0.0,0.0,-1.8251,-2.0044,-2.0739,-2.1288,-2.1701,-2.1678,-2.129,-2.0552,-1.9632,-1.8384,-1.686,-1.5796,-1.4307,-1.2589,-1.2209,-1.1434,-1.047,-1.0154,-0.9777,-0.9295,-0.8059,-0.7267,-0.6722,-0.5232,-0.3625,-0.1992,-0.0876,0.0311,0.1475,0.2403,0.2776,0.3007,0.3293,0.3638,0.4002,0.4608,0.4822,0.4985,0.5491,0.5528,0.5511,0.5742,0.6592,0.7501,0.8028,0.9217,1.0235,0.9846,1.0865,1.1597,1.1013,1.1671,1.2345,1.2472,1.311,1.3996,1.5147,1.535,1.5889,1.7245,1.6763,1.6292,1.6292,1.6292,1.6204,1.5832,1.5832,1.5832,1.5832,1.5832,1.5832,1.5832,1.6103,1.6292,1.6292,1.6292,1.6292,1.6292,1.592,1.6574,1.7885,1.7606,1.7419,-1.8197,0.0,0.0,0.0,0.0,0.0,0.0,0.0,0.0,0.0,0.0,0.0,0.0,0.0,0.0,0.0,0.0,0.0,0.0,0.0,0.0,0.0,0.0,0.0,0.0,0.0,0.0,0.0,0.0,0.0,-1.8936,-1.9816,-2.0552,-2.1215,-2.1457,-2.1401,-2.0927,-2.0104,-1.9009,-1.7612,-1.6336,-1.4824,-1.3205,-1.2444,-1.1584,-1.0624,-1.0205,-0.9999,-0.9895,-0.8718,-0.7972,-0.7538,-0.6832,-0.5389,-0.3547,-0.2499,-0.1307,-0.0061,0.1168,0.2156,0.3017,0.3354,0.3522,0.3744,0.4597,0.4773,0.4823,0.5476,0.5538,0.5474,0.5688,0.6331,0.7034,0.7535,0.872,0.9574,0.9051,1.0078,1.0958,1.0616,1.1252,1.1996,1.2224,1.2806,1.3567,1.4733,1.4925,1.5443,1.6497,1.6204,1.5832,1.5832,1.5832,1.5832,1.5832,1.5832,1.5832,1.5832,1.5832,1.5832,1.5832,1.5832,1.5832,1.5832,1.5832,1.5832,1.5832,1.5832,1.6109,1.6669,1.6669,1.6763,0.0,0.0,0.0,-1.7899,0.0,0.0,0.0,0.0,-1.7122,0.0,0.0,0.0,0.0,0.0,0.0,0.0,0.0,0.0,0.0,0.0,0.0,0.0,0.0,0.0,0.0,0.0,0.0,0.0,0.0,0.0,-1.7541,-1.7636,-1.8701,-2.1022,-2.0933,-2.0982,-2.1291,-2.075,-1.9693,-1.8168,-1.7001,-1.5525,-1.3856,-1.2831,-1.1882,-1.1023,-1.0308,-0.9999,-0.9947,-0.8995,-0.8302,-0.7794,-0.7002,-0.5948,-0.4938,-0.5172,-0.3542,-0.1227,-0.1165,0.0676,0.3072,0.3347,0.343,0.3666,0.4577,0.4833,0.4952,0.562,0.5691,0.5586,0.5593,0.5817,0.6263,0.7277,0.7781,0.8243,0.9013,0.9256,0.9624,1.0589,1.0827,1.1162,1.215,1.2806,1.3407,1.4079,1.4589,1.517,1.5752,1.5825,1.5832,1.5832,1.5832,1.5832,1.5832,1.5832,1.5832,1.5832,1.5832,1.5832,1.5832,1.5832,1.5832,1.5832,1.5832,1.5832,1.5832,1.5832,1.5825,1.5825,1.5825,1.6298,0.0,0.0,-2.2106,-1.9745,0.0,0.0,0.0,0.0,0.0,0.0,0.0,0.0,0.0,0.0,0.0,0.0,0.0,0.0,0.0,0.0,0.0,0.0,0.0,0.0,0.0,0.0,0.0,0.0,0.0,0.0,0.0,-1.7967,-1.9226,-2.0331,-2.081,-2.1166,-2.1415,-2.0927,-2.0206,-1.9236,-1.7812,-1.6316,-1.4778,-1.3423,-1.2267,-1.1259,-1.0608,-1.0316,-1.0308,-0.9732,-0.8988,-0.8168,-0.7955,-0.7057,-0.5726,-0.481,-0.3943,-0.2893,-0.0737,0.1416,0.3134,0.3207,0.3355,0.3661,0.4651,0.4836,0.4958,0.5627,0.5698,0.561,0.5705,0.5878,0.6129,0.6852,0.7522,0.7982,0.7804,0.8586,0.9385,0.9629,1.029,1.1013,1.1774,1.2253,1.285,1.3968,1.4422,1.495,1.5725,1.5832,1.5832,1.5832,1.5832,1.5832,1.5832,1.5832,1.5832,1.5832,1.5832,1.5832,1.5832,1.5832,1.5832,1.5832,1.5832,1.5832,1.5832,1.5832,1.5832,1.5832,1.5832,1.592,-2.2101,-2.289,0.0,-2.1098,-2.0608,0.0,-1.7633,0.0,0.0,0.0,0.0,0.0,0.0,0.0,0.0,0.0,0.0,0.0,0.0,0.0,0.0,0.0,0.0,0.0,0.0,0.0,-1.3266,-1.3468,0.0,0.0,0.0,0.0,-1.8614,-1.9815,-2.05,-2.1065,-2.1507,-2.118,-2.0619,-1.9753,-1.8345,-1.6946,-1.5592,-1.3986,-1.2793,-1.1972,-1.0956,-1.0565,-1.0514,-0.994,-0.9197,-0.8387,-0.8288,-0.7352,-0.59,-0.4934,-0.433,-0.3518,-0.0369,0.1293,0.2189,0.2971,0.3258,0.3509,0.423,0.468,0.5092,0.5498,0.5593,0.5688,0.5779,0.5874,0.6074,0.658,0.7104,0.7488,0.7183,0.7796,0.8574,0.9,0.9807,1.0593,1.1347,1.1784,1.246,1.3851,1.4249,1.4658,1.5624,1.5832,1.5832,1.5832,1.5832,1.5832,1.5832,1.5832,1.5832,1.5832,1.5832,1.5832,1.5832,1.5832,1.5832,1.5832,1.5832,1.5832,1.5832,1.5832,1.5832,1.5832,1.5832,1.5832]}]]